     2              OBSERVATION DATA    GPS                 RINEX VERSION / TYPE
teqc 2002Apr3 20051206 01:26:09UTC                          PGM / RUN BY / DATE
                                                            COMMENT
L2: 1 -> 1; 150 -> 5; 250 -> 9                              COMMENT
L2: 1 -> 1; 150 -> 5; 250 -> 9                              COMMENT
L2: 1 -> 1; 150 -> 5; 250 -> 9                              COMMENT
L2: 1 -> 1; 150 -> 5; 250 -> 9                              COMMENT
L2: 1 -> 1; 150 -> 5; 250 -> 9                              COMMENT
Original Marker Name: MILL                                  COMMENT
Campaign Name: CSUSB 2005                                   COMMENT
4-Character Station Name: MILL                              COMMENT
6-Character Antenna Code: DMRCHT                            COMMENT
Vertical Measurement Point: BCR                             COMMENT
Vertical Offset to Rinex Ref. Point: 0.0348                 COMMENT
Radial Measurement Point: ECF                               COMMENT
Radial Offset to Rinex Ref. Point: 0.1897                   COMMENT
Antenna Height from Field Measurement: 1.0790 m             COMMENT
Additional Antenna Identification Info.:                    COMMENT
Turborogue and Ashtech Choke Ring                           COMMENT
Original XYZ: -2404527.3000 -4693191.2900 3579040.2400      COMMENT
New XYZ position is based on association with SCEC monument COMMENT
E1D0S2S7+0011. Position of that monument is believed to be  COMMENT
valid to within 1 m horizontally; vertical accuracy         COMMENT
should be no worse than 3-times this value.                 COMMENT
                                                            COMMENT
Revised Rinex header created by UCSD GPS archive for        COMMENT
GSAC on 01-Apr-2006 (2006:091) 00:16:14 GMT                 COMMENT
For assistance contact dagnew@ucsd.edu                      COMMENT
or anderson@python.ucsd.edu                                 COMMENT
                                                            COMMENT
MILL 1952                                                   MARKER NAME
___ CSUSB                                                   OBSERVER / AGENCY
1606 ASHTECH Z-X ZB00                                       REC # / TYPE / VERS
3018 DORNE-MARGOL. TYPE T                                   ANT # / TYPE
 -2401966.0000 -4711964.0000  3555621.0000                  APPROX POSITION XYZ
        1.0274        0.0000        0.0000                  ANTENNA: DELTA H/E/N
     1     1     0                                          WAVELENGTH FACT L1/2
     7    C1    L1    L2    P1    P2    S1    S2            # / TYPES OF OBSERV
     0                                                      INTERVAL
  2005    10    14    18    55    0.000000                  TIME OF FIRST OBS
  2005    10    16     1    28   30.000000                  TIME OF LAST OBS
                                                            END OF HEADER
 05 10 14 18 55  0.0000000  0  3G 3G19G23
  23519330.3114   30036525.19353  23398265.89252  23519332.6364   23519327.0814
        49.0004         41.0004
  22354163.8834   29861802.94653  23270884.95452  22354164.7474   22354158.7364
        54.0004         47.0004
  22916335.6294   30133152.49153  23467482.82852  22916338.0144   22916331.1844
        51.0004         44.0004
 05 10 14 18 55 30.0000000  0  3G 3G19G23
  23526563.9964   30074538.01943  23427886.19542  23526565.5244   23526564.7064
        49.0004         40.0004
  22348241.2524   29830680.41243  23246633.62042  22348242.4904   22348236.5854
        54.0004         47.0004
  22930140.0794   30205692.27443  23524007.26842  22930141.0644   22930134.7384
        52.0004         44.0004
 05 10 14 18 56  0.0000000  0  3G 3G19G23
  23533878.9794   30112976.43843  23457838.12742  23533882.0684   23533876.3794
        49.0004         40.0004
  22342416.8424   29800071.94543  23222782.87642  22342417.7904   22342412.1374
        54.0004         47.0004
  22943987.2074   30278458.19643  23580707.92742  22943989.1204   22943981.6744
        52.0004         44.0004
 05 10 14 18 56 30.0000000  0  3G 3G19G23
  23541270.0204   30151816.87143  23488103.32842  23541271.8474   23541268.6534
        48.0004         40.0004
  22336686.0664   29769956.53143  23199316.32842  22336687.2374   22336681.0124
        54.0004         47.0004
  22957872.3834   30351426.81043  23637566.50942  22957874.1924   22957867.7094
        52.0004         44.0004
 05 10 14 18 57  0.0000000  0  3G 3G19G23
  23548746.8004   30191106.23243  23518718.34842  23548749.0984   23548744.9214
        48.0004         40.0004
  22331058.5874   29740383.71643  23176272.58942  22331059.7304   22331053.4544
        54.0004         47.0004
  22971805.3594   30424645.16443  23694619.71742  22971808.1394   22971800.7224
        51.0004         44.0004
 05 10 14 18 57 30.0000000  0  4G 3G27G19G23
  23395061.7914   29383486.50843  22889404.20942  23395065.1164   23395059.3934
        48.0004         39.0004
  21149747.2384    -961682.40054   -744413.97852  21149748.7884   21149744.1514
        57.0004         50.0004
  22164287.8194   28863996.85943  22493373.74242  22164289.4024   22164282.9444
        54.0004         47.0004
  22824539.2464   29650756.08243  23091589.18442  22824540.8274   22824533.7954
        51.0004         44.0004
 05 10 14 18 58  0.0000000  0  5G28G 3G27G19G23
  22327016.0504   -1068379.43753   -827856.08852  22327017.1914   22327011.9494
        53.0004         45.0004
  23407663.3044   29449707.58343  22941004.99842  23407665.4924   23407661.1054
        48.0004         40.0004
  21145992.7264    -981411.34444   -759787.18542  21145994.6194   21145989.6894
        57.0004         50.0004
  22163822.1424   28861550.86543  22491467.78542  22163823.3514   22163817.3394
        54.0004         47.0004
  22843521.5964   29750508.17843  23169318.04042  22843524.0174   22843516.4064
        49.0004         43.0004
 05 10 14 18 58 30.0000000  0  5G28G 3G27G19G23
  22314077.7334   -1136369.68943   -880835.48442  22314079.5644   22314075.4014
        53.0004         45.0004
  23420352.1244   29516386.25743  22992962.32542  23420354.9534   23420349.7124
        49.0004         40.0004
  21142261.4754   -1001018.91744   -775065.81742  21142263.6054   21142258.6794
        57.0004         50.0004
  22163463.1284   28859664.00543  22489997.52142  22163464.5244   22163458.2374
        54.0004         47.0004
  22862552.7994   29850519.05743  23247248.51742  22862555.7114   22862547.4314
        50.0004         42.0004
 05 10 14 18 59  0.0000000  0  5G28G 3G27G19G23
  22301196.1534   -1204063.21643   -933583.65442  22301198.0774   22301192.7624
        54.0004         45.0004
  23433126.5124   29583518.34443  23045273.00042  23433128.0774   23433124.7064
        47.0004         39.0004
  21138553.2194   -1020506.41644   -790250.88742  21138555.0504   21138550.3134
        57.0004         50.0004
  22163210.1314   28858334.66243  22488961.67742  22163211.1904   22163205.2114
        54.0004         47.0004
  22881632.8684   29950784.48543  23325377.34642  22881635.5004   22881628.2604
        50.0004         44.0004
 05 10 14 18 59 30.0000000  0  5G28G 3G27G19G23
  22288372.5784   -1271450.25743   -986093.00642  22288374.4804   22288369.6114
        53.0004         45.0004
  23445989.0724   29651110.51143  23097942.15742  23445991.1324   23445988.0894
        49.0004         40.0004
  21134869.3934   -1039864.69744   -805335.27142  21134871.4264   21134867.1484
        57.0004         50.0004
  22163065.2004   28857572.25943  22488367.60642  22163066.3894   22163060.6374
        54.0004         46.0004
  22900762.0644   30051311.45043  23403710.00442  22900764.3264   22900758.2874
        51.0004         43.0004
 05 10 14 19  0  0.0000000  0  5G28G 3G27G19G23
  22275606.3324   -1338538.72443  -1038369.71942  22275607.2164   22275603.1134
        53.0004         45.0004
  23458937.1834   29719152.30543  23150961.71242  23458938.7704   23458935.4484
        48.0004         39.0004
  21131208.8014   -1059101.59944   -820325.06742  21131210.3924   21131205.8114
        57.0004         50.0004
  22163026.4454   28857368.62343  22488208.93542  22163027.6184   22163021.2054
        54.0004         47.0004
  22919939.4344   30152089.65243  23482238.39442  22919940.6594   22919934.7194
        49.0004         43.0004
 05 10 14 19  0 30.0000000  0  5G28G 3G27G19G23
  22262897.3544   -1405325.11143  -1090411.03642  22262898.3044   22262894.5394
        54.0004         45.0004
  23471971.0104   29787644.83343  23204332.46842  23471973.6144   23471967.8314
        47.0004         39.0004
  21127571.9714   -1078212.84044   -835216.94742  21127573.7244   21127569.3204
        57.0004         50.0004
  22163094.2964   28857727.25243  22488488.39942  22163095.8594   22163089.5744
        53.0004         47.0004
  22939164.6284   30253119.81143  23560963.11642  22939167.0494   22939160.6224
        49.0004         43.0004
 05 10 14 19  1  0.0000000  0  5G28G 3G27G19G23
  22250245.9744   -1471806.72643  -1142214.87142  22250248.0434   22250242.9634
        54.0004         45.0004
  23485089.9054   29856588.14443  23258054.50442  23485092.9284   23485089.2384
        48.0004         39.0004
  21123959.7644   -1097195.29744   -850008.47542  21123961.4554   21123957.0664
        57.0004         50.0004
  22163270.2764   28858651.09243  22489208.28642  22163271.0054   22163264.5464
        53.0004         47.0004
  22958438.2224   30354402.40643  23639884.56042  22958441.2254   22958434.7104
        49.0004         43.0004
 05 10 14 19  1 30.0000000  0  5G28G 3G27G19G23
  22237653.2304   -1537982.64043  -1193780.49542  22237654.9884   22237650.5114
        54.0004         46.0004
  23498295.0804   29925980.03243  23312126.09742  23498297.3034   23498293.9334
        48.0004         40.0004
  21120372.2684   -1116048.05744   -864698.94042  21120374.1224   21120369.8164
        57.0004         50.0004
  22163553.4424   28860140.26443  22490368.68842  22163555.3554   22163548.9004
        54.0004         47.0004
  22977759.6604   30455935.46743  23719001.16642  22977760.5514   22977755.6494
        49.0004         43.0004
 05 10 14 19  2  0.0000000  0  5G28G 3G27G19G23
  22225117.9724   -1603856.27743  -1245110.57342  22225120.0294   22225115.1144
        54.0004         46.0004
  23511584.1684   29995814.67543  23366542.67642  23511585.6124   23511584.6384
        47.0004         39.0004
  21116808.6884   -1134774.25644   -879290.79042  21116810.6284   21116805.9164
        57.0004         50.0004
  22163944.0734   28862191.73243  22491967.24742  22163944.9274   22163938.8984
        54.0004         47.0004
  22997127.4124   30557712.89543  23798308.18942  22997129.3724   22997122.7214
        49.0004         42.0004
 05 10 14 19  2 30.0000000  0  5G28G 3G27G19G23
  22212640.9194   -1669424.05743  -1296202.32542  22212642.4644   22212637.3484
        54.0004         46.0004
  23524957.5814   30066093.09243  23421305.05042  23524958.3574   23524957.0044
        48.0004         39.0004
  21113269.8924   -1153369.91844   -893780.91242  21113271.7864   21113267.6514
        57.0004         50.0004
  22164441.9414   28864808.76543  22494006.50442  22164442.8694   22164436.9134
        54.0004         47.0004
  23016541.6554   30659736.10343  23877806.73042  23016543.7764   23016537.2984
        48.0004         43.0004
 05 10 14 19  3  0.0000000  0  6G 8G28G 3G27G19G23
  21676419.1154    -796434.93853   -609780.48952  21676419.3634   21676415.4824
        54.0004         47.0004
  22200220.9264   -1734691.20843  -1347059.82642  22200222.6524   22200216.8664
        54.0004         46.0004
  23538414.3724   30136807.28043  23476407.01042  23538416.1144   23538412.7794
        47.0004         39.0004
  21109755.1574   -1171840.23644   -908173.36042  21109756.8644   21109752.6124
        57.0004         50.0004
  22165046.5914   28867985.98043  22496482.25642  22165047.1534   22165041.1364
        54.0004         47.0004
  23036001.2444   30761997.27843  23957490.69642  23036003.5554   23035997.1064
        49.0004         43.0004
 05 10 14 19  3 30.0000000  0  6G 8G28G 3G27G19G23
  21666025.7054    -851052.80543   -652339.85242  21666026.6494   21666021.9104
        55.0004         47.0004
  22187860.2714   -1799646.74343  -1397674.49242  22187861.7664   22187857.0094
        54.0004         46.0004
  23551955.5424   30207965.57343  23531855.00442  23551955.9374   23551952.8374
        48.0004         39.0004
  21106266.3424   -1190173.74343   -922459.20842  21106268.1974   21106263.8624
        56.0004         50.0004
  22165760.2234   28871734.50043  22499403.18042  22165761.1294   22165755.3734
        54.0004         47.0004
  23055508.3224   30864505.04043  24037366.80742  23055510.7064   23055504.0224
        49.0004         43.0004
 05 10 14 19  4  0.0000000  0  6G 8G28G 3G27G19G23
  21655652.6744    -905563.09543   -694815.39142  21655652.9694   21655648.9244
        55.0004         47.0004
  22175556.9394   -1864302.60643  -1448055.65942  22175558.1154   22175553.7554
        54.0004         46.0004
  23565578.4504   30279553.32243  23587637.65542  23565580.9534   23565578.2474
        49.0004         40.0004
  21102801.5094   -1208381.98444   -936647.44042  21102803.3564   21102798.9814
        57.0004         50.0004
  22166579.8704   28876041.60543  22502759.36542  22166580.5394   22166575.0684
        54.0004         47.0004
  23075058.8954   30967244.69543  24117423.60542  23075059.7024   23075054.3414
        49.0004         43.0004
 05 10 14 19  4 30.0000000  0  7G 8G28G 3G27G19G10G23
  21645303.0054    -959950.92643   -737195.49842  21645303.0244   21645299.0184
        54.0004         47.0004
  22163313.1964   -1928643.99843  -1498191.77242  22163314.6884   22163309.9224
        55.0004         46.0004
  23579284.9544   30351582.78043  23643764.51742  23579287.6674   23579284.2734
        48.0004         40.0004
  21099363.2964   -1226449.76444   -950726.21742  21099365.2454   21099360.7824
        57.0004         50.0004
  22167508.3064   28880922.14443  22506562.37742  22167509.6614   22167503.1444
        53.0004         47.0004
  23845866.6404    -579401.04053   -431243.44952  23845867.2994   23845864.3844
        42.0004         36.0004
  23094656.2034   31070228.44243  24197670.61142  23094658.0514   23094651.5224
        49.0004         43.0004
 05 10 14 19  5  0.0000000  0  8G 8G28G 3G27G19G13G10G23
  21634975.3914   -1014222.87843   -779485.31742  21634975.6654   21634971.7654
        55.0004         47.0004
  22151127.8024   -1992677.78843  -1548088.20942  22151129.2244   22151124.4154
        55.0004         46.0004
  23593074.0234   30424044.47843  23700228.17442  23593076.4594   23593073.5914
        48.0004         40.0004
  21095950.7064   -1244383.81544   -964700.79842  21095952.5064   21095947.7594
        57.0004         50.0004
  22168544.9364   28886368.81243  22510806.51642  22168545.8464   22168539.7604
        53.0004         46.0004
  20807315.8264    -393601.63154   -309348.15652  20807317.5794   20807312.3014
        58.0004         50.0004
  23843643.5154    -591083.74543   -440346.85742  23843645.3864   23843641.9984
        41.0004         36.0004
  23114297.7484   31173447.15343  24278100.70642  23114299.4574   23114294.3424
        49.0004         42.0004
 05 10 14 19  5 30.0000000  0  8G 8G28G 3G27G19G13G10G23
  21624669.3654   -1068380.51643   -821686.05742  21624670.3474   21624665.6884
        55.0004         47.0004
  22139000.6344   -2056405.68043  -1597746.27242  22139001.6314   22138997.6204
        55.0004         46.0004
  23606944.4134   30496933.62143  23757024.89842  23606945.3214   23606942.3674
        49.0004         40.0004
  21092563.3044   -1262185.34844   -978572.11842  21092564.9404   21092560.3654
        57.0004         50.0004
  22169688.5934   28892380.06243  22515490.60442  22169689.8154   22169684.0804
        53.0004         47.0004
  20818203.7374    -336384.43344   -264763.35242  20818205.5804   20818200.4624
        58.0004         50.0004
  23841522.1954    -602231.31543   -449033.28542  23841523.5624   23841520.2434
        42.0004         36.0004
  23133983.8624   31276896.71243  24358710.67442  23133986.8424   23133979.9304
        49.0004         42.0004
 05 10 14 19  6  0.0000000  0  8G 8G28G 3G27G19G13G10G23
  21614385.8154   -1122422.44243   -863796.63842  21614386.2194   21614382.1884
        55.0004         47.0004
  22126931.9394   -2119826.73543  -1647165.24342  22126933.6274   22126928.8364
        55.0004         46.0004
  23620896.2094   30570248.75443  23814153.56242  23620900.8674   23620894.3434
        49.0004         40.0004
  21089201.4344   -1279852.70544   -992338.88642  21089202.7744   21089198.0934
        57.0004         50.0004
  22170939.9814   28898956.45643  22520615.05642  22170940.8104   22170935.4574
        53.0004         47.0004
  20829183.5914    -278685.26044   -219802.98142  20829185.3924   20829179.8784
        58.0004         50.0004
  23839502.3264    -612843.18643   -457302.29242  23839503.1054   23839501.3764
        42.0004         37.0004
  23153713.7084   31380575.32843  24439499.13742  23153715.2074   23153708.4944
        48.0004         42.0004
 05 10 14 19  6 30.0000000  0  8G 8G28G 3G27G19G13G10G23
  21604124.2654   -1176347.08443   -905815.82242  21604124.6494   21604120.8404
        55.0004         47.0004
  22114922.2164   -2182939.40343  -1696343.91042  22114923.8534   22114918.4174
        55.0004         46.0004
  23634928.4434   30643988.85943  23871613.35642  23634929.3434   23634927.0224
        50.0004         40.0004
  21085865.1234   -1297383.93944  -1005999.58442  21085867.0244   21085862.3604
        57.0004         50.0004
  22172299.0354   28906099.08843  22526180.73342  22172300.8244   22172294.8254
        53.0004         46.0004
  20840255.2624    -220503.83444   -174466.83142  20840257.3724   20840251.7884
        58.0004         50.0004
  23837584.9874    -622918.48743   -465153.18742  23837586.7644   23837585.2394
        42.0004         36.0004
  23173486.4174   31484482.24343  24520465.47942  23173487.4094   23173482.4354
        48.0004         42.0004
 05 10 14 19  7  0.0000000  0  8G 8G28G 3G27G19G13G10G23
  21593885.1664   -1230152.84643   -947742.37842  21593885.7084   21593881.3414
        55.0004         47.0004
  22102971.1454   -2245742.14643  -1745281.08642  22102972.7114   22102967.9364
        55.0004         46.0004
  23649041.2284   30718152.71143  23929403.34042  23649044.0204   23649040.0764
        48.0004         40.0004
  21082555.3104   -1314777.19344  -1019552.76642  21082557.3844   21082552.6954
        57.0004         50.0004
  22173766.5644   28913809.33343  22532188.70542  22173767.3504   22173761.8424
        53.0004         46.0004
  20851418.5974    -161840.22444   -128754.95142  20851420.7434   20851415.0084
        58.0004         50.0004
  23835771.0334    -632456.52343   -472585.41542  23835770.6844   23835768.9204
        42.0004         36.0004
  23193302.8734   31588616.35043  24601608.86642  23193304.0664   23193297.8814
        48.0004         42.0004
 05 10 14 19  7 30.0000000  0  8G 8G28G 3G27G19G13G10G23
  21583668.9394   -1283840.12943   -989576.61042  21583669.4334   21583664.8794
        55.0004         47.0004
  22091079.1044   -2308235.47543  -1793977.15342  22091080.6104   22091076.1014
        55.0004         46.0004
  23663234.0544   30792736.87443  23987520.83942  23663234.5574   23663233.5374
        49.0004         40.0004
  21079271.8564   -1332032.73144  -1032998.63942  21079273.5634   21079268.9354
        57.0004         50.0004
  22175341.7374   28922086.40543  22538638.35942  22175342.0594   22175336.9234
        53.0004         46.0004
  20862672.9604    -102696.78944    -82669.18242  20862675.1744   20862669.8914
        58.0004         50.0004
  23834057.7044    -641458.48443   -479599.95642  23834057.9794   23834056.8694
        42.0004         36.0004
  23213161.9154   31692974.52343  24682926.84942  23213162.2244   23213157.7324
        49.0004         42.0004
 05 10 14 19  8  0.0000000  0  8G 8G28G 3G27G19G13G10G23
  21573474.6844   -1337411.63843  -1031320.63842  21573475.0834   21573470.3374
        55.0004         47.0004
  22079245.0674   -2370422.82443  -1842434.80242  22079247.0294   22079241.4594
        55.0004         46.0004
  23677506.3404   30867735.49843  24045961.28442  23677507.1464   23677504.9704
        49.0004         40.0004
  21076013.9874   -1349152.95144  -1046339.07042  21076015.6904   21076011.0004
        57.0004         50.0004
  22177023.8834   28930926.73243  22545526.91342  22177024.9794   22177019.2834
        53.0004         46.0004
  20874018.2524     -43078.07844    -36213.06842  20874020.3284   20874014.6414
        58.0004         50.0004
  23832445.6774    -649928.18243   -486199.72542  23832447.4594   23832442.8434
        41.0004         36.0004
  23233062.1424   31797551.38643  24764415.23342  23233062.7064   23233057.4424
        49.0004         42.0004
 05 10 14 19  8 30.0000000  0  8G 8G28G 3G27G19G13G10G23
  21563303.4834   -1390860.48643  -1072969.07842  21563304.0674   21563300.1544
        55.0004         47.0004
  22067470.7734   -2432297.62043  -1890648.89542  22067472.7014   22067467.5004
        55.0004         46.0004
  23691857.3414   30943152.55243  24104727.77142  23691858.9344   23691854.7864
        48.0004         40.0004
  21072783.1274   -1366130.71844  -1059568.49642  21072785.1004   21072780.3344
        57.0004         50.0004
  22178814.6824   28940336.37043  22552859.08942  22178815.2264   22178809.8184
        53.0004         47.0004
  20885454.8564      17021.10544     10617.44442  20885457.1364   20885451.4154
        58.0004         50.0004
  23830936.4754    -657859.79543   -492380.21642  23830937.9624   23830932.6394
        42.0004         36.0004
  23253004.5294   31902350.73943  24846076.97842  23253005.9934   23253000.3204
        49.0004         42.0004
 05 10 14 19  9  0.0000000  0  8G 8G28G 3G27G19G13G10G23
  21553155.5814   -1444188.29143  -1114523.20542  21553155.9124   21553152.1854
        55.0004         47.0004
  22055755.4074   -2493861.11743  -1938620.42542  22055757.1444   22055752.7234
        54.0004         46.0004
  23706288.0604   31018984.02243  24163817.18042  23706290.7024   23706286.2484
        48.0004         40.0004
  21069579.1274   -1382967.36544  -1072687.96342  21069581.2464   21069576.4864
        57.0004         50.0004
  22180713.5514   28950313.66443  22560633.59842  22180714.0354   22180708.5004
        53.0004         47.0004
  20896982.2114      77597.57344     57819.85942  20896984.2314   20896978.3854
        58.0004         50.0004
  23829528.5754    -665255.58143   -498143.18842  23829529.8384   23829526.9994
        42.0004         37.0004
  23272988.7614   32007369.05743  24927909.36142  23272991.4754   23272985.5014
        48.0004         42.0004
 05 10 14 19  9 30.0000000  0  8G 8G28G 3G27G19G13G10G23
  21543030.1294   -1497397.59243  -1155984.98342  21543030.7274   21543026.5854
        55.0004         47.0004
  22044098.9854   -2555115.95143  -1986351.44442  22044100.2344   22044095.2494
        54.0004         46.0004
  23720795.9114   31095224.36943  24223225.18842  23720798.2284   23720795.2014
        48.0004         40.0004
  21066401.7254   -1399664.65744  -1085698.84242  21066403.4614   21066399.1104
        57.0004         50.0004
  22182719.3554   28960855.45843  22568847.97642  22182720.9274   22182714.2274
        53.0004         47.0004
  20908599.3674     138647.10044    105390.89442  20908602.0534   20908596.1134
        58.0004         50.0004
  23828222.7514    -672118.93143   -503491.23942  23828223.8654   23828221.4104
        42.0004         36.0004
  23293013.7374   32112600.76743  25009908.00642  23293016.2794   23293009.9344
        49.0004         42.0004
 05 10 14 19 10  0.0000000  0  8G 8G28G 3G27G19G13G10G23
  21532928.1504   -1550483.45343  -1197350.57442  21532928.4054   21532924.2914
        55.0004         47.0004
  22032502.1854   -2616058.14143  -2033838.83542  22032503.8724   22032499.0104
        54.0004         47.0004
  23735382.2364   31171875.37243  24282953.17542  23735383.9124   23735380.2744
        49.0004         40.0004
  21063251.4334   -1416218.40144  -1098597.86642  21063253.1544   21063248.7904
        57.0004         50.0004
  22184833.4534   28971966.09543  22577505.60742  22184834.3404   22184828.5714
        53.0004         47.0004
  20920307.1854     200172.28044    153332.56942  20920309.3474   20920303.8534
        58.0004         50.0004
  23827017.6054    -678446.17643   -508421.55342  23827019.1174   23827015.5594
        42.0004         36.0004
  23313080.0104   32218047.65443  25092074.32442  23313081.4404   23313076.5584
        49.0004         42.0004
 05 10 14 19 10 30.0000000  0  8G 8G28G 3G27G19G13G10G23
  21522849.6354   -1603445.98843  -1238620.07342  21522849.6064   21522846.1694
        55.0004         47.0004
  22020964.6824   -2676688.29043  -2081083.09542  22020965.8764   22020961.1584
        54.0004         46.0004
  23750045.8794   31248933.21043  24342998.15942  23750045.0474   23750042.8814
        48.0004         40.0004
  21060128.8514   -1432628.48144  -1111384.94442  21060130.4904   21060126.2764
        57.0004         50.0004
  22187055.9344   28983644.06143  22586605.31642  22187057.1624   22187050.9684
        53.0004         47.0004
  20932105.0984     262171.02644    201643.25842  20932107.4584   20932101.7774
        58.0004         50.0004
  23825915.7414    -684239.06243   -512935.49442  23825917.4994   23825916.5604
        41.0004         36.0004
  23333186.0974   32323706.66243  25174405.94742  23333189.6324   23333183.8904
        49.0004         43.0004
 05 10 14 19 11  0.0000000  0  8G 8G28G 3G27G19G13G10G23
  21512794.2334   -1656287.96343  -1279795.63342  21512794.4204   21512790.7024
        55.0004         47.0004
  22009485.8194   -2737009.72743  -2128086.78942  22009487.4024   22009482.7174
        54.0004         46.0004
  23764785.6874   31326392.17043  24403355.71842  23764786.7574   23764786.2454
        48.0004         40.0004
  21057033.0324   -1448897.52644  -1124062.12642  21057034.6784   21057030.3004
        57.0004         50.0004
  22189385.8384   28995885.87043  22596144.39042  22189386.6524   22189381.0044
        53.0004         47.0004
  20943992.3974     324638.86344    250319.47042  20943994.6614   20943988.9664
        57.0004         50.0004
  23824914.6844    -689501.35943   -517035.99642  23824915.5224   23824912.7484
        42.0004         36.0004
  23353331.6624   32429572.12343  25256898.43342  23353332.6294   23353327.3304
        49.0004         42.0004
 05 10 14 19 11 30.0000000  0  8G 8G28G 3G27G19G13G10G23
  21502762.8184   -1709002.74943  -1320872.08842  21502762.5054   21502760.0394
        55.0004         47.0004
  21998066.8294   -2797015.84843  -2174844.79042  21998068.2914   21998064.4264
        54.0004         46.0004
  23779602.7534   31404256.35943  24464029.04142  23779603.7464   23779600.3884
        48.0004         40.0004
  21053965.4034   -1465017.64044  -1136623.25542  21053967.0594   21053962.7274
        57.0004         50.0004
  22191823.6464   29008697.45243  22606127.44042  22191824.5384   22191819.0424
        54.0004         47.0004
  20955969.7894     387580.39344    299364.79642  20955972.0744   20955966.7364
        57.0004         50.0004
  23824015.5714    -694227.28743   -520718.56042  23824017.0124   23824014.7994
        40.0004         37.0004
  23373517.5114   32535648.33043  25339555.12942  23373519.5794   23373514.1564
        49.0004         42.0004
 05 10 14 19 12  0.0000000  0  8G 8G28G 3G27G19G13G10G23
  21492755.1054   -1761593.93243  -1361852.22142  21492755.8124   21492751.7634
        55.0004         47.0004
  21986707.4784   -2856710.38343  -2221360.00042  21986708.5064   21986704.0154
        54.0004         46.0004
  23794495.6944   31482519.09143  24525012.91642  23794495.9304   23794494.2034
        47.0004         40.0004
  21050925.4414   -1480992.80444  -1149071.43942  21050927.2584   21050922.6984
        57.0004         50.0004
  22194369.0414   29022074.61143  22616551.19342  22194370.1844   22194363.9994
        53.0004         47.0004
  20968036.1744     450990.15844    348774.97742  20968038.6624   20968033.1484
        57.0004         49.0004
  23823216.8154    -698421.50943   -523986.78242  23823219.0154   23823215.9364
        42.0004         36.0004
  23393742.0374   32641928.86843  25422371.05042  23393744.0264   23393739.0584
        49.0004         42.0004
 05 10 14 19 12 30.0000000  0  8G 8G28G 3G27G19G13G10G23
  21482771.4764   -1814060.24143  -1402735.05042  21482771.7434   21482767.8384
        55.0004         47.0004
  21975407.1464   -2916092.80443  -2267631.99542  21975409.0224   21975403.9294
        54.0004         46.0004
  23809463.5984   31561178.54743  24586305.90642  23809467.3434   23809463.9924
        47.0004         40.0004
  21047913.4844   -1496822.00144  -1161405.88242  21047915.2844   21047910.8024
        57.0004         50.0004
  22197022.4234   29036017.60243  22627415.85342  22197022.6484   22197017.3784
        53.0004         47.0004
  20980191.5774     514867.39144    398549.42042  20980193.6554   20980188.6124
        57.0004         49.0004
  23822520.5744    -702084.22843   -526840.83042  23822522.2664   23822519.4674
        41.0004         36.0004
  23414005.0844   32748411.84943  25505344.72042  23414006.9174   23414000.8324
        49.0004         42.0004
 05 10 14 19 13  0.0000000  0  8G 8G28G 3G27G19G13G10G23
  21472811.2274   -1866401.65843  -1443520.55342  21472811.8614   21472806.6894
        55.0004         47.0004
  21964166.6204   -2975163.53043  -2313661.11342  21964168.2864   21964163.7014
        54.0004         47.0004
  23824507.2974   31640231.47843  24647905.50942  23824510.2844   23824508.0794
        47.0004         39.0004
  21044929.0274   -1512504.22144  -1173625.80042  21044930.9504   21044926.3034
        57.0004         50.0004
  22199783.0344   29050525.52243  22638720.72142  22199784.0044   22199777.9024
        53.0004         47.0004
  20992435.7054     579209.94144    448686.44842  20992438.0184   20992432.5084
        57.0004         49.0004
  23821925.4104    -705216.56143   -529281.60642  23821927.0754   23821923.2884
        42.0004         37.0004
  23434305.6904   32855094.57943  25588474.03242  23434307.9094   23434301.9774
        48.0004         42.0004
 05 10 14 19 13 30.0000000  0  8G 8G28G 3G27G19G13G10G23
  21462875.1684   -1918615.99143  -1484207.03242  21462875.7394   21462871.0824
        55.0004         47.0004
  21952985.5104   -3033920.97543  -2359446.12042  21952986.9724   21952982.8174
        54.0004         46.0004
  23839624.8654   31719677.02943  24709811.05842  23839627.1434   23839625.2564
        46.0004         39.0004
  21041973.2064   -1528037.32144  -1185729.51442  21041974.9344   21041970.5284
        57.0004         50.0004
  22202651.4754   29065599.86843  22650466.95442  22202652.8294   22202646.3264
        53.0004         47.0004
  21004768.3874     644017.96544    499186.18642  21004770.8264   21004765.0044
        57.0004         49.0004
  23821429.5354    -707817.95843   -531308.69542  23821430.3854   23821426.9674
        43.0004         37.0004
  23454645.0264   32961976.33543  25671758.43342  23454648.0834   23454641.5474
        49.0004         42.0004
 05 10 14 19 14  0.0000000  0  8G 8G28G 3G27G19G13G10G23
  21452963.4354   -1970701.59343  -1524793.20442  21452963.8094   21452959.1814
        55.0004         47.0004
  21941864.1604   -3092363.79343  -2404985.96242  21941866.1994   21941861.5964
        54.0004         46.0004
  23854817.6024   31799513.68443  24772021.34842  23854818.0284   23854815.3444
        45.0004         39.0004
  21039045.8854   -1543419.61644  -1197715.72042  21039047.8844   21039043.4554
        57.0004         50.0004
  22205628.0334   29081241.05943  22662654.88542  22205628.3814   22205623.0654
        53.0004         47.0004
  21017189.3064     709291.14644    550048.37742  21017191.2044   21017186.1924
        57.0004         49.0004
  23821035.0304    -709887.85543   -532921.60942  23821036.4964   23821034.5634
        42.0004         37.0004
  23475021.9214   33069055.84143  25755196.91142  23475023.6724   23475018.6974
        48.0004         42.0004
 05 10 14 19 14 30.0000000  0  8G 8G28G 3G27G19G13G10G23
  21443075.8274   -2022660.08443  -1565280.32642  21443076.2834   21443072.2694
        55.0004         47.0004
  21930802.0704   -3150494.04843  -2450282.24542  21930803.9254   21930798.9264
        54.0004         47.0004
  23870083.4544   31879736.77943  24834532.76542  23870085.7434   23870083.7194
        45.0004         38.0004
  21036147.3094   -1558652.03344  -1209585.13342  21036149.1014   21036145.0624
        57.0004         50.0004
  22208711.7334   29097446.77643  22675282.70242  22208712.5474   22208707.0664
        53.0004         47.0004
  21029698.1654     775025.88444    601270.23042  21029700.5554   21029695.3764
        57.0004         49.0004
  23820742.2304    -711429.01743   -534122.50242  23820743.1114   23820742.5594
        43.0004         37.0004
  23495435.2644   33176328.99943  25838786.29142  23495437.7864   23495432.1634
        49.0004         42.0004
 05 10 14 19 15  0.0000000  0  8G 8G28G 3G27G19G13G10G23
  21433213.3194   -2074488.32243  -1605665.95242  21433213.9804   21433209.3504
        55.0004         47.0004
  21919800.2044   -3208308.91743  -2495332.76542  21919801.8814   21919796.9974
        54.0004         46.0004
  23885423.0494   31960346.33143  24897345.33242  23885423.3844   23885422.1934
        45.0004         39.0004
  21033277.9414   -1573731.47144  -1221335.34542  21033279.6374   21033275.2994
        57.0004         50.0004
  22211903.3824   29114219.15343  22688352.07342  22211904.2864   22211898.7024
        53.0004         47.0004
  21042295.3734     841223.19844    652852.53342  21042297.3044   21042292.3474
        57.0004         49.0004
  23820550.2914    -712439.71943   -534910.06142  23820551.3444   23820548.0654
        44.0004         38.0004
  23515885.6044   33283795.78043  25922526.55242  23515887.0224   23515882.2274
        49.0004         42.0004
 05 10 14 19 15 30.0000000  0  8G 8G28G 3G27G19G13G10G23
  21423374.5494   -2126190.85143  -1645953.62442  21423374.8774   21423370.9504
        55.0004         47.0004
  21908857.6574   -3265813.71043  -2540141.67642  21908859.0674   21908854.5954
        55.0004         47.0004
  23900834.9304   32041334.49143  24960452.90942  23900837.2584   23900833.7364
        45.0004         39.0004
  21030436.6144   -1588662.55644  -1232969.95642  21030438.2724   21030433.9284
        57.0004         50.0004
  22215201.5864   29131552.30443  22701858.40842  22215202.2994   22215197.0024
        53.0004         47.0004
  21054978.9154     907876.26144    704789.95742  21054981.1564   21054976.0284
        57.0004         49.0004
  23820458.1824    -712925.84643   -535288.86842  23820458.8134   23820455.8254
        43.0004         38.0004
  23536371.1254   33391448.71643  26006411.86742  23536373.5814   23536367.3164
        49.0004         42.0004
 05 10 14 19 16  0.0000000  0  8G 8G28G 3G27G19G13G10G23
  21413561.6784   -2177757.82043  -1686135.66242  21413562.0774   21413558.0064
        55.0004         47.0004
  21897975.4664   -3322999.13543  -2584701.72542  21897977.5254   21897972.2034
        54.0004         47.0004
  23916320.0414   32122707.85243  25023860.64742  23916320.6064   23916319.3474
        46.0004         39.0004
  21027625.4244   -1603435.26044  -1244481.15142  21027627.4744   21027622.8484
        57.0004         50.0004
  22218608.4604   29149455.01343  22715808.55142  22218609.8224   22218604.6534
        53.0004         47.0004
  21067750.8004     974992.56444    757088.35342  21067753.0194   21067747.6884
        57.0004         49.0004
  23820466.7404    -712879.29643   -535252.60542  23820468.0044   23820464.7574
        43.0004         37.0004
  23556893.7634   33499294.42343  26090447.39542  23556896.2184   23556890.0704
        49.0004         42.0004
 05 10 14 19 16 30.0000000  0  8G 8G28G 3G27G19G13G10G23
  21403772.7674   -2229198.56043  -1726219.34442  21403773.1424   21403768.7244
        55.0004         47.0004
  21887152.5104   -3379874.54543  -2629020.19842  21887154.5504   21887149.1004
        55.0004         47.0004
  23931875.7904   32204454.14843  25087559.00342  23931878.7334   23931875.2784
        45.0004         39.0004
  21024842.7684   -1618057.86244  -1255875.38642  21024844.8614   21024840.1724
        57.0004         50.0004
  22222121.5614   29167917.41843  22730194.81442  22222122.8514   22222117.5494
        53.0004         47.0004
  21080608.5624    1042561.15844    809739.18142  21080610.6434   21080605.6904
        57.0004         49.0004
  23820574.6584    -712310.24043   -534809.19942  23820574.7604   23820572.9274
        43.0004         37.0004
  23577450.5264   33607321.22943  26174624.03042  23577453.6384   23577446.7724
        49.0004         42.0004
 05 10 14 19 17  0.0000000  0  9G 8G28G 3G27G19G31G13G10G23
  21394009.2204   -2280506.15543  -1766199.27642  21394009.6404   21394005.7544
        55.0004         47.0004
  21876389.5744   -3436434.19643  -2673092.62242  21876391.4224   21876386.2864
        55.0004         47.0004
  23947503.0954   32286576.84743  25151550.63842  23947504.7114   23947500.9634
        44.0004         38.0004
  21022090.1654   -1632523.51744  -1267147.32442  21022091.9084   21022087.7004
        57.0004         50.0004
  22225742.7814   29186944.63643  22745021.19942  22225744.0464   22225738.2434
        54.0004         47.0004
  24122742.3434   -1787787.06353  -1371741.62652  24122744.0194   24122741.9594
        44.0004         38.0004
  21093553.3204    1110586.41244    862745.85042  21093555.3924   21093550.0504
        57.0004         49.0004
  23820783.6224    -711213.60043   -533954.67242  23820785.0504   23820782.0634
        44.0004         38.0004
  23598043.0544   33715532.88243  26258944.71842  23598045.3174   23598037.3064
        49.0004         42.0004
 05 10 14 19 17 30.0000000  0  9G 8G28G 3G27G19G31G13G10G23
  21384270.8614   -2331681.88943  -1806076.45042  21384271.3234   21384267.0094
        55.0004         47.0004
  21865686.2714   -3492680.12043  -2716920.58742  21865687.8844   21865682.6014
        55.0004         47.0004
  23963201.4744   32369071.47543  25215832.09042  23963204.7104   23963200.0304
        45.0004         38.0004
  21019367.1234   -1646833.73144  -1278298.13742  21019368.7994   21019364.3574
        57.0004         50.0004
  22229470.5184   29206534.17443  22760285.76342  22229471.4824   22229465.2904
        54.0004         47.0004
  24100804.4454   -1903069.58943  -1461572.09742  24100806.0674   24100804.1784
        45.0004         38.0004
  21106584.4744    1179064.83344    916105.63442  21106586.5644   21106580.8704
        57.0004         49.0004
  23821092.7974    -709592.32543   -532691.35442  23821092.7724   23821091.1874
        43.0004         37.0004
  23618669.2264   33823925.08443  26343406.07142  23618670.5834   23618664.9344
        48.0004         42.0004
 05 10 14 19 18  0.0000000  0  9G 8G28G 3G27G19G31G13G10G23
  21374558.8084   -2382719.94843  -1845846.35142  21374558.9364   21374555.1864
        55.0004         47.0004
  21855043.9254   -3548606.54143  -2760499.59142  21855045.8424   21855040.3354
        55.0004         47.0004
  23978971.0694   32451940.80643  25280405.54842  23978973.2924   23978969.9654
        45.0004         38.0004
  21016674.8014   -1660982.35144  -1289323.03742  21016676.5504   21016671.8574
        57.0004         50.0004
  22233306.0794   29226691.09743  22775992.44142  22233306.7164   22233301.4494
        53.0004         47.0004
  24078869.4484   -2018336.01943  -1551390.00842  24078872.1144   24078869.0534
        45.0004         38.0004
  21119702.6224    1248000.08144    969821.38642  21119704.5284   21119699.1344
        57.0004         49.0004
  23821501.8104    -707441.94143   -531015.74042  23821502.7294   23821499.7844
        44.0004         38.0004
  23639330.2124   33932500.61443  26428010.30242  23639332.3714   23639327.1984
        48.0004         41.0004
 05 10 14 19 18 30.0000000  0  9G 8G28G 3G27G19G31G13G10G23
  21364871.2794   -2433628.62343  -1885515.43842  21364871.4694   21364867.6594
        55.0004         48.0004
  21844460.3274   -3604222.66743  -2803836.81242  21844461.9384   21844457.1904
        55.0004         47.0004
  23994809.4604   32535172.99043  25345261.73942  23994809.0174   23994808.7444
        44.0004         38.0004
  21014011.4264   -1674977.46944  -1300228.32842  21014013.4524   21014008.7534
        57.0004         50.0004
  22237248.1804   29247405.68143  22792133.66042  22237249.2074   22237243.3394
        54.0004         47.0004
  24056936.9334   -2133592.87543  -1641200.47142  24056938.2654   24056937.1174
        45.0004         38.0004
  21132905.3704    1317381.69644   1023884.95342  21132907.5404   21132902.1414
        57.0004         49.0004
  23822009.2344    -704772.47043   -528935.65342  23822011.6654   23822009.0004
        45.0004         38.0004
  23660024.4004   34041248.31443  26512748.67742  23660025.2764   23660020.7554
        48.0004         41.0004
 05 10 14 19 19  0.0000000  0  9G 8G28G 3G27G19G31G13G10G23
  21355209.7714   -2484399.43043  -1925077.09442  21355210.0624   21355205.8894
        55.0004         47.0004
  21833937.6754   -3659520.63643  -2846926.10642  21833939.6384   21833933.6284
        55.0004         47.0004
  24010718.7394   32618773.10043  25410404.63042  24010719.7584   24010717.7954
        45.0004         38.0004
  21011379.3074   -1688810.04244  -1311006.95142  21011381.0194   21011376.6534
        57.0004         50.0004
  22241297.5094   29268685.04843  22808714.97342  22241298.2674   22241292.6544
        54.0004         47.0004
  24035008.6854   -2248829.94243  -1730995.53842  24035009.7214   24035008.6754
        45.0004         39.0004
  21146194.2714    1387215.34144   1078300.75842  21146196.5214   21146190.7264
        57.0004         49.0004
  23822616.6464    -701577.27943   -526445.90742  23822618.1054   23822616.7854
        43.0004         38.0004
  23680752.0314   34150173.56543  26597625.41542  23680754.2054   23680749.5094
        48.0004         41.0004
 05 10 14 19 19 30.0000000  0  9G 8G28G 3G27G19G31G13G10G23
  21345573.9974   -2535036.48643  -1964534.52542  21345573.8274   21345570.0854
        55.0004         47.0004
  21823474.3794   -3714505.28143  -2889771.26142  21823476.2384   21823470.7934
        55.0004         47.0004
  24026695.8434   32702733.98343  25475828.64642  24026697.3574   24026694.5454
        44.0004         38.0004
  21008777.2594   -1702483.96244  -1321661.95442  21008779.2004   21008774.3824
        57.0004         50.0004
  22245453.2624   29290523.90743  22825732.25342  22245453.9114   22245448.7274
        54.0004         47.0004
  24013082.9464   -2364049.00943  -1820776.56442  24013084.9874   24013081.7664
        45.0004         39.0004
  21159568.0764    1457494.76644   1133063.91942  21159570.3754   21159564.9354
        57.0004         49.0004
  23823323.9094    -697861.64343   -523550.62742  23823325.2674   23823323.2874
        43.0004         37.0004
  23701512.4804   34259269.53043  26682635.15742  23701514.5624   23701509.3734
        48.0004         41.0004
 05 10 14 19 20  0.0000000  0  8G 8G28G27G19G31G13G10G23
  21335964.1504   -2585535.54443  -2003884.42942  21335964.7074   21335960.4954
        55.0004         47.0004
  21813071.7184   -3769172.50043  -2932369.06942  21813073.5524   21813067.7774
        56.0004         47.0004
  21006206.0784   -1715994.87744  -1332189.94242  21006207.5994   21006203.1514
        57.0004         50.0004
  22249716.1914   29312925.44643  22843187.99242  22249717.3824   22249711.3944
        54.0004         47.0004
  23991162.4164   -2479243.89343  -1910538.76342  23991164.9844   23991161.5814
        46.0004         39.0004
  21173026.8414    1528222.04944   1188176.05742  21173029.3314   21173023.5394
        57.0004         49.0004
  23824131.1514    -693623.25843   -520248.00842  23824130.7664   23824129.6994
        43.0004         38.0004
  23722305.6384   34368537.32443  26767778.80842  23722308.0264   23722301.3984
        48.0004         41.0004
 05 10 14 19 20 30.0000000  0  8G 8G28G27G19G31G13G10G23
  21326380.4164   -2635899.04643  -2043128.69842  21326380.2154   21326376.4654
        55.0004         47.0004
  21802728.5444   -3823526.16543  -2974722.54442  21802730.4124   21802724.1284
        56.0004         47.0004
  21003665.6244   -1729344.99744  -1342592.63242  21003667.3634   21003662.6904
        57.0004         50.0004
  22254085.4374   29335885.78143  22861079.16642  22254086.5514   22254080.2734
        54.0004         47.0004
  23969245.7594   -2594415.03643  -2000282.45342  23969247.9954   23969244.1724
        46.0004         39.0004
  21186570.1954    1599392.54744   1243633.56042  21186572.0914   21186567.0314
        57.0004         49.0004
  23825036.0014    -688865.96943   -516541.04642  23825037.3574   23825035.8764
        43.0004         38.0004
  23743130.0914   34477971.72243  26853052.27742  23743133.2974   23743126.6014
        48.0004         40.0004
 05 10 14 19 21  0.0000000  0  8G 8G28G27G19G31G13G10G23
  21316823.8204   -2686118.74543  -2082260.91242  21316824.3554   21316819.9494
        55.0004         47.0004
  21792446.4724   -3877558.52543  -3016825.65842  21792448.2014   21792442.8444
        56.0004         47.0004
  21001157.2374   -1742526.29744  -1352863.77842  21001159.1834   21001154.8154
        57.0004         50.0004
  22258561.7874   29359411.22943  22879410.68542  22258563.0284   22258557.2404
        53.0004         47.0004
  23947335.7344   -2709552.77643  -2090000.13042  23947337.1744   23947334.6154
        46.0004         39.0004
  21200199.1334    1671011.75944   1299440.71142  21200201.3994   21200196.0734
        57.0004         49.0004
  23826041.2954    -683583.78543   -512425.06642  23826042.4504   23826040.0874
        45.0004         38.0004
  23763987.5034   34587577.42143  26938459.20742  23763989.2734   23763984.8384
        47.0004         40.0004
 05 10 14 19 21 30.0000000  0  8G 8G28G27G19G31G13G10G23
  21307292.6724   -2736205.15943  -2121289.28442  21307292.9844   21307288.9094
        55.0004         47.0004
  21782223.4604   -3931280.78443  -3058687.14042  21782224.9534   21782219.6474
        56.0004         47.0004
  20998679.4744   -1755548.71144  -1363011.11442  20998681.5214   20998676.5294
        57.0004         50.0004
  22263143.9914   29383490.38643  22898173.67142  22263144.7964   22263139.7244
        53.0004         47.0004
  23925429.9994   -2824665.48243  -2179698.29742  23925432.2414   23925430.7394
        46.0004         39.0004
  21213910.6744    1743066.67744   1355587.36742  21213912.9124   21213907.2174
        57.0004         49.0004
  23827144.2844    -677788.66943   -507909.41442  23827144.1284   23827142.5224
        46.0004         38.0004
  23784875.1304   34697340.95443  27023989.15642  23784876.3244   23784874.0454
        47.0004         40.0004
 05 10 14 19 22  0.0000000  0  8G 8G28G27G19G31G13G10G23
  21297788.1964   -2786150.66643  -2160207.85042  21297788.3054   21297784.6794
        55.0004         47.0004
  21772060.5924   -3984686.45643  -3100301.92942  21772062.1574   21772056.5654
        55.0004         47.0004
  20996232.9054   -1768404.60044  -1373028.68842  20996234.4964   20996230.1244
        57.0004         50.0004
  22267832.4834   29408129.09443  22917372.67542  22267834.3934   22267827.7754
        53.0004         47.0004
  23903531.7534   -2939743.76343  -2269369.65242  23903534.5074   23903531.8064
        45.0004         39.0004
  21227705.9444    1815562.52244   1412077.60442  21227707.9304   21227702.8744
        57.0004         49.0004
  23828345.7214    -671474.90843   -502989.62042  23828347.5484   23828344.3294
        46.0004         38.0004
  23805793.4774   34807267.03543  27109645.74742  23805796.4424   23805791.5234
        47.0004         40.0004
 05 10 14 19 22 30.0000000  0  8G 8G28G27G19G31G13G10G23
  21288310.9474   -2835954.62743  -2199016.11242  21288311.4874   21288307.0184
        55.0004         47.0004
  21761958.1714   -4037775.40943  -3141669.91742  21761959.6844   21761954.0774
        55.0004         47.0004
  20993818.3444   -1781093.24944  -1382915.94342  20993820.4174   20993815.5434
        57.0004         50.0004
  22272627.5704   29433326.51943  22937007.04442  22272628.7434   22272622.4574
        54.0004         47.0004
  23881639.5404   -3054785.13243  -2359012.24342  23881640.9234   23881641.0414
        46.0004         39.0004
  21241585.2244    1888497.55444   1468910.06742  21241587.1874   21241582.1704
        57.0004         49.0004
  23829644.9524    -664643.83943   -497666.74742  23829647.3424   23829644.8374
        45.0004         38.0004
  23826742.5254   34917353.14543  27195427.03942  23826743.6324   23826736.9314
        46.0004         40.0004
 05 10 14 19 23  0.0000000  0  8G 8G28G27G19G31G13G10G23
  21278860.3744   -2885618.63943  -2237715.33542  21278860.5854   21278856.4684
        56.0004         48.0004
  21751915.1754   -4090550.15943  -3182793.08342  21751917.1424   21751911.7864
        55.0004         47.0004
  20991435.2704   -1793615.98044  -1392673.91742  20991437.1744   20991432.4864
        57.0004         50.0004
  22277528.0714   29459079.40943  22957074.24842  22277529.1974   22277523.5234
        53.0004         47.0004
  23859755.1264   -3169789.36643  -2448625.90542  23859757.0464   23859754.6084
        45.0004         39.0004
  21255547.0114    1961867.53044   1526081.44642  21255549.0814   21255543.5794
        57.0004         49.0004
  23831042.7784    -657298.87043   -491943.41042  23831043.6234   23831042.5224
        46.0004         39.0004
  23847720.3254   35027594.50443  27281329.28642  23847722.0884   23847716.4984
        46.0004         40.0004
 05 10 14 19 23 30.0000000  0  8G 8G28G27G19G31G13G10G23
  21269437.3134   -2935136.87143  -2276300.95642  21269437.5044   21269432.8884
        55.0004         47.0004
  21741933.3034   -4143005.46043  -3223667.32042  21741934.9824   21741930.0724
        55.0004         47.0004
  20989085.0424   -1805966.61044  -1402297.78442  20989086.8244   20989082.0514
        57.0004         50.0004
  22282535.2864   29485392.29843  22977577.81542  22282536.9574   22282530.9884
        53.0004         47.0004
  23837879.0204   -3284748.50343  -2538204.41342  23837881.5884   23837878.3394
        46.0004         39.0004
  21269592.3054    2035675.97444   1583594.49342  21269594.4104   21269589.4234
        57.0004         49.0004
  23832539.0084    -649435.74243   -485816.31742  23832542.1954   23832538.0344
        46.0004         39.0004
  23868728.9734   35137994.01743  27367354.79342  23868731.3474   23868725.4504
        47.0004         40.0004
 05 10 14 19 24  0.0000000  0  8G 8G28G27G19G31G13G10G23
  21260041.3664   -2984512.19943  -2314775.22642  21260041.9564   21260037.4504
        55.0004         47.0004
  21732011.4314   -4195145.29843  -3264295.74642  21732012.7974   21732008.2534
        55.0004         47.0004
  20986767.0904   -1818148.32744  -1411790.03242  20986768.7524   20986764.1854
        57.0004         50.0004
  22287648.2134   29512260.49843  22998514.08342  22287649.1334   22287642.9994
        53.0004         46.0004
  23816011.7084   -3399663.70743  -2627748.69742  23816013.7114   23816010.7124
        47.0004         40.0004
  21283720.1134    2109917.03344   1641444.63742  21283722.3604   21283716.7534
        57.0004         48.0004
  23834133.7564    -641059.64543   -479289.51042  23834134.3894   23834132.0344
        47.0004         39.0004
  23889765.8184   35248545.48143  27453498.69242  23889768.0994   23889764.5594
        47.0004         40.0004
 05 10 14 19 24 30.0000000  0  8G 8G28G27G19G31G13G10G23
  21250672.2794   -3033746.95343  -2353139.96042  21250672.5484   21250668.1144
        55.0004         47.0004
  21722148.7064   -4246972.47543  -3304680.53942  21722150.5214   21722145.5514
        55.0004         47.0004
  20984480.8324   -1830162.41044  -1421151.65442  20984482.7494   20984478.0774
        57.0004         50.0004
  22292865.8774   29539680.47143  23019880.31242  22292866.6854   22292861.3084
        53.0004         46.0004
  23794153.0644   -3514534.89943  -2717258.68342  23794154.4404   23794151.8164
        47.0004         40.0004
  21297929.0274    2184586.39044   1699628.52142  21297931.3384   21297925.9504
        57.0004         48.0004
  23835824.5754    -632174.12043   -472365.75842  23835824.7644   23835821.8094
        46.0004         39.0004
  23910831.1504   35359244.00843  27539757.18842  23910832.3484   23910828.2754
        47.0004         39.0004
 05 10 14 19 25  0.0000000  0  8G 8G28G27G19G31G13G10G23
  21241331.5784   -3082833.09143  -2391388.89442  21241331.6854   21241327.2444
        55.0004         47.0004
  21712347.4004   -4298479.86643  -3344816.15042  21712348.4364   21712343.4274
        55.0004         47.0004
  20982227.8144   -1842001.24244  -1430376.71942  20982229.8664   20982225.1594
        57.0004         50.0004
  22298189.9004   29567658.51943  23041681.40742  22298190.7704   22298185.2744
        53.0004         46.0004
  23772303.3714   -3629352.40043  -2806726.83942  23772304.5994   23772302.2644
        47.0004         40.0004
  21312220.8034    2259689.33244   1758150.26142  21312223.1324   21312217.3794
        57.0004         48.0004
  23837612.8434    -622773.60543   -465040.70542  23837614.4424   23837612.5344
        47.0004         39.0004
  23931925.6154   35470094.21443  27626133.87442  23931929.0894   23931922.7114
        47.0004         40.0004
 05 10 14 19 25 30.0000000  0  8G 8G28G27G19G31G13G10G23
  21232017.8774   -3131776.43343  -2429526.55142  21232018.3784   21232014.0294
        55.0004         48.0004
  21702605.3024   -4349674.31243  -3384707.90742  21702606.7184   21702602.7434
        55.0004         47.0004
  20980007.3064   -1853670.24344  -1439469.44342  20980009.2474   20980004.6034
        57.0004         50.0004
  22303618.9244   29596187.14843  23063911.52142  22303620.2074   22303614.4814
        53.0004         47.0004
  23750463.6344   -3744120.15643  -2896156.22142  23750465.9154   23750463.8094
        47.0004         40.0004
  21326593.1354    2335217.46143   1817003.31642  21326595.3274   21326590.5674
        56.0004         48.0004
  23839498.6924    -612866.05743   -457320.56642  23839500.7854   23839497.7344
        47.0004         39.0004
  23953046.9974   35581087.19843  27712621.82342  23953049.6824   23953043.7124
        47.0004         39.0004
 05 10 14 19 26  0.0000000  0  8G 8G28G27G19G31G13G10G23
  21222732.4394   -3180571.59643  -2467548.74642  21222732.7594   21222728.1264
        55.0004         48.0004
  21692923.8064   -4400551.20943  -3424352.22542  21692925.2314   21692920.4624
        55.0004         48.0004
  20977820.0184   -1865164.13944  -1448425.72842  20977821.9504   20977817.3294
        57.0004         50.0004
  22309153.1504   29625269.79943  23086573.33742  22309154.3864   22309148.1324
        53.0004         46.0004
  23728634.8394   -3858830.99843  -2985541.25442  23728637.2934   23728636.3644
        46.0004         40.0004
  21341046.9084    2411173.18943   1876189.56642  21341049.0664   21341043.7114
        56.0004         48.0004
  23841481.2004    -602448.15343   -449202.73442  23841482.8184   23841480.1794
        47.0004         39.0004
  23974195.4834   35692225.10443  27799222.69542  23974198.0204   23974192.0704
        47.0004         39.0004
 05 10 14 19 26 30.0000000  0  8G 8G28G27G19G31G13G10G23
  21213475.2824   -3229218.37843  -2505455.32042  21213475.4184   21213471.4374
        55.0004         48.0004
  21683302.5004   -4451111.31943  -3463749.70442  21683304.0594   21683298.9124
        55.0004         48.0004
  20975666.4754   -1876482.05344  -1457244.88642  20975668.2084   20975663.6824
        57.0004         50.0004
  22314792.3594   29654904.95243  23109665.67642  22314793.9124   22314787.6854
        53.0004         46.0004
  23706817.2934   -3973482.80643  -3074880.28142  23706819.4634   23706815.4954
        47.0004         40.0004
  21355581.9194    2487554.37843   1935707.34742  21355584.2474   21355579.0494
        56.0004         48.0004
  23843560.3944    -591521.64643   -440688.60842  23843561.1624   23843558.0854
        46.0004         39.0004
  23995371.1914   35803505.03343  27885934.24742  23995374.3084   23995368.3474
        47.0004         40.0004
 05 10 14 19 27  0.0000000  0  8G 8G28G27G19G31G13G10G23
  21204246.6534   -3277715.44543  -2543245.22242  21204246.9014   21204242.9714
        55.0004         48.0004
  21673741.6104   -4501354.28043  -3502900.04642  21673743.0834   21673738.0704
        55.0004         48.0004
  20973546.4194   -1887622.71244  -1465925.92342  20973548.1354   20973543.5244
        57.0004         50.0004
  22320536.7594   29685092.48643  23133188.43842  22320538.2924   22320532.6764
        53.0004         46.0004
  23685012.0044   -4088072.23743  -3164170.70642  23685014.1784   23685010.5974
        47.0004         40.0004
  21370197.6494    2564359.60943   1995555.55242  21370199.1964   21370194.6534
        56.0004         48.0004
  23845736.5624    -580087.14043   -431778.61342  23845737.4774   23845735.8634
        46.0004         39.0004
  24016574.3404   35914925.30243  27972755.14142  24016575.8444   24016571.0914
        47.0004         40.0004
 05 10 14 19 27 30.0000000  0  8G 8G28G27G19G31G13G10G23
  21195045.7224   -3326065.70543  -2580920.74642  21195045.9154   21195042.4754
        55.0004         48.0004
  21664240.3464   -4551284.07343  -3541806.36442  21664241.8874   21664236.7004
        56.0004         48.0004
  20971459.3794   -1898589.16144  -1474471.21042  20971461.2994   20971457.0804
        57.0004         50.0004
  22326385.7004   29715827.36743  23157137.69642  22326386.8694   22326381.1634
        53.0004         46.0004
  23663218.1044   -4202600.71543  -3253413.61942  23663219.9284   23663219.4194
        47.0004         40.0004
  21384892.7714    2641583.11443   2055729.67542  21384894.9664   21384889.2784
        56.0004         48.0004
  23848007.8004    -568149.96443   -422476.94742  23848010.6484   23848008.8534
        46.0004         38.0004
  24037802.5774   36026479.68143  28059680.54242  24037802.5164   24037797.2894
        47.0004         39.0004
 05 10 14 19 28  0.0000000  0  8G 8G28G27G19G31G13G10G23
  21185873.8754   -3374264.03343  -2618477.87542  21185874.2154   21185870.1924
        55.0004         48.0004
  21654799.2664   -4600896.24443  -3580465.18242  21654800.9364   21654796.1464
        55.0004         48.0004
  20969406.7724   -1909375.95044  -1482876.49842  20969408.5754   20969403.9874
        57.0004         50.0004
  22332339.0064   29747113.02443  23181516.13042  22332339.9424   22332333.8034
        53.0004         46.0004
  23641436.7954   -4317061.16243  -3342603.54342  23641438.8884   23641436.2074
        47.0004         40.0004
  21399668.0114    2719227.63243   2116231.86742  21399670.7144   21399665.3574
        56.0004         48.0004
  23850376.0194    -555707.18043   -412781.29642  23850377.5724   23850375.5974
        46.0004         38.0004
  24059056.0344   36138170.14443  28146711.98242  24059059.7034   24059051.5324
        46.0004         39.0004
 05 10 14 19 28 30.0000000  0  8G 8G28G27G19G31G13G10G23
  21176730.7654   -3422310.92643  -2655917.00442  21176731.2334   21176726.5414
        55.0004         47.0004
  21645418.6154   -4650192.28943  -3618877.67242  21645420.3144   21645415.4634
        56.0004         48.0004
  20967388.4054   -1919982.91344  -1491141.66942  20967390.3214   20967385.6094
        57.0004         50.0004
  22338396.7164   29778947.04043  23206321.85342  22338397.8964   22338392.4004
        53.0004         46.0004
  23619669.1114   -4431451.78843  -3431739.04942  23619669.6654   23619668.2124
        47.0004         40.0004
  21414522.8184    2797289.92643   2177059.59542  21414525.2194   21414520.1424
        56.0004         48.0004
  23852839.9584    -542760.85043   -402693.28342  23852840.8734   23852838.6564
        46.0004         39.0004
  24080335.6834   36249993.11643  28233846.69442  24080336.8774   24080330.5484
        46.0004         39.0004
 05 10 14 19 29  0.0000000  0  7G 8G28G27G19G31G13G10
  21167616.6364   -3470204.97143  -2693237.03542  21167616.9644   21167613.1484
        55.0004         47.0004
  21636098.1114   -4699172.07643  -3657043.72842  21636099.7364   21636094.7784
        56.0004         48.0004
  20965404.3324   -1930408.98644  -1499265.88242  20965406.3104   20965401.4964
        57.0004         50.0004
  22344558.8324   29811329.13843  23231554.65642  22344560.3924   22344554.3654
        53.0004         46.0004
  23597914.7244   -4545769.80943  -3520817.97342  23597916.1814   23597914.6044
        47.0004         41.0004
  21429456.8054    2875768.66743   2238211.83042  21429458.8334   21429454.2104
        56.0004         48.0004
  23855398.8704    -529312.40443   -392214.00842  23855400.8074   23855397.1974
        46.0004         39.0004
 05 10 14 19 29 30.0000000  0  7G 8G28G27G19G31G13G10
  21158532.1154   -3517944.74143  -2730436.84142  21158532.8544   21158528.6164
        55.0004         47.0004
  21626837.9084   -4747835.31943  -3694963.12642  21626839.2824   21626834.4254
        56.0004         48.0004
  20963455.0834   -1940652.75044  -1507248.03842  20963456.9384   20963452.4224
        57.0004         50.0004
  22350825.1384   29844258.53443  23257213.91542  22350826.7524   22350819.9344
        53.0004         46.0004
  23576175.2434   -4660011.89543  -3609837.71242  23576176.7504   23576174.9834
        48.0004         41.0004
  21444469.4934    2954661.88043   2299687.02942  21444471.7874   21444467.2364
        56.0004         48.0004
  23858053.9694    -515362.55643   -381344.03442  23858055.7564   23858051.6804
        46.0004         39.0004
 05 10 14 19 30  0.0000000  0  7G 8G28G27G19G31G13G10
  21149477.2094   -3565530.17743  -2767516.39042  21149476.8374   21149473.1034
        55.0004         47.0004
  21617637.4844   -4796182.87643  -3732636.53742  21617639.2134   21617634.0804
        56.0004         48.0004
  20961540.4834   -1950713.99644  -1515087.97542  20961542.2684   20961537.7754
        57.0004         50.0004
  22357195.3844   29877733.27943  23283298.11842  22357196.2224   22357190.3894
        53.0004         46.0004
  23554450.8494   -4774176.27643  -3698796.90442  23554452.0844   23554449.4284
        48.0004         41.0004
  21459561.0014    3033966.96543   2361483.16342  21459562.9434   21459557.8964
        56.0004         48.0004
  23860803.3074    -500913.60543   -370085.12642  23860805.2864   23860803.1044
        46.0004         39.0004
 05 10 14 19 30 30.0000000  0  7G 8G28G27G19G31G13G10
  21140450.7624   -3612963.40543  -2804477.33642  21140451.0874   21140447.1084
        55.0004         48.0004
  21608496.7874   -4844217.48143  -3770066.08942  21608498.0384   21608493.5154
        56.0004         48.0004
  20959660.4584   -1960594.08644  -1522786.74942  20959662.0754   20959657.3724
        57.0004         50.0004
  22363668.2454   29911749.97843  23309804.62342  22363669.3244   22363663.3524
        53.0004         46.0004
  23532740.3594   -4888262.76843  -3787695.39342  23532742.2224   23532741.8274
        48.0004         41.0004
  21474729.9244    3113679.42743   2423596.73842  21474732.3794   21474727.0414
        56.0004         48.0004
  23863646.9704    -485969.69143   -358440.55242  23863649.1794   23863645.1314
        46.0004         38.0004
 05 10 14 19 31  0.0000000  0  7G 8G28G27G19G31G13G10
  21131454.7584   -3660238.95243  -2841315.41942  21131455.0704   21131450.5064
        55.0004         48.0004
  21599416.3404   -4891935.24643  -3807248.75142  21599417.5754   21599412.8544
        56.0004         48.0004
  20957815.5914   -1970288.15644  -1530340.57342  20957817.5654   20957812.8694
        57.0004         50.0004
  22370245.4494   29946311.23543  23336735.45642  22370246.4294   22370240.0464
        53.0004         46.0004
  23511046.4874   -5002264.63143  -3876527.95242  23511048.5764   23511046.3474
        48.0004         41.0004
  21489976.8464    3193801.44843   2486029.44942  21489978.5364   21489973.3464
        56.0004         48.0004
  23866584.9234    -470528.09243   -346408.17842  23866585.7924   23866583.6344
        46.0004         38.0004
 05 10 14 19 31 30.0000000  0  7G 8G28G27G19G31G13G10
  21122488.9394   -3707354.47543  -2878028.80842  21122489.0244   21122485.1134
        55.0004         48.0004
  21590396.6144   -4939334.71243  -3844183.37442  21590398.2134   21590392.9364
        56.0004         48.0004
  20956006.9484   -1979793.53344  -1537747.36642  20956008.9034   20956003.8954
        57.0004         50.0004
  22376925.6414   29981417.54843  23364091.01242  22376926.9424   22376921.6744
        53.0004         46.0004
  23489370.2534   -5116177.42943  -3965291.09342  23489369.7834   23489367.0624
        48.0004         41.0004
  21505301.5314    3274332.74743   2548781.07842  21505303.2754   21505298.3524
        56.0004         48.0004
  23869618.0334    -454588.50743   -333987.73842  23869617.9424   23869615.4974
        45.0004         38.0004
 05 10 14 19 32  0.0000000  0  7G 8G28G27G19G31G13G10
  21113552.9584   -3754312.99143  -2914619.84442  21113553.2804   21113548.9984
        55.0004         48.0004
  21581436.2794   -4986420.32243  -3880873.43742  21581437.7574   21581432.8464
        56.0004         48.0004
  20954233.5304   -1989112.67344  -1545009.04142  20954235.4274   20954230.6124
        57.0004         50.0004
  22383709.2104   30017064.10443  23391867.53042  22383710.6554   22383704.5354
        53.0004         46.0004
  23467709.8014   -5230002.13843  -4053985.57642  23467711.0584   23467709.0634
        48.0004         41.0004
  21520702.7554    3355267.21343   2611846.86442  21520704.5704   21520699.9474
        56.0004         48.0004
  23872744.7124    -438156.38243   -321183.52142  23872746.0994   23872743.9434
        46.0004         38.0004
 05 10 14 19 32 30.0000000  0  7G 8G28G27G19G31G13G10
  21104646.8654   -3801114.10443  -2951088.23442  21104646.7414   21104643.2204
        55.0004         48.0004
  21572535.9034   -5033192.30443  -3917319.11942  21572537.1874   21572532.8254
        56.0004         48.0004
  20952495.5814   -1998245.28144  -1552125.36542  20952497.4034   20952492.7674
        57.0004         50.0004
  22390594.9004   30053249.08343  23420063.60442  22390595.9334   22390590.6364
        53.0004         46.0004
  23446066.7974   -5343736.48943  -4142609.65142  23446068.3624   23446065.1824
        48.0004         41.0004
  21536180.2774    3436602.78043   2675225.19742  21536182.6034   21536177.7804
        56.0004         48.0004
  23875965.4704    -421233.48543   -307996.87242  23875968.8734   23875962.8524
        45.0004         38.0004
 05 10 14 19 33  0.0000000  0  7G 8G28G27G19G31G13G10
  21095771.1484   -3847755.91943  -2987432.49742  21095771.5994   21095767.6114
        55.0004         48.0004
  21563695.6034   -5079650.04343  -3953519.93242  21563697.2994   21563692.0994
        56.0004         48.0004
  20950793.4544   -2007189.31444  -1559094.75042  20950795.1214   20950791.2824
        57.0004         50.0004
  22397583.0844   30089972.32843  23448679.10442  22397583.9444   22397578.8114
        53.0004         46.0004
  23424441.2724   -5457377.13343  -4231160.71742  23424443.4404   23424440.2564
        48.0004         41.0004
  21551734.1834    3518338.27343   2738915.15442  21551736.5384   21551731.1874
        56.0004         48.0004
  23879279.2154    -403820.53943   -294428.38142  23879281.5394   23879276.5014
        45.0004         37.0004
 05 10 14 19 33 30.0000000  0  7G 8G28G27G19G31G13G10
  21086926.8124   -3894233.25643  -3023648.59942  21086927.3104   21086922.7784
        55.0004         48.0004
  21554915.2934   -5125789.30343  -3989472.57342  21554916.9754   21554911.9024
        56.0004         48.0004
  20949128.4974   -2015939.37244  -1565912.98742  20949130.1574   20949126.1254
        57.0004         50.0004
  22404674.3034   30127236.85343  23477716.38142  22404676.1394   22404669.9774
        53.0004         46.0004
  23402836.1294   -5570916.60043  -4319632.94042  23402837.6154   23402833.2654
        48.0004         41.0004
  21567364.4044    3600475.92743   2802918.48942  21567366.8034   21567361.6544
        56.0004         48.0004
  23882686.7974    -385914.89843   -280475.96842  23882686.1344   23882684.6674
        45.0004         37.0004
 05 10 14 19 34  0.0000000  0  7G 8G28G27G19G31G13G10
  21078113.4414   -3940549.16943  -3059738.91642  21078113.8834   21078109.2774
        56.0004         48.0004
  21546195.0894   -5171614.89843  -4025180.80442  21546196.5274   21546191.5544
        56.0004         48.0004
  20947499.7084   -2024498.76844  -1572582.65542  20947501.3254   20947497.2794
        57.0004         50.0004
  22411867.3684   30165037.47343  23507171.39042  22411868.7074   22411862.9534
        53.0004         46.0004
  23381248.6704   -5684356.59843  -4408027.65142  23381250.1334   23381245.8754
        49.0004         42.0004
  21583070.0234    3683009.20043   2867230.09842  21583071.9834   21583067.1554
        56.0004         48.0004
  23886186.2284    -367522.45443   -266144.21042  23886188.0144   23886186.2064
        45.0004         37.0004
 05 10 14 19 34 30.0000000  0  7G 8G28G27G19G31G13G10
  21069331.0444   -3986701.25643  -3095701.56842  21069331.2804   21069327.0174
        56.0004         48.0004
  21537534.6814   -5217125.16543  -4060643.32042  21537536.4484   21537531.7684
        56.0004         48.0004
  20945907.6754   -2032864.72844  -1579101.59242  20945909.5094   20945905.2434
        57.0004         50.0004
  22419162.7154   30203374.24543  23537044.18742  22419163.7084   22419158.2084
        53.0004         46.0004
  23359681.2194   -5797692.57943  -4496341.30542  23359682.2394   23359680.6944
        49.0004         41.0004
  21598850.8234    3765937.94643   2931849.86542  21598853.2094   21598847.4084
        56.0004         48.0004
  23889779.0884    -348642.83243   -251432.84342  23889781.5054   23889777.8524
        44.0004         37.0004
 05 10 14 19 35  0.0000000  0  7G 8G28G27G19G31G13G10
  21060579.8374   -4032689.12443  -3131536.26442  21060580.3214   21060576.0664
        56.0004         48.0004
  21528934.3724   -5262321.27743  -4095861.04342  21528935.6864   21528930.6904
        56.0004         48.0004
  20944352.7534   -2041036.74344  -1585469.40142  20944354.5444   20944350.1764
        57.0004         50.0004
  22426559.7724   30242245.36643  23567333.36542  22426560.8874   22426554.9644
        53.0004         46.0004
  23338134.2244   -5910922.47243  -4584572.30042  23338136.2544   23338135.0624
        49.0004         41.0004
  21614706.4274    3849259.45243   2996775.68942  21614708.4824   21614703.4514
        56.0004         47.0004
  23893464.1444    -329278.25343   -236343.58742  23893466.2004   23893463.3214
        44.0004         37.0004
 05 10 14 19 35 30.0000000  0  7G 8G28G27G19G31G13G10
  21051861.5384   -4078502.91543  -3167235.31342  21051861.9024   21051857.8424
        56.0004         48.0004
  21520394.9434   -5307194.53443  -4130827.19142  21520396.3414   21520391.8024
        56.0004         48.0004
  20942836.3924   -2049004.94944  -1591678.40342  20942838.1694   20942833.8414
        57.0004         50.0004
  22434059.9284   30281658.67543  23598045.02142  22434060.7504   22434055.3364
        53.0004         47.0004
  23316609.9284   -6024034.66943  -4672711.58042  23316610.5894   23316610.1194
        48.0004         42.0004
  21630637.7554    3932980.40043   3062012.75642  21630640.1044   21630635.6384
        56.0004         47.0004
  23897242.5124    -309421.51143   -220870.83042  23897244.0264   23897239.8074
        44.0004         37.0004
 05 10 14 19 36  0.0000000  0  7G 8G28G27G19G31G13G10
  21043172.8224   -4124163.05643  -3202814.63742  21043173.3704   21043168.6764
        56.0004         48.0004
  21511913.1474   -5351766.13043  -4165558.28242  21511914.7714   21511909.8974
        56.0004         48.0004
  20941355.1854   -2056789.49344  -1597744.28442  20941357.1004   20941352.3694
        57.0004         50.0004
  22441658.9504   30321591.48243  23629161.49142  22441660.1564   22441654.1654
        53.0004         47.0004
  23295103.8694   -6137047.64443  -4760773.54842  23295104.8064   23295102.1824
        48.0004         42.0004
  21646641.1244    4017077.54243   3127542.96042  21646643.2834   21646638.7764
        56.0004         47.0004
  23901109.2384    -289095.86643   -205032.69442  23901110.9384   23901109.9934
        43.0004         36.0004
 05 10 14 19 36 30.0000000  0  7G 8G28G27G19G31G13G10
  21034516.8084   -4169651.16943  -3238259.90842  21034516.8444   21034512.5314
        56.0004         48.0004
  21503492.0984   -5396019.50743  -4200041.41642  21503493.0444   21503488.8974
        55.0004         48.0004
  20939912.1254   -2064372.24344  -1603652.92742  20939913.8994   20939909.4994
        57.0004         50.0004
  22449359.5114   30362059.32243  23660694.86342  22449360.5174   22449355.0544
        54.0004         46.0004
  23273620.8984   -6249941.49943  -4848742.70242  23273622.0664   23273618.9724
        49.0004         41.0004
  21662719.0524    4101566.17643   3193378.22842  21662721.1404   21662716.2014
        56.0004         47.0004
  23905069.7264    -268285.56343   -188816.92442  23905069.9564   23905069.3304
        44.0004         37.0004
 05 10 14 19 37  0.0000000  0  7G 8G28G27G19G31G13G10
  21025892.7824   -4214971.21743  -3273574.22042  21025893.0764   21025888.5944
        56.0004         48.0004
  21495130.5224   -5439959.28943  -4234280.19042  21495132.4144   21495127.3704
        56.0004         48.0004
  20938506.9844   -2071756.32744  -1609406.76642  20938509.0964   20938504.0994
        57.0004         50.0004
  22457161.1824   30403056.16043  23692640.45642  22457162.0464   22457155.8834
        53.0004         46.0004
  23252159.9404   -6362717.97843  -4936620.41142  23252161.1864   23252160.0954
        48.0004         42.0004
  21678869.7954    4186439.42443   3259513.19242  21678872.1344   21678866.5804
        56.0004         47.0004
  23909121.0344    -246996.68643   -172228.20542  23909121.3344   23909120.4084
        43.0004         37.0004
 05 10 14 19 37 30.0000000  0  7G 8G28G27G19G31G13G10
  21017300.5854   -4260121.99243  -3308756.63042  21017301.0914   21017296.8914
        56.0004         48.0004
  21486828.5544   -5483586.04143  -4268275.04542  21486830.1414   21486825.4544
        56.0004         48.0004
  20937139.6324   -2078941.01544  -1615005.23142  20937141.4884   20937137.1504
        57.0004         50.0004
  22465063.0164   30444580.63843  23724997.18042  22465064.5974   22465058.0504
        53.0004         46.0004
  23230722.1644   -6475374.33043  -5024404.49342  23230723.2384   23230720.9704
        48.0004         42.0004
  21695093.3734    4271694.90043   3325945.99242  21695095.8264   21695090.1084
        56.0004         47.0004
  23913262.8294    -225231.06943   -155268.02942  23913264.1794   23913263.3464
        43.0004         37.0004
 05 10 14 19 38  0.0000000  0  7G 8G28G27G19G31G13G10
  21008740.3804   -4305106.29143  -3343809.31742  21008740.9174   21008736.9284
        56.0004         48.0004
  21478585.4244   -5526903.69543  -4302029.04342  21478587.0944   21478582.1624
        56.0004         48.0004
  20935809.9494   -2085929.06444  -1620450.46542  20935811.9244   20935807.2324
        57.0004         50.0004
  22473064.3234   30486628.10143  23757761.43642  22473065.6744   22473059.8094
        53.0004         46.0004
  23209307.1194   -6587911.48043  -5112095.69642  23209308.1184   23209306.0934
        48.0004         41.0004
  21711388.0964    4357326.74943   3392672.07242  21711390.5644   21711385.9934
        55.0004         47.0004
  23917495.3844    -202994.21643   -137940.63742  23917495.5594   23917494.4134
        43.0004         37.0004
 05 10 14 19 38 30.0000000  0  7G 8G28G27G19G31G13G10
  21000213.7094   -4349913.74843  -3378724.21042  21000214.2174   21000210.1514
        56.0004         48.0004
  21470402.8294   -5569903.25243  -4335535.17642  21470404.7434   21470399.5814
        55.0004         48.0004
  20934519.6454   -2092709.76144  -1625734.12742  20934521.4824   20934516.9454
        57.0004         50.0004
  22481166.8024   30529206.19543  23790939.15542  22481167.4914   22481161.8944
        53.0004         46.0004
  23187916.8304   -6700317.14743  -5199684.44142  23187918.2904   23187916.3614
        48.0004         42.0004
  21727756.8144    4443342.37043   3459697.19442  21727758.8624   21727754.3044
        55.0004         47.0004
  23921817.7234    -180278.52843   -120240.14042  23921818.1274   23921817.8844
        43.0004         37.0004
 05 10 14 19 39  0.0000000  0  7G 8G28G27G19G31G13G10
  20991719.8824   -4394548.38943  -3413504.43842  20991720.3424   20991716.9644
        56.0004         48.0004
  21462280.0524   -5612590.21943  -4368797.73142  21462281.8754   21462276.3844
        56.0004         48.0004
  20933268.0694   -2099287.27844  -1630859.46942  20933269.6284   20933265.4084
        57.0004         50.0004
  22489368.7374   30572308.36343  23824525.24942  22489369.8684   22489364.1304
        53.0004         46.0004
  23166551.1474   -6812593.87543  -5287172.72042  23166554.3714   23166550.2804
        48.0004         42.0004
  21744196.9024    4529734.55043   3527015.74242  21744199.1554   21744194.6374
        56.0004         47.0004
  23926230.4984    -157090.91943   -102171.91442  23926231.3164   23926228.8694
        44.0004         37.0004
 05 10 14 19 39 30.0000000  0  7G 8G28G27G19G31G13G10
  20983258.5764   -4439012.28343  -3448151.61942  20983258.8524   20983255.0614
        56.0004         48.0004
  21454215.9084   -5654967.63343  -4401819.08142  21454217.5654   21454212.4584
        56.0004         48.0004
  20932054.8694   -2105663.17544  -1635827.70342  20932056.3584   20932052.0924
        57.0004         50.0004
  22497669.7624   30615930.29543  23858516.35042  22497671.0504   22497664.7144
        53.0004         46.0004
  23145210.1494   -6924741.63543  -5374560.52342  23145211.7624   23145209.8854
        48.0004         42.0004
  21760707.3724    4616498.22743   3594623.76242  21760709.5044   21760704.8084
        55.0004         47.0004
  23930731.4134    -133435.87243    -83739.45042  23930732.6934   23930729.9144
        45.0004         37.0004
 05 10 14 19 40  0.0000000  0  7G 8G28G27G19G31G13G10
  20974830.8254   -4483300.41343  -3482661.84142  20974831.1924   20974827.4224
        56.0004         48.0004
  21446211.1374   -5697032.12143  -4434596.59342  21446212.6244   21446207.7784
        56.0004         48.0004
  20930880.8434   -2111832.75444  -1640635.17442  20930882.6274   20930878.3224
        57.0004         50.0004
  22506069.7664   30660073.75343  23892913.82642  22506071.3594   22506064.5864
        53.0004         46.0004
  23123894.7724   -7036753.80343  -5461842.66242  23123896.0174   23123893.2354
        48.0004         42.0004
  21777288.4914    4703634.91543   3662522.43542  21777290.6314   21777285.3114
        55.0004         47.0004
  23935322.8134    -109311.52543    -64941.28342  23935323.3824   23935322.0464
        45.0004         38.0004
 05 10 14 19 40 30.0000000  0  7G 8G28G27G19G31G13G10
  20966436.8034   -4527411.49243  -3517034.10042  20966437.3084   20966433.3334
        56.0004         48.0004
  21438266.1754   -5738783.70443  -4467130.28242  21438267.9404   21438262.8454
        56.0004         49.0004
  20929746.1224   -2117794.81644  -1645280.93842  20929748.0734   20929743.5694
        57.0004         50.0004
  22514569.4024   30704738.37943  23927717.41042  22514569.9844   22514564.7644
        52.0004         46.0004
  23102606.1544   -7148627.34343  -5549016.78142  23102606.8254   23102604.4894
        48.0004         42.0004
  21793941.3574    4791143.17143   3730710.65242  21793943.5674   21793937.7184
        55.0004         47.0004
  23940002.3884     -84719.47543    -45778.66242  23940003.8944   23940001.9664
        45.0004         38.0004
 05 10 14 19 41  0.0000000  0  7G 8G28G27G19G31G13G10
  20958075.2624   -4571351.99343  -3551273.44142  20958075.6214   20958071.5984
        56.0004         49.0004
  21430379.1334   -5780230.25243  -4499426.28042  21430381.0484   21430375.7484
        56.0004         49.0004
  20928649.9504   -2123555.15444  -1649769.51342  20928651.9644   20928647.5144
        57.0004         50.0004
  22523166.5494   30749915.24143  23962920.13842  22523167.3844   22523160.9434
        52.0004         45.0004
  23081342.6284   -7260366.93543  -5636086.52442  23081345.6424   23081342.0744
        48.0004         42.0004
  21810662.4824    4879012.72943   3799180.39642  21810664.5254   21810659.4694
        55.0004         46.0004
  23944768.8854     -59668.84143    -26258.71642  23944770.1694   23944767.7564
        45.0004         38.0004
 05 10 14 19 41 30.0000000  0  7G 8G28G27G19G31G13G10
  20949751.6864   -4615092.93943  -3585357.28342  20949752.2424   20949748.0644
        56.0004         49.0004
  21422555.4884   -5821343.98643  -4531462.94742  21422557.0584   21422552.4604
        56.0004         49.0004
  20927597.7384   -2129085.01444  -1654078.49542  20927599.6084   20927595.1784
        57.0004         50.0004
  22531865.6604   30795630.20543  23998542.15842  22531866.4034   22531860.9314
        52.0004         45.0004
  23060111.0134   -7371941.91543  -5723027.99742  23060112.8904   23060109.9884
        49.0004         42.0004
  21827457.0104    4967269.29843   3867951.70642  21827459.0934   21827453.7864
        55.0004         46.0004
  23949628.4894     -34133.71343     -6361.27242  23949630.5714   23949628.3584
        45.0004         38.0004
 05 10 14 19 42  0.0000000  0  7G 8G28G27G19G31G13G10
  20941459.8484   -4658667.28943  -3619311.31742  20941460.4534   20941456.6204
        56.0004         49.0004
  21414788.4874   -5862159.72443  -4563267.40542  21414789.8664   21414784.8794
        56.0004         49.0004
  20926582.9834   -2134417.64544  -1658233.79842  20926584.6424   20926580.1124
        57.0004         50.0004
  22540660.2824   30841847.61643  24034555.68742  22540661.3794   22540656.0614
        52.0004         45.0004
  23038904.2794   -7483383.67843  -5809865.67542  23038906.9024   23038902.3614
        49.0004         42.0004
  21844318.3094    5055876.74743   3936996.42842  21844320.8214   21844315.3184
        54.0004         46.0004
  23954572.6724      -8149.83543     13885.87042  23954575.1054   23954572.1934
        45.0004         38.0004
 05 10 14 19 42 30.0000000  0  7G 8G28G27G19G31G13G10
  20933201.7584   -4702063.63743  -3653126.64442  20933202.5034   20933198.2934
        56.0004         49.0004
  21407080.1384   -5902667.36943  -4594831.79042  21407082.1314   21407076.5784
        56.0004         49.0004
  20925608.0324   -2139541.43344  -1662226.36542  20925609.7544   20925605.1844
        57.0004         50.0004
  22549552.7364   30888576.40443  24070967.69242  22549553.7774   22549547.9514
        52.0004         45.0004
  23017725.4514   -7594678.74143  -5896589.03642  23017725.7634   23017722.8984
        49.0004         42.0004
  21861248.1494    5144843.24043   4006320.92642  21861250.0964   21861244.9624
        54.0004         46.0004
  23959604.4194      18291.26043     34489.29942  23959606.4684   23959603.8694
        46.0004         38.0004
 05 10 14 19 43  0.0000000  0  7G 8G28G27G19G31G13G10
  20924978.4064   -4745277.63843  -3686799.87842  20924978.4734   20924974.7774
        56.0004         49.0004
  21399431.0024   -5942863.92843  -4626153.76442  21399432.6114   21399427.3664
        56.0004         49.0004
  20924673.6324   -2144451.78544  -1666052.61442  20924675.2224   20924670.9434
        57.0004         50.0004
  22558542.7834   30935818.44843  24107779.63942  22558543.4234   22558538.2144
        52.0004         45.0004
  22996575.7174   -7705820.82243  -5983193.19942  22996578.9784   22996574.4564
        49.0004         42.0004
  21878246.3704    5234170.04143   4075926.18342  21878248.1474   21878244.1624
        54.0004         46.0004
  23964723.8044      45190.78843     55449.93742  23964725.0074   23964723.9384
        46.0004         39.0004
 05 10 14 19 43 30.0000000  0  7G 8G28G27G19G31G13G10
  20916789.5764   -4788309.50143  -3720331.18642  20916789.7954   20916785.6694
        56.0004         49.0004
  21391840.7514   -5982751.08643  -4657234.64842  21391842.6474   21391837.0724
        56.0004         49.0004
  20923779.5894   -2149148.72644  -1669712.57042  20923781.3514   20923777.1104
        57.0004         50.0004
  22567629.9114   30983570.72343  24144989.16742  22567631.1754   22567625.0044
        52.0004         45.0004
  22975454.8504   -7816808.55443  -6069677.08142  22975456.8944   22975454.7874
        49.0004         42.0004
  21895312.5424    5323853.67443   4145809.49642  21895314.7944   21895309.4404
        54.0004         46.0004
  23969928.6744      72545.65243     76765.38442  23969930.0864   23969928.2594
        45.0004         39.0004
 05 10 14 19 44  0.0000000  0  7G 8G28G27G19G31G13G10
  20908635.9774   -4831156.66543  -3753718.56842  20908636.4174   20908632.2544
        56.0004         49.0004
  21384309.3984   -6022327.75443  -4688073.59142  21384310.7844   21384306.1604
        56.0004         49.0004
  20922926.9784   -2153629.89444  -1673204.38842  20922928.6474   20922924.0974
        57.0004         50.0004
  22576813.5484   31031832.71743  24182595.87042  22576814.9584   22576808.2674
        52.0004         45.0004
  22954365.4084   -7927637.90143  -6156037.55442  22954366.7014   22954362.3364
        49.0004         42.0004
  21912446.6994    5413892.92243   4215969.90942  21912448.8744   21912443.6574
        54.0004         46.0004
  23975220.1784     100355.16443     98435.09442  23975221.5314   23975219.3354
        45.0004         38.0004
 05 10 14 19 44 30.0000000  0  7G 8G28G27G19G31G13G10
  20900518.3154   -4873815.97343  -3786959.57642  20900518.7234   20900514.3494
        56.0004         49.0004
  21376837.7304   -6061592.30243  -4718669.32742  21376839.2754   21376833.8964
        56.0004         49.0004
  20922115.9234   -2157891.83444  -1676525.38242  20922117.4884   20922113.1104
        57.0004         50.0004
  22586094.8894   31080605.25243  24220600.40342  22586095.7294   22586090.0444
        52.0004         45.0004
  22933305.8434   -8038304.15243  -6242270.93642  22933307.0644   22933303.0184
        49.0004         42.0004
  21929648.2904    5504287.89543   4286407.51142  21929650.8814   21929645.8474
        54.0004         46.0004
  23980598.9534     128619.38943    120459.12442  23980599.6024   23980597.3234
        45.0004         38.0004
 05 10 14 19 45  0.0000000  0  7G 8G28G27G19G31G13G10
  20892435.4824   -4916292.04843  -3820057.80342  20892435.3434   20892431.5254
        56.0004         49.0004
  21369424.1804   -6100550.81343  -4749026.58942  21369425.7034   21369420.0604
        56.0004         49.0004
  20921345.7314   -2161939.48644  -1679679.40342  20921347.5634   20921342.7344
        57.0004         50.0004
  22595471.6474   31129881.06943  24258997.10242  22595473.1104   22595467.1494
        51.0004         45.0004
  22912277.6164   -8148809.77643  -6328379.17242  22912278.6944   22912276.0014
        50.0004         42.0004
  21946915.4674    5595030.28343   4357115.82742  21946918.2054   21946913.2334
        54.0004         46.0004
  23986062.9714     157330.94443    142831.73242  23986063.8854   23986064.0514
        46.0004         39.0004
 05 10 14 19 45 30.0000000  0  7G 8G28G27G19G31G13G10
  20884388.6084   -4958578.83944  -3853008.53842  20884388.8734   20884384.7804
        57.0004         49.0004
  21362069.5884   -6139199.12243  -4779142.13842  21362070.8614   21362065.7994
        56.0004         49.0004
  20920617.3714   -2165767.00344  -1682661.88642  20920618.9524   20920614.5584
        57.0004         50.0004
  22604944.9234   31179663.03943  24297788.20642  22604945.9294   22604939.7944
        52.0004         45.0004
  22891280.6664   -8259147.18043  -6414356.31742  22891282.0904   22891280.9424
        50.0004         42.0004
  21964250.0614    5686122.75643   4428096.93442  21964252.4014   21964247.8534
        54.0004         46.0004
  23991612.4734     186492.37443    165554.87542  23991614.2804   23991612.2684
        45.0004         39.0004
 05 10 14 19 46  0.0000000  0  7G 8G28G27G19G31G13G10
  20876377.2334   -5000678.23544  -3885813.24942  20876377.7464   20876373.3824
        57.0004         49.0004
  21354773.6644   -6177540.21043  -4809018.28742  21354775.4964   21354769.7424
        56.0004         49.0004
  20919930.5004   -2169375.81844  -1685473.94942  20919932.5154   20919928.2044
        57.0004         50.0004
  22614513.4554   31229946.81043  24336970.33042  22614515.5854   22614509.0444
        52.0004         45.0004
  22870315.7994   -8369316.62643  -6500202.57142  22870318.1624   22870313.4794
        50.0004         42.0004
  21981650.2924    5777560.07243   4499346.75742  21981651.9234   21981647.6324
        54.0004         46.0004
  23997246.3854     216099.19143    188625.09942  23997248.1524   23997245.3574
        45.0004         38.0004
 05 10 14 19 46 30.0000000  0  7G 8G28G27G19G31G13G10
  20868402.2794   -5042587.43444  -3918469.76442  20868402.4904   20868398.0044
        57.0004         49.0004
  21347536.1404   -6215573.38043  -4838654.50042  21347537.8224   21347532.2204
        56.0004         49.0004
  20919286.2204   -2172763.20144  -1688113.47342  20919287.9464   20919283.5574
        57.0004         50.0004
  22624177.8524   31280731.81143  24376543.02842  22624178.4934   22624173.1854
        51.0004         45.0004
  22849384.2464   -8479313.92043  -6585914.70442  22849386.4384   22849383.2304
        50.0004         42.0004
  21999115.9854    5869341.66943   4570864.84642  21999117.2744   21999113.3354
        54.0004         46.0004
  24002964.8594     246150.61243    212041.75642  24002967.5454   24002963.6474
        45.0004         38.0004
 05 10 14 19 47  0.0000000  0  7G 8G28G27G19G31G13G10
  20860463.9554   -5084302.97244  -3950975.37542  20860464.4364   20860460.1014
        57.0004         49.0004
  21340357.6434   -6253296.30143  -4868048.96342  21340359.1984   21340354.4104
        56.0004         49.0004
  20918684.1934   -2175925.75044  -1690577.80542  20918686.2004   20918681.9724
        57.0004         50.0004
  22633937.3174   31332019.07643  24416507.09842  22633938.4074   22633932.3944
        52.0004         45.0004
  22828486.3094   -8589133.33243  -6671488.21742  22828488.7744   22828483.5744
        50.0004         43.0004
  22016646.7184    5961467.54043   4642651.20042  22016649.3144   22016644.6244
        54.0004         46.0004
  24008767.9314     276647.28343    235805.35042  24008769.0494   24008767.9654
        45.0004         38.0004
 05 10 14 19 47 30.0000000  0  7G 8G28G27G19G31G13G10
  20852561.7154   -5125829.62944  -3983333.79742  20852561.7944   20852557.8254
        57.0004         49.0004
  21333236.9034   -6290715.38043  -4897206.66842  21333238.5324   21333233.6344
        56.0004         49.0004
  20918124.2744   -2178868.15144  -1692870.58442  20918126.0854   20918121.9314
        57.0004         50.0004
  22643790.7284   31383800.89243  24456856.54342  22643791.6504   22643786.5924
        52.0004         45.0004
  22807621.3804   -8698778.17843  -6756925.70242  22807622.9144   22807620.4934
        50.0004         43.0004
  22034241.8304    6053929.37743   4714699.34942  22034244.4434   22034239.3194
        54.0004         46.0004
  24014654.7694     307581.08743    259909.56342  24014656.8384   24014654.7684
        44.0004         38.0004
 05 10 14 19 48  0.0000000  0  7G 8G28G27G19G31G13G10
  20844696.1164   -5167162.81743  -4015541.46442  20844696.3744   20844692.6054
        56.0004         49.0004
  21326174.9464   -6327827.52543  -4926125.19942  21326176.7324   21326171.3594
        56.0004         49.0004
  20917607.1554   -2181585.72644  -1694988.17642  20917608.7734   20917604.5654
        57.0004         50.0004
  22653739.2244   31436079.05343  24497592.75642  22653740.3334   22653734.8914
        52.0004         45.0004
  22786791.3074   -8808242.03543  -6842222.15442  22786793.0384   22786789.6104
        50.0004         43.0004
  22051901.0114    6146728.64543   4787010.42642  22051902.9034   22051899.3404
        54.0004         46.0004
  24020625.1524     338953.62443    284355.65142  24020625.4914   24020624.5104
        44.0004         38.0004
 05 10 14 19 48 30.0000000  0  7G 8G28G27G19G31G13G10
  20836867.9304   -5208299.50543  -4047596.01842  20836868.4554   20836864.3104
        56.0004         49.0004
  21319171.2634   -6364631.55143  -4954803.63742  21319172.9044   21319167.4594
        56.0004         49.0004
  20917133.4434   -2184075.77644  -1696928.48142  20917135.0794   20917130.8064
        57.0004         50.0004
  22663781.7234   31488853.92743  24538716.01642  22663783.0394   22663778.0964
        51.0004         45.0004
  22765996.5534   -8917520.36743  -6927374.02242  22765998.1834   22765994.0044
        50.0004         43.0004
  22069624.4704    6239864.53343   4859583.81142  22069627.1844   22069622.1014
        54.0004         45.0004
  24026678.0904     370764.45343    309143.28242  24026679.5904   24026676.1634
        43.0004         37.0004
 05 10 14 19 49  0.0000000  0  7G 8G28G27G19G31G13G10
  20829072.0634   -5249268.48343  -4079519.88842  20829072.2974   20829068.4574
        56.0004         49.0004
  21312220.4664   -6401157.50243  -4983265.39842  21312221.9814   21312217.0104
        56.0004         49.0004
  20916697.4214   -2186366.66844  -1698713.59842  20916699.2394   20916694.7534
        57.0004         50.0004
  22673913.0374   31542093.41043  24580201.32142  22673913.4424   22673908.8224
        51.0004         45.0004
  22745231.7154   -9026639.92843  -7012402.18842  22745232.8244   22745229.0274
        50.0004         43.0004
  22087405.5934    6333305.76243   4932395.11242  22087408.1954   22087403.2804
        54.0004         45.0004
  24032808.3124     402981.78343    334247.66042  24032807.8764   24032808.4134
        41.0004         37.0004
 05 10 14 19 49 30.0000000  0  7G 8G28G27G19G31G13G10
  20821319.3834   -5290009.58244  -4111266.19542  20821319.6824   20821315.6374
        57.0004         49.0004
  21305334.0394   -6437347.23643  -5011465.17642  21305335.4244   21305330.2174
        56.0004         49.0004
  20916310.8174   -2188398.62244  -1700296.94142  20916312.8134   20916308.3064
        57.0004         50.0004
  22684143.2874   31595854.81043  24622093.31342  22684144.9654   22684138.6694
        52.0004         45.0004
  22724508.8394   -9135539.14843  -7097258.65442  22724509.8034   22724506.8804
        50.0004         43.0004
  22105255.5144    6427107.57643   5005487.40442  22105258.3614   22105252.7484
        54.0004         45.0004
  24039027.3614     435662.09143    359712.79542  24039029.3844   24039027.8534
        41.0004         37.0004
 05 10 14 19 50  0.0000000  0  7G 8G28G27G19G31G13G10
  20813603.6634   -5330555.69344  -4142860.56742  20813603.8314   20813599.5824
        57.0004         49.0004
  21298504.5644   -6473235.34743  -5039429.92642  21298506.1854   21298501.0224
        56.0004         49.0004
  20915967.0944   -2190204.75544  -1701704.32842  20915968.8504   20915964.7654
        57.0004         50.0004
  22694466.6414   31650102.00443  24664363.85242  22694468.2404   22694461.9864
        52.0004         45.0004
  22703821.6234   -9244249.08443  -7181967.63442  22703823.0344   22703820.3824
        50.0004         43.0004
  22123167.1994    6521233.77543   5078832.45242  22123169.0424   22123164.4824
        54.0004         45.0004
  24045327.0924     468769.22843    385510.52142  24045328.7924   24045327.2644
        41.0004         36.0004
 05 10 14 19 50 30.0000000  0  7G 8G28G27G19G31G13G10
  20805925.8944   -5370902.02144  -4174299.25942  20805925.9904   20805921.8844
        57.0004         49.0004
  21291733.1944   -6508818.68543  -5067157.18642  21291734.9174   21291729.6794
        56.0004         49.0004
  20915667.2454   -2191779.57444  -1702931.46242  20915669.0264   20915664.3754
        57.0004         50.0004
  22704882.4764   31704836.90643  24707014.42342  22704883.9894   22704877.6424
        52.0004         45.0004
  22683172.0194   -9352763.27443  -7266524.06742  22683174.2454   22683170.3574
        50.0004         43.0004
  22141140.5374    6615685.84743   5152431.43842  22141142.9434   22141138.2234
        54.0004         45.0004
  24051709.0304     502304.72643    411642.05942  24051709.5754   24051707.2724
        40.0004         36.0004
 05 10 14 19 51  0.0000000  0  7G 8G28G27G19G31G13G10
  20798286.6984   -5411046.48844  -4205580.65842  20798286.8154   20798282.5984
        57.0004         49.0004
  21285019.6134   -6544096.71943  -5094646.54942  21285021.5264   21285016.3954
        56.0004         49.0004
  20915411.9974   -2193121.27244  -1703976.94542  20915413.6784   20915409.4684
        57.0004         50.0004
  22715390.9584   31760058.54143  24750044.25742  22715391.6384   22715385.9284
        52.0004         45.0004
  22662560.1824   -9461078.23843  -7350925.25442  22662561.4824   22662559.3744
        51.0004         43.0004
  22159175.9004    6710462.42243   5226283.27042  22159177.5024   22159173.5074
        53.0004         45.0004
  24058173.0614     536267.42543    438106.50242  24058173.0074   24058173.4084
        41.0004         36.0004
 05 10 14 19 51 30.0000000  0  7G 8G28G27G19G31G13G10
  20790685.1984   -5450993.27044  -4236708.01542  20790685.4574   20790681.3174
        57.0004         49.0004
  21278363.6534   -6579075.34043  -5121902.60442  21278365.1534   21278359.9244
        56.0004         49.0004
  20915200.2394   -2194234.44244  -1704844.35042  20915201.9444   20915197.7104
        57.0004         50.0004
  22725990.1204   31815759.56143  24793447.64242  22725991.3544   22725984.3794
        52.0004         45.0004
  22641986.2904   -9569196.58343  -7435173.25042  22641987.3224   22641985.6094
        51.0004         43.0004
  22177271.9164    6805555.49943   5300381.73842  22177273.9584   22177268.7204
        53.0004         45.0004
  24064714.5174     570649.63243    464897.80042  24064716.9604   24064714.7494
        41.0004         36.0004
 05 10 14 19 52  0.0000000  0  7G 8G28G27G19G31G13G10
  20783123.1564   -5490732.65244  -4267673.76642  20783123.6154   20783119.1194
        57.0004         49.0004
  21271766.0744   -6613746.41443  -5148919.01342  21271767.7284   21271762.3934
        56.0004         49.0004
  20915033.8994   -2195108.70544  -1705525.59642  20915035.6824   20915031.4644
        57.0004         50.0004
  22736682.1224   31871946.94343  24837230.00742  22736683.2584   22736677.9024
        52.0004         45.0004
  22621451.7584   -9677106.46143  -7519258.79042  22621452.6724   22621449.8034
        51.0004         44.0004
  22195428.9184    6900971.68743   5374731.97342  22195431.2044   22195425.8934
        53.0004         45.0004
  24071337.4194     605457.83143    492021.03242  24071339.9714   24071337.5284
        39.0004         36.0004
 05 10 14 19 52 30.0000000  0  7G 8G28G27G19G31G13G10
  20775599.9384   -5530266.67444  -4298479.49242  20775600.4014   20775596.0644
        57.0004         49.0004
  21265226.0524   -6648114.16543  -5175699.06542  21265227.7154   21265222.3234
        56.0004         49.0004
  20914912.4554   -2195746.91944  -1706022.90942  20914914.2274   20914910.0904
        57.0004         50.0004
  22747466.0574   31928615.11743  24881387.01042  22747466.6834   22747461.1194
        52.0004         45.0004
  22600956.2984   -9784808.92843  -7603182.71842  22600958.5814   22600954.5154
        51.0004         44.0004
  22213645.9554    6996704.81643   5449329.17042  22213648.8094   22213642.9934
        53.0004         45.0004
  24078041.7744     640686.08343    519471.62942  24078042.3014   24078041.7304
        41.0004         36.0004
 05 10 14 19 53  0.0000000  0  7G 8G28G27G19G31G13G10
  20768115.5064   -5569597.53244  -4329126.91042  20768115.6384   20768111.5644
        57.0004         49.0004
  21258742.8414   -6682182.17843  -5202245.56242  21258744.5394   21258739.6564
        56.0004         49.0004
  20914835.5084   -2196150.97744  -1706337.76542  20914837.1534   20914833.0374
        57.0004         50.0004
  22758340.1814   31985758.67543  24925914.44542  22758341.2704   22758334.8624
        52.0004         45.0004
  22580500.6064   -9892304.08643  -7686945.10042  22580502.2774   22580499.1834
        51.0004         44.0004
  22231922.7364    7092749.43643   5524169.09842  22231924.4984   22231920.7104
        53.0004         45.0004
  24084826.4194     676329.19943    547245.45242  24084828.3864   24084824.3034
        41.0004         36.0004
 05 10 14 19 53 30.0000000  0  7G 8G28G27G19G31G13G10
  20760670.6864   -5608719.99444  -4359611.93942  20760671.2574   20760666.8844
        57.0004         50.0004
  21252317.7974   -6715947.10743  -5228555.88242  21252319.4554   21252314.5644
        56.0004         49.0004
  20914804.1744   -2196316.07344  -1706466.41342  20914805.7974   20914801.4334
        57.0004         50.0004
  22769304.6684   32043380.19943  24970814.31242  22769305.7134   22769300.2514
        52.0004         45.0004
  22560085.7054   -9999585.32243  -7770540.79742  22560086.6264   22560082.6734
        51.0004         44.0004
  22250259.0214    7189106.72243   5599252.65942  22250261.4294   22250257.4294
        53.0004         45.0004
  24091687.8474     712388.72443    575343.74942  24091690.6714   24091687.0154
        42.0004         36.0004
 05 10 14 19 54  0.0000000  0  7G 8G28G27G19G31G13G10
  20753265.8214   -5647633.55944  -4389934.18642  20753266.0644   20753261.8544
        57.0004         49.0004
  21245949.9554   -6749410.08443  -5254630.92142  21245951.5204   21245946.5414
        56.0004         49.0004
  20914818.4524   -2196241.15544  -1706408.03542  20914819.9904   20914815.6704
        57.0004         50.0004
  22780360.2674   32101476.80243  25016084.36442  22780361.2054   22780355.0194
        52.0004         45.0004
  22539711.8454  -10106650.39843  -7853968.06842  22539713.1994   22539709.8194
        52.0004         44.0004
  22268653.9044    7285773.80443   5674577.61642  22268656.2004   22268652.5544
        52.0004         44.0004
  24098626.7694     748861.73643    603764.24542  24098630.6624   24098626.2144
        42.0004         36.0004
 05 10 14 19 54 30.0000000  0  8G 8G28G27G29G19G31G13G10
  20745900.6724   -5686337.42944  -4420093.04042  20745901.3184   20745896.7514
        57.0004         49.0004
  21239639.4764   -6782571.68743  -5280471.12442  21239641.2344   21239636.0664
        56.0004         49.0004
  20914878.5044   -2195925.39644  -1706161.98942  20914880.3124   20914876.2364
        57.0004         50.0004
  24278448.4094   -4294987.75553  -3282710.50652  24278451.8284   24278446.9794
        44.0004         36.0004
  22791505.7334   32160046.37443  25061722.97042  22791506.6984   22791501.9614
        52.0004         45.0004
  22519379.7224  -10213496.77543  -7937224.93142  22519380.8314   22519376.4634
        52.0004         44.0004
  22287107.7824    7382747.92043   5750141.81642  22287109.1704   22287105.5764
        52.0004         44.0004
  24105647.4004     785745.87843    632505.09642  24105648.4444   24105646.9804
        42.0004         36.0004
 05 10 14 19 55  0.0000000  0  8G 8G28G27G29G19G31G13G10
  20738575.0124   -5724833.43044  -4450089.91642  20738575.2044   20738570.9354
        57.0004         49.0004
  21233385.5324   -6815436.33143  -5306079.92442  21233387.0704   21233382.2204
        56.0004         49.0004
  20914983.9534   -2195371.11844  -1705730.08442  20914985.8504   20914981.4704
        57.0004         50.0004
  24260459.8624   -4389520.62143  -3356372.41242  24260461.4214   24260459.3964
        43.0004         36.0004
  22802740.4094   32219083.42443  25107725.84742  22802741.2504   22802735.0914
        52.0004         45.0004
  22499088.7944  -10320124.86843  -8020311.70542  22499090.3284   22499086.0624
        52.0004         44.0004
  22305618.6864    7480023.40943   5825940.85142  22305620.1874   22305616.9494
        52.0004         44.0004
  24112742.8244     823035.65143    661561.99842  24112743.9254   24112743.2754
        42.0004         36.0004
 05 10 14 19 55 30.0000000  0  8G 8G28G27G29G19G31G13G10
  20731290.4104   -5763114.77744  -4479919.52842  20731290.7994   20731286.4714
        57.0004         49.0004
  21227189.2724   -6847998.52044  -5331453.04842  21227191.0504   21227185.8164
        57.0004         49.0004
  20915136.1574   -2194571.52844  -1705107.02442  20915137.9474   20915133.4774
        57.0004         50.0004
  24242507.9914   -4483857.29643  -3429881.44842  24242511.3194   24242504.2754
        43.0004         36.0004
  22814064.2124   32278591.86243  25154096.03342  22814065.2084   22814059.7494
        52.0004         45.0004
  22478841.0144  -10426526.28943  -8103221.85742  22478843.5324   22478839.6824
        51.0004         44.0004
  22324187.8874    7577603.47443   5901977.21742  22324188.9834   22324184.8914
        52.0004         44.0004
  24119916.9884     860734.15943    690937.41742  24119917.4854   24119916.2674
        43.0004         36.0004
 05 10 14 19 56  0.0000000  0  8G 8G28G27G29G19G31G13G10
  20724046.1234   -5801182.67644  -4509582.81442  20724046.5144   20724042.4574
        57.0004         49.0004
  21221049.6984   -6880261.79644  -5356593.25442  21221051.3124   21221046.1854
        57.0004         49.0004
  20915334.4294   -2193528.23344  -1704294.06842  20915336.4634   20915332.0994
        57.0004         50.0004
  24224593.1294   -4577998.20543  -3503237.91942  24224593.9194   24224593.4434
        43.0004         36.0004
  22825477.0784   32338566.69943  25200829.65142  22825478.0034   22825472.6664
        52.0004         45.0004
  22458636.7384  -10532701.23243  -8185955.53342  22458638.6314   22458635.2144
        51.0004         44.0004
  22342813.6154    7675482.60343   5978246.62042  22342815.6754   22342811.0984
        52.0004         44.0004
  24127166.8064     898836.25643    720627.32642  24127167.7104   24127167.5374
        43.0004         37.0004
 05 10 14 19 56 30.0000000  0  8G 8G28G27G29G19G31G13G10
  20716842.7594   -5839037.23244  -4539079.86242  20716843.1294   20716838.7154
        57.0004         49.0004
  21214966.7964   -6912227.73444  -5381501.76542  21214968.3954   21214963.1404
        57.0004         49.0004
  20915579.3994   -2192240.98144  -1703291.01242  20915581.3664   20915577.0064
        57.0004         50.0004
  24206716.4314   -4671941.84843  -3576440.70442  24206719.9344   24206715.8494
        42.0004         37.0004
  22836978.1304   32399004.88343  25247924.31442  22836979.2984   22836973.7874
        52.0004         45.0004
  22438475.7304  -10638647.54743  -8268511.06142  22438477.6524   22438474.7444
        51.0004         44.0004
  22361495.8294    7773657.61743   6054746.59142  22361497.6494   22361493.6634
        52.0004         44.0004
  24134493.8684     937338.82343    750629.28842  24134495.8524   24134494.4414
        43.0004         36.0004
 05 10 14 19 57  0.0000000  0  8G 8G28G27G29G19G31G13G10
  20709680.8904   -5876673.50444  -4568406.82042  20709681.2344   20709676.8314
        57.0004         49.0004
  21208941.1604   -6943893.18644  -5406176.13142  21208943.1614   21208937.5114
        57.0004         49.0004
  20915871.6784   -2190705.10044  -1702094.22242  20915873.3524   20915869.3664
        57.0004         50.0004
  24188878.2994   -4765682.13543  -3649485.01542  24188881.2514   24188877.9794
        43.0004         36.0004
  22848567.6704   32459908.20043  25295381.42942  22848568.4144   22848562.5574
        52.0004         45.0004
  22418359.7064  -10744358.89843  -8350883.50642  22418361.4134   22418358.4764
        51.0004         44.0004
  22380234.3264    7872129.82643   6131478.14042  22380235.6464   22380231.3714
        53.0004         44.0004
  24141896.9804     976243.07343    780944.23342  24141899.4644   24141896.9414
        43.0004         36.0004
 05 10 14 19 57 30.0000000  0  8G 8G28G27G29G19G31G13G10
  20702560.6314   -5914090.69344  -4597563.05542  20702560.7864   20702556.6894
        57.0004         49.0004
  21202972.3954   -6975259.42744  -5430617.34842  21202973.9114   21202969.1394
        57.0004         50.0004
  20916211.6404   -2188919.90844  -1700703.15542  20916213.3204   20916208.8324
        57.0004         50.0004
  24171078.9594   -4859217.39143  -3722369.56742  24171081.0224   24171077.5344
        43.0004         37.0004
  22860245.2464   32521273.79643  25343198.75742  22860246.1094   22860240.8014
        51.0004         45.0004
  22398288.6014  -10849833.00343  -8433071.07642  22398290.1124   22398285.8284
        52.0004         44.0004
  22399029.3044    7970895.82643   6208438.60242  22399031.2484   22399025.8594
        53.0004         44.0004
  24149376.4644    1015546.06243    811569.91242  24149378.1184   24149375.1484
        42.0004         36.0004
 05 10 14 19 58  0.0000000  0  8G 8G28G27G29G19G31G13G10
  20695481.1764   -5951293.28944  -4626552.08242  20695481.5824   20695476.9634
        57.0004         50.0004
  21197059.4304   -7006332.48844  -5454830.11342  21197061.1914   21197055.6974
        57.0004         50.0004
  20916597.9484   -2186889.74244  -1699121.20442  20916599.6744   20916595.3394
        57.0004         50.0004
  24153318.3814   -4952550.40243  -3795096.52142  24153320.7134   24153317.6164
        43.0004         37.0004
  22872009.0794   32583094.25343  25391370.52642  22872011.1714   22872004.8064
        51.0004         45.0004
  22378261.9754  -10955072.54043  -8515075.87542  22378264.3604   22378260.9534
        52.0004         44.0004
  22417878.2764    8069947.76343   6285621.88942  22417880.7624   22417874.7134
        53.0004         44.0004
  24156930.0674    1055239.80643    842500.05542  24156930.3884   24156929.3654
        44.0004         36.0004
 05 10 14 19 58 30.0000000  0  8G 8G28G27G29G19G31G13G10
  20688444.1094   -5988273.49644  -4655367.82242  20688444.3904   20688439.8504
        57.0004         50.0004
  21191203.4954   -7037106.58044  -5478809.91742  21191204.8414   21191199.8474
        57.0004         50.0004
  20917032.4914   -2184607.03244  -1697342.46642  20917034.2254   20917029.6444
        57.0004         50.0004
  24135597.7804   -5045672.42443  -3867659.06242  24135598.8754   24135596.5514
        42.0004         37.0004
  22883860.3994   32645374.12643  25439900.28242  22883861.5524   22883856.9794
        51.0004         45.0004
  22358281.8754  -11060068.20043  -8596890.64842  22358283.4884   22358281.2054
        51.0004         44.0004
  22436782.1084    8169289.29143   6363030.82442  22436784.5334   22436779.7334
        53.0004         44.0004
  24164558.1704    1095328.38843    873737.86942  24164560.2794   24164559.2144
        43.0004         36.0004
 05 10 14 19 59  0.0000000  0  8G 8G28G27G29G19G31G13G10
  20681449.0524   -6025032.17944  -4684010.94042  20681449.6084   20681445.3004
        57.0004         50.0004
  21185403.5734   -7067584.30144  -5502558.77942  21185405.0994   21185399.7694
        57.0004         50.0004
  20917514.5874   -2182072.86844  -1695367.79142  20917516.5954   20917512.0224
        57.0004         50.0004
  24117916.8484   -5138582.99743  -3940056.83642  24117919.3134   24117914.1274
        42.0004         37.0004
  22895798.5464   32708108.88643  25488784.49942  22895799.7584   22895793.9314
        51.0004         44.0004
  22338348.8834  -11164819.20043  -8678514.77042  22338350.9154   22338347.0434
        51.0004         44.0004
  22455740.8014    8268916.38843   6440662.27942  22455742.8774   22455738.3784
        53.0004         44.0004
  24172260.9494    1135807.40243    905279.91442  24172260.6524   24172259.9674
        43.0004         36.0004
 05 10 14 19 59 30.0000000  0  8G 8G28G27G29G19G31G13G10
  20674496.5654   -6061567.74444  -4712480.19742  20674496.8794   20674492.7324
        57.0004         50.0004
  21179660.0614   -7097766.44644  -5526077.31542  21179661.4084   21179656.4974
        57.0004         50.0004
  20918044.8454   -2179286.28344  -1693196.42142  20918046.7574   20918042.4244
        57.0004         50.0004
  24100277.4124   -5231279.73243  -4012287.98942  24100279.9594   24100277.2824
        43.0004         37.0004
  22907822.8234   32771296.48843  25538021.58342  22907823.9764   22907818.0544
        51.0004         44.0004
  22318462.3404  -11269322.83643  -8759946.15242  22318464.4844   22318460.2144
        52.0004         44.0004
  22474753.0334    8368826.07043   6518513.93642  22474756.0034   22474751.0044
        53.0004         44.0004
  24180038.3124    1176674.30743    937124.19542  24180037.5104   24180036.4504
        43.0004         36.0004
 05 10 14 20  0  0.0000000  0  8G 8G28G27G29G19G31G13G10
  20667586.1324   -6097881.88844  -4740776.91742  20667586.6984   20667582.2134
        57.0004         50.0004
  21173972.2064   -7127655.79144  -5549367.69842  21173974.0064   21173968.7284
        57.0004         50.0004
  20918622.9734   -2176247.88144  -1690828.83342  20918624.8124   20918620.4064
        57.0004         50.0004
  24082678.6594   -5323762.47243  -4084352.38442  24082682.2434   24082677.9544
        42.0004         37.0004
  22919931.9834   32834932.61543  25587608.17342  22919933.1514   22919927.4124
        51.0004         44.0004
  22298622.8814  -11373578.35643  -8841184.18442  22298624.9714   22298620.9194
        52.0004         45.0004
  22493818.2194    8469013.64843   6596582.13542  22493820.3124   22493815.3104
        53.0004         44.0004
  24187887.7884    1217924.43543    969267.08542  24187888.3624   24187885.8364
        44.0004         36.0004
 05 10 14 20  0 30.0000000  0  8G 8G28G27G29G19G31G13G10
  20660719.2864   -6133967.87944  -4768895.86142  20660719.4604   20660714.9834
        57.0004         50.0004
  21168341.1034   -7157248.20944  -5572426.71342  21168342.7194   21168337.3674
        57.0004         50.0004
  20919250.0644   -2172951.82544  -1688260.47542  20919251.9594   20919247.5404
        57.0004         50.0004
  24065121.9914   -5416024.01043  -4156244.40342  24065121.9994   24065121.2904
        43.0004         37.0004
  22932127.5164   32899019.65043  25637546.12042  22932128.9894   22932123.1254
        51.0004         44.0004
  22278832.3574  -11477578.14743  -8922222.94442  22278834.0014   22278830.9404
        52.0004         45.0004
  22512936.3334    8569481.38143   6674868.63842  22512938.7654   22512934.8404
        53.0004         44.0004
  24195811.0354    1259560.01043   1001710.36042  24195811.9464   24195810.3814
        45.0004         37.0004
 05 10 14 20  1  0.0000000  0  9G 8G28G27G29G19G31G 7G13G10
  20653895.0114   -6169829.99944  -4796840.36142  20653895.3744   20653890.8104
        57.0004         50.0004
  21162764.9744   -7186549.68944  -5595259.02042  21162766.7214   21162761.6324
        57.0004         49.0004
  20919925.5924   -2169402.28644  -1685494.59942  20919927.3944   20919923.0654
        57.0004         50.0004
  24047606.7954   -5508067.14543  -4227966.24242  24047608.3534   24047606.5314
        43.0004         37.0004
  22944407.4574   32963550.30943  25687829.73442  22944408.4644   22944403.2804
        51.0004         44.0004
  22259090.1584  -11581324.97943  -9003064.59642  22259092.1534   22259088.1584
        52.0004         45.0004
  23941756.7344   -6223809.62953  -4798315.40152  23941757.9364   23941756.7224
        45.0004         38.0004
  22532106.4014    8670221.46743   6753367.36442  22532109.0964   22532104.0884
        53.0004         44.0004
  24203805.6554    1301573.21843   1034447.86742  24203806.3824   24203805.4184
        44.0004         37.0004
 05 10 14 20  1 30.0000000  0  9G 8G28G27G29G19G31G 7G13G10
  20647114.0974   -6205463.49544  -4824606.70842  20647114.4134   20647109.9904
        57.0004         50.0004
  21157244.9444   -7215557.62944  -5617862.58442  21157246.6634   21157241.2134
        57.0004         49.0004
  20920650.1984   -2165594.60544  -1682527.57142  20920651.9074   20920647.4654
        57.0004         50.0004
  24030133.9654   -5599885.77343  -4299513.15642  24030137.3194   24030133.9444
        43.0004         37.0004
  22956771.9644   33028526.25443  25738460.34342  22956773.7544   22956768.1314
        51.0004         44.0004
  22239397.1324  -11684812.38443  -9083704.09942  22239398.7674   22239395.3894
        52.0004         45.0004
  23921892.4784   -6328195.84443  -4879655.20142  23921894.6154   23921894.4734
        45.0004         38.0004
  22551328.8864    8771235.01943   6832079.17842  22551331.0564   22551325.7934
        52.0004         44.0004
  24211872.6764    1343965.38843   1067480.67142  24211874.4314   24211873.6364
        45.0004         37.0004
 05 10 14 20  2  0.0000000  0  9G 8G28G27G29G19G31G 7G13G10
  20640377.4114   -6240865.38644  -4852192.58942  20640377.9654   20640373.5214
        57.0004         50.0004
  21151781.0834   -7244270.59644  -5640236.30542  21151782.5374   21151777.6154
        57.0004         49.0004
  20921424.3614   -2161526.38144  -1679357.52742  20921426.2674   20921421.6724
        57.0004         50.0004
  24012705.1134   -5691475.92343  -4370882.01942  24012706.5704   24012703.5494
        43.0004         37.0004
  22969220.9994   33093946.77143  25789437.36142  22969222.0584   22969217.2554
        51.0004         44.0004
  22219754.3334  -11788035.97443  -9164138.01642  22219755.2144   22219752.7654
        52.0004         45.0004
  23902045.8324   -6432489.22543  -4960922.65242  23902046.6094   23902045.7974
        45.0004         39.0004
  22570603.1774    8872521.07643   6911003.32142  22570605.7384   22570600.9984
        52.0004         43.0004
  24220011.8934    1386735.51143   1100807.96442  24220013.3104   24220012.0934
        44.0004         37.0004
 05 10 14 20  2 30.0000000  0  9G 8G28G27G29G19G31G 7G13G10
  20633684.2614   -6276038.35244  -4879600.08742  20633684.1274   20633679.9474
        57.0004         50.0004
  21146372.3824   -7272693.46444  -5662383.97742  21146373.6204   21146368.7934
        57.0004         49.0004
  20922247.5104   -2157200.24944  -1675986.51542  20922249.0434   20922244.9584
        57.0004         50.0004
  23995319.4224   -5782839.19143  -4442074.12142  23995320.5474   23995316.8104
        43.0004         37.0004
  22981753.6314   33159805.49143  25840755.83442  22981754.8104   22981750.0734
        50.0004         44.0004
  22200161.5574  -11890996.94343  -9244367.30142  22200163.1204   22200160.1964
        52.0004         45.0004
  23882216.6964   -6536691.47643  -5042119.07842  23882216.7774   23882218.0854
        46.0004         38.0004
  22589927.4054    8974072.94543   6990134.59142  22589928.8454   22589926.4704
        52.0004         43.0004
  24228220.9294    1429877.06643   1134424.72242  24228222.4794   24228221.2124
        45.0004         37.0004
 05 10 14 20  3  0.0000000  0  9G 8G28G27G29G19G31G 7G13G10
  20627035.2744   -6310977.93744  -4906825.72342  20627035.5144   20627031.5254
        57.0004         50.0004
  21141019.3434   -7300823.84544  -5684303.73842  21141020.8684   21141016.0444
        57.0004         49.0004
  20923120.4984   -2152612.22344  -1672411.43042  20923122.6924   20923118.0374
        57.0004         50.0004
  23977977.7274   -5873970.19843  -4513085.24242  23977980.2384   23977976.6284
        43.0004         37.0004
  22994369.6984   33226103.22643  25892416.39342  22994370.1254   22994364.5144
        50.0004         44.0004
  22180619.6934  -11993689.60643  -9324387.50642  22180621.3184   22180617.5684
        52.0004         45.0004
  23862406.1244   -6640797.33543  -5123240.37442  23862407.5014   23862405.7234
        45.0004         38.0004
  22609302.8554    9075890.89643   7069473.20942  22609305.3784   22609301.0664
        52.0004         43.0004
  24236501.6514    1473390.37243   1168331.13742  24236501.7374   24236504.7304
        44.0004         36.0004
 05 10 14 20  3 30.0000000  0  9G 8G28G27G29G19G31G 7G13G10
  20620431.0614   -6345684.14944  -4933869.51242  20620431.2674   20620426.7074
        57.0004         50.0004
  21135721.3494   -7328664.19843  -5705997.49542  21135722.9124   21135717.6524
        56.0004         49.0004
  20924043.5964   -2147762.41844  -1668632.35942  20924045.3054   20924041.0264
        57.0004         50.0004
  23960680.1684   -5964867.69043  -4583914.39142  23960682.2164   23960678.3684
        44.0004         37.0004
  23007068.7274   33292836.20343  25944416.09242  23007068.8434   23007063.2664
        50.0004         44.0004
  22161129.4244  -12096112.55543  -9404197.54542  22161130.6544   22161126.4114
        52.0004         45.0004
  23842613.5364   -6744805.84443  -5204285.82842  23842616.0504   23842613.7254
        45.0004         39.0004
  22628727.9764    9177971.10743   7149016.18642  22628730.3234   22628725.9294
        51.0004         43.0004
  24244852.4044    1517271.49443   1202524.18542  24244851.4844   24244851.3224
        44.0004         37.0004
 05 10 14 20  4  0.0000000  0  9G 8G28G27G29G19G31G 7G13G10
  20613871.2434   -6380155.82144  -4960730.54442  20613871.5694   20613866.8804
        57.0004         50.0004
  21130478.6774   -7356214.62544  -5727465.34042  21130480.3894   21130475.0934
        57.0004         49.0004
  20925016.7534   -2142649.50744  -1664648.27542  20925018.5764   20925013.6694
        57.0004         50.0004
  23943427.8124   -6055529.19643  -4654559.67342  23943429.5904   23943426.8984
        44.0004         37.0004
  23019850.0634   33360002.73443  25996753.63042  23019850.9714   23019846.2854
        50.0004         43.0004
  22141690.5674  -12198262.86243  -9483795.13842  22141692.4594   22141688.5074
        52.0004         45.0004
  23822840.6164   -6848714.68843  -5285253.61642  23822842.0274   23822841.1214
        46.0004         39.0004
  22648202.9474    9280310.92243   7228761.43042  22648205.4814   22648198.7874
        51.0004         43.0004
  24253271.9394    1561517.91843   1237001.85542  24253272.6004   24253272.4224
        43.0004         37.0004
 05 10 14 20  4 30.0000000  0  9G 8G28G27G29G19G31G 7G13G10
  20607356.7084   -6414390.51944  -4987406.92742  20607357.1074   20607352.5334
        57.0004         50.0004
  21125291.3944   -7383474.69443  -5748706.93542  21125293.1294   21125287.8104
        56.0004         49.0004
  20926040.0324   -2137271.35844  -1660457.51642  20926042.2244   20926037.2974
        57.0004         50.0004
  23926220.8914   -6145950.97243  -4725018.15242  23926221.1434   23926218.3814
        44.0004         37.0004
  23032713.5814   33427601.62143  26049428.05842  23032715.3584   23032709.5174
        50.0004         43.0004
  22122304.4674  -12300136.54543  -9563177.17042  22122306.2814   22122302.8814
        52.0004         45.0004
  23803087.0314   -6952520.06843  -5366140.77042  23803088.3194   23803086.5374
        47.0004         39.0004
  22667726.5484    9382909.54043   7308708.34742  22667728.6694   22667725.2684
        51.0004         43.0004
  24261760.7724    1606128.60143   1271763.38842  24261762.5724   24261761.6004
        43.0004         37.0004
 05 10 14 20  5  0.0000000  0  9G 8G28G27G29G19G31G 7G13G10
  20600887.0094   -6448388.53544  -5013898.87742  20600887.3974   20600882.9424
        57.0004         50.0004
  21120158.8144   -7410446.77743  -5769724.12342  21120160.4484   21120155.0894
        56.0004         49.0004
  20927113.7974   -2131628.25844  -1656060.29942  20927115.5744   20927111.2384
        57.0004         50.0004
  23909059.5494   -6236132.22343  -4795289.20242  23909060.9154   23909058.7424
        43.0004         37.0004
  23045658.9984   33495628.93243  26102436.32842  23045661.4374   23045654.2684
        50.0004         44.0004
  22102971.4314  -12401732.33343  -9642342.67542  22102973.4494   22102969.7324
        52.0004         45.0004
  23783353.0714   -7056221.36043  -5446946.82842  23783353.9394   23783352.6824
        46.0004         39.0004
  22687299.1034    9485762.48343   7388853.44642  22687300.8464   22687297.1034
        51.0004         43.0004
  24270318.3234    1651099.47143   1306805.57442  24270319.0414   24270318.9794
        44.0004         37.0004
 05 10 14 20  5 30.0000000  0  9G 8G28G27G29G19G31G 7G13G10
  20594462.6784   -6482148.27444  -5040205.15942  20594463.1364   20594459.0884
        57.0004         50.0004
  21115080.6924   -7437131.73443  -5790517.58242  21115082.4694   21115076.7064
        56.0004         49.0004
  20928238.2774   -2125719.32144  -1651455.93542  20928240.0634   20928235.6434
        57.0004         50.0004
  23891945.0914   -6326070.49143  -4865370.91442  23891947.2664   23891944.2014
        43.0004         37.0004
  23058685.5674   33564082.23243  26155776.53042  23058685.3874   23058680.1114
        50.0004         43.0004
  22083691.4574  -12503047.87243  -9721289.79742  22083693.2294   22083689.9634
        52.0004         45.0004
  23763639.3454   -7159816.60743  -5527670.25242  23763641.0344   23763637.7754
        46.0004         39.0004
  22706919.1214    9588867.02343   7469194.59442  22706921.2874   22706917.0584
        51.0004         43.0004
  24278944.0184    1696427.45843   1342126.03542  24278946.3204   24278945.0244
        44.0004         37.0004
 05 10 14 20  6  0.0000000  0  9G 8G28G27G29G19G31G 7G13G10
  20588084.2714   -6515666.67844  -5066323.38442  20588084.6924   20588080.8584
        57.0004         50.0004
  21110057.6644   -7463527.98643  -5811086.07542  21110059.5154   21110054.1254
        56.0004         49.0004
  20929413.9054   -2119541.24644  -1646641.85342  20929415.6694   20929411.1354
        57.0004         50.0004
  23874877.2674   -6415761.45143  -4935259.90642  23874878.5334   23874875.2604
        43.0004         37.0004
  23071792.8384   33632961.29143  26209448.50142  23071794.2124   23071787.7754
        51.0004         43.0004
  22064466.5004  -12604078.07543  -9800014.58542  22064467.9284   22064464.9364
        52.0004         45.0004
  23743946.6884   -7263301.29143  -5608307.52542  23743947.4544   23743947.1234
        46.0004         39.0004
  22726586.8334    9692222.77843   7549731.48642  22726589.2414   22726584.9314
        51.0004         42.0004
  24287637.9954    1742112.39643   1377724.63842  24287638.9354   24287638.7604
        44.0004         37.0004
 05 10 14 20  6 30.0000000  0  9G 8G28G27G29G19G31G 7G13G10
  20581752.3964   -6548940.91844  -5092251.35642  20581752.6004   20581748.7064
        57.0004         50.0004
  21105089.7044   -7489634.96743  -5831429.15742  21105091.7294   21105085.9214
        56.0004         49.0004
  20930641.2864   -2113091.35744  -1641615.97142  20930642.9274   20930638.4404
        57.0004         50.0004
  23857857.0134   -6505200.91443  -5004952.93442  23857860.5514   23857856.4724
        44.0004         37.0004
  23084980.9694   33702265.91443  26263452.07442  23084982.3554   23084976.0774
        50.0004         43.0004
  22045296.3914  -12704818.59043  -9878513.64542  22045297.6734   22045294.1004
        53.0004         46.0004
  23724275.7374   -7366671.56043  -5688855.65642  23724277.7364   23724276.1404
        46.0004         39.0004
  22746302.3214    9795828.36843   7630463.06042  22746304.2264   22746299.3614
        51.0004         42.0004
  24296399.1844    1788153.10843   1413600.46242  24296401.0454   24296400.1034
        45.0004         38.0004
 05 10 14 20  7  0.0000000  0  8G 8G28G27G29G19G31G 7G13
  20575466.9474   -6581971.37644  -5117989.36542  20575467.4784   20575462.8334
        57.0004         50.0004
  21100176.1854   -7515455.21543  -5851548.81642  21100178.0994   21100172.3494
        56.0004         49.0004
  20931920.2174   -2106370.48444  -1636378.92942  20931922.0414   20931917.5794
        57.0004         50.0004
  23840885.8024   -6594388.31843  -5074449.56642  23840886.4764   23840884.3744
        44.0004         37.0004
  23098249.5544   33771991.31543  26317783.51942  23098251.6584   23098243.8794
        50.0004         43.0004
  22026181.0884  -12805268.61043  -9956786.34542  22026182.6474   22026178.6704
        53.0004         46.0004
  23704626.8884   -7469927.07943  -5769314.37342  23704628.5994   23704624.8324
        46.0004         39.0004
  22766064.6874    9899679.58943   7711386.03342  22766066.9804   22766061.5434
        51.0004         42.0004
 05 10 14 20  7 30.0000000  0  8G 8G28G27G29G19G31G 7G13
  20569227.1834   -6614762.25644  -5143540.69442  20569227.6974   20569222.9584
        58.0004         50.0004
  21095316.1864   -7540994.90643  -5871449.85942  21095317.7304   21095312.0784
        56.0004         49.0004
  20933250.0444   -2099382.79044  -1630933.97642  20933251.6784   20933247.5074
        57.0004         50.0004
  23823961.8894   -6683326.81743  -5143752.24342  23823963.5644   23823960.8464
        44.0004         37.0004
  23111596.2154   33842129.72543  26372436.78842  23111596.9654   23111590.9064
        50.0004         43.0004
  22007120.8884  -12905430.77443 -10034834.74442  22007122.3434   22007118.9504
        53.0004         46.0004
  23684998.8824   -7573070.92143  -5849686.08142  23685000.4604   23684999.3824
        46.0004         39.0004
  22785871.9764   10003768.07543   7792493.88642  22785874.1134   22785870.8004
        50.0004         42.0004
 05 10 14 20  8  0.0000000  0  8G 8G28G27G29G19G31G 7G13
  20563034.4744   -6647304.35244  -5168898.16242  20563034.8534   20563030.4174
        58.0004         50.0004
  21090510.9044   -7566246.72143  -5891126.58342  21090512.8684   21090506.8724
        56.0004         49.0004
  20934632.4374   -2092118.94944  -1625273.84542  20934633.7474   20934629.5524
        57.0004         50.0004
  23807086.6834   -6772005.76843  -5212852.66342  23807090.0134   23807085.2734
        45.0004         37.0004
  23125022.4434   33912687.28143  26427416.67142  23125024.2264   23125018.7114
        50.0004         43.0004
  21988117.1954  -13005294.28743 -10112650.42942  21988119.7884   21988115.2074
        53.0004         45.0004
  23665395.0034   -7676092.68043  -5929962.66742  23665395.6374   23665394.4404
        46.0004         39.0004
  22805725.7794   10108099.27343   7873790.86342  22805727.2264   22805722.8884
        50.0004         42.0004
 05 10 14 20  8 30.0000000  0  8G 8G28G27G29G19G31G 7G13
  20556889.5864   -6679596.57144  -5194060.92342  20556889.7804   20556885.5914
        58.0004         50.0004
  21085760.4174   -7591211.90743  -5910579.96142  21085761.7644   21085756.6714
        56.0004         49.0004
  20936066.8994   -2084579.07244  -1619398.62142  20936068.3174   20936064.4884
        57.0004         50.0004
  23790261.0144   -6860423.23643  -5281749.35242  23790262.4184   23790259.0974
        45.0004         38.0004
  23138528.6714   33983660.97143  26482720.79742  23138528.8484   23138523.6984
        50.0004         43.0004
  21969171.2864  -13104857.05643 -10190231.76342  21969172.2414   21969169.1174
        53.0004         46.0004
  23645814.2514   -7778990.67743  -6010142.83142  23645815.0964   23645813.6504
        46.0004         39.0004
  22825625.3314   10212670.18243   7955274.64042  22825626.4064   22825621.6984
        50.0004         42.0004
 05 10 14 20  9  0.0000000  0  8G 8G28G27G29G19G31G 7G13
  20550790.8664   -6711645.20644  -5219033.88042  20550791.4464   20550786.9934
        58.0004         50.0004
  21081062.5804   -7615898.73643  -5929816.44242  21081064.4804   21081058.6144
        56.0004         49.0004
  20937553.0264   -2076769.35944  -1613313.13742  20937555.0044   20937550.5824
        57.0004         50.0004
  23773484.4914   -6948584.31043  -5350446.24242  23773486.7774   23773482.5234
        45.0004         38.0004
  23152111.8224   34055040.56443  26538341.23742  23152111.8494   23152106.9024
        50.0004         43.0004
  21950281.3444  -13204123.88943 -10267582.50642  21950283.5094   21950278.8774
        53.0004         46.0004
  23626256.5244   -7881770.21243  -6090230.69842  23626257.2754   23626254.5494
        46.0004         39.0004
  22845568.1244   10317470.77243   8036937.37442  22845570.2574   22845566.2614
        51.0004         42.0004
 05 10 14 20  9 30.0000000  0  8G 8G28G27G29G19G31G 7G13
  20544740.6654   -6743439.22044  -5243808.43642  20544740.9744   20544736.6084
        57.0004         50.0004
  21076419.3694   -7640298.20843  -5948829.00542  21076421.1864   21076415.4774
        56.0004         49.0004
  20939092.6584   -2068678.63744  -1607008.68242  20939094.3654   20939090.2794
        57.0004         50.0004
  23756758.9054   -7036476.94243  -5418933.96142  23756761.5844   23756758.8364
        45.0004         38.0004
  23165773.4244   34126833.76843  26594283.95742  23165775.5234   23165768.8464
        50.0004         43.0004
  21931449.8064  -13303082.47243 -10344693.06042  21931451.7644   21931448.1344
        53.0004         46.0004
  23606722.2524   -7984419.10743  -6170216.77342  23606722.9794   23606721.5404
        46.0004         40.0004
  22865556.2244   10422508.03543   8118784.52742  22865558.7694   22865553.8794
        51.0004         42.0004
 05 10 14 20 10  0.0000000  0  8G 8G28G27G29G19G31G 7G13
  20538737.5264   -6774985.55244  -5268389.98842  20538737.5764   20538733.4824
        57.0004         50.0004
  21071829.2604   -7664419.68243  -5967624.94042  21071830.8614   21071825.3184
        56.0004         49.0004
  20940684.4904   -2060314.32544  -1600491.03842  20940685.9674   20940681.8194
        57.0004         50.0004
  23740083.3854   -7124106.84443  -5487216.93942  23740085.3404   23740081.7124
        46.0004         37.0004
  23179511.9474   34199029.80743  26650540.58042  23179513.3514   23179507.6974
        50.0004         43.0004
  21912676.5334  -13401738.28143 -10421567.68542  21912678.1644   21912674.7014
        53.0004         46.0004
  23587212.2594   -8086943.61143  -6250105.92042  23587212.3434   23587212.5844
        46.0004         39.0004
  22885586.6524   10527770.85043   8200807.44942  22885590.1884   22885585.0504
        50.0004         42.0004
 05 10 14 20 10 30.0000000  0  8G 8G28G27G29G19G31G 7G13
  20532783.1694   -6806275.28244  -5292771.58942  20532783.5674   20532779.3004
        57.0004         50.0004
  21067293.1914   -7688256.02643  -5986198.70142  21067294.6084   21067289.4294
        56.0004         49.0004
  20942329.7434   -2051667.92244  -1593753.58742  20942331.4944   20942327.1424
        57.0004         50.0004
  23723460.2134   -7211464.07143  -5555287.44842  23723461.2644   23723459.2204
        46.0004         38.0004
  23193328.0194   34271633.75643  26707115.06242  23193329.8624   23193324.9464
        50.0004         43.0004
  21893962.5064  -13500081.02043 -10498198.35842  21893963.8324   21893960.0684
        53.0004         46.0004
  23567728.2794   -8189333.81543  -6329890.43342  23567728.8004   23567726.4124
        46.0004         40.0004
  22905661.2264   10633264.16043   8283009.97442  22905662.8964   22905660.3164
        50.0004         42.0004
 05 10 14 20 11  0.0000000  0  8G 8G28G27G29G19G31G 7G13
  20526877.0644   -6837311.90644  -5316955.96442  20526877.2194   20526873.2854
        57.0004         50.0004
  21062810.6254   -7711813.01744  -6004554.78342  21062812.5894   21062806.7274
        57.0004         49.0004
  20944027.9774   -2042743.19843  -1586799.25542  20944029.9134   20944025.3224
        56.0004         50.0004
  23706888.3224   -7298551.27643  -5623147.55442  23706892.2464   23706886.7284
        45.0004         38.0004
  23207220.4544   34344638.30643  26764001.68342  23207221.5584   23207215.2284
        48.0004         42.0004
  21875307.7244  -13598112.96843 -10574586.84842  21875309.2544   21875304.9364
        54.0004         46.0004
  23548268.9514   -8291592.38943  -6409572.38042  23548271.1974   23548268.0544
        47.0004         40.0004
  22925779.1294   10738980.36843   8365386.19342  22925780.5014   22925777.2074
        50.0004         42.0004
 05 10 14 20 11 30.0000000  0  8G 8G28G27G29G19G31G 7G13
  20521019.9954   -6868091.85944  -5340940.33642  20521020.2164   20521016.0084
        57.0004         50.0004
  21058381.0634   -7735089.01543  -6022691.90742  21058382.8394   21058377.1844
        56.0004         49.0004
  20945779.9534   -2033536.58144  -1579625.27142  20945781.9114   20945777.6914
        57.0004         50.0004
  23690368.1704   -7385363.45843  -5690793.36342  23690370.3934   23690366.7184
        46.0004         38.0004
  23221188.9734   34418043.53743  26821200.55242  23221188.9784   23221181.9524
        49.0004         43.0004
  21856712.8794  -13695828.84243 -10650729.05442  21856714.8244   21856710.9634
        53.0004         46.0004
  23528835.6264   -8393714.54243  -6489148.04142  23528838.4484   23528836.2484
        47.0004         40.0004
  22945938.9294   10844919.51743   8447936.10342  22945941.2244   22945936.8684
        50.0004         42.0004
 05 10 14 20 12  0.0000000  0  8G 8G28G27G29G19G31G 7G13
  20515212.0094   -6898613.72244  -5364723.60042  20515212.1164   20515207.9764
        57.0004         50.0004
  21054005.1914   -7758084.83443  -6040610.71042  21054006.7454   21054001.4004
        56.0004         49.0004
  20947585.7854   -2024047.34543  -1572231.06442  20947587.8174   20947583.3564
        56.0004         50.0004
  23673900.9844   -7471898.11643  -5758222.90442  23673902.7194   23673899.7864
        45.0004         38.0004
  23235233.1744   34491847.07143  26878709.77642  23235233.9054   23235229.0124
        49.0004         43.0004
  21838178.6864  -13793226.23443 -10726623.09842  21838180.2754   21838177.1774
        53.0004         46.0004
  23509428.7394   -8495698.18043  -6568615.76042  23509430.3674   23509429.0294
        47.0004         40.0004
  22966140.2024   10951078.45043   8530657.30642  22966141.1494   22966137.8084
        50.0004         42.0004
 05 10 14 20 12 30.0000000  0  9G 8G28G27G29G19G31G 7G11G13
  20509452.1534   -6928881.19544  -5388308.63442  20509452.4394   20509448.3774
        58.0004         50.0004
  21049681.3224   -7780806.48443  -6058315.87242  21049683.1774   21049677.8334
        56.0004         49.0004
  20949444.6494   -2014279.21144  -1564619.53342  20949446.2894   20949442.0414
        57.0004         50.0004
  23657486.5234   -7558158.04643  -5825438.37242  23657489.3404   23657485.1784
        45.0004         38.0004
  23249351.9124   34566041.44143  26936523.53542  23249352.9754   23249347.8764
        48.0004         42.0004
  21819704.8304  -13890307.30543 -10802270.64842  21819705.9964   21819703.1454
        54.0004         46.0004
  23490047.6624   -8597545.98943  -6647977.64942  23490050.4074   23490045.8514
        48.0004         40.0004
  23970743.3244   -6910897.10953  -5168815.39252  23970745.0624   23970741.9804
        45.0004         38.0004
  22986382.0174   11057449.61943   8613543.86942  22986385.0084   22986380.7934
        50.0004         42.0004
 05 10 14 20 13  0.0000000  0  9G 8G28G27G29G19G31G 7G11G13
  20503742.7784   -6958883.92844  -5411687.37642  20503742.9874   20503738.9444
        57.0004         50.0004
  21045411.4114   -7803245.72243  -6075800.97242  21045412.8534   21045407.7484
        56.0004         49.0004
  20951358.5164   -2004222.07544  -1556782.80542  20951360.2264   20951355.9024
        57.0004         50.0004
  23641125.7504   -7644131.68343  -5892430.75642  23641128.2784   23641124.9194
        45.0004         38.0004
  23263546.4014   34640633.19643  26994646.95442  23263547.7774   23263541.3814
        48.0004         42.0004
  21801293.0354  -13987060.31543 -10877662.56142  21801295.1564   21801291.5024
        53.0004         46.0004
  23470694.8684   -8699246.68543  -6727224.90242  23470696.8234   23470695.1674
        47.0004         40.0004
  23960395.0404   -6965277.83743  -5211189.94142  23960394.6304   23960393.6774
        45.0004         38.0004
  23006665.2124   11164039.58943   8696600.93742  23006667.3244   23006663.0414
        51.0004         42.0004
 05 10 14 20 13 30.0000000  0  9G 8G28G27G29G19G31G 7G11G13
  20498083.2714   -6988625.57544  -5434862.67342  20498083.7424   20498079.2084
        57.0004         50.0004
  21041194.0854   -7825408.13443  -6093070.36442  21041195.8564   21041190.3014
        56.0004         49.0004
  20953326.5844   -1993879.43844  -1548723.61042  20953328.5064   20953324.1444
        57.0004         50.0004
  23624819.6734   -7729821.56943  -5959202.04342  23624821.7734   23624819.6684
        45.0004         38.0004
  23277815.3244   34715614.90143  27053074.23042  23277815.6744   23277810.7844
        48.0004         42.0004
  21782943.8954  -14083487.54443 -10952800.62542  21782945.5504   21782941.9664
        54.0004         46.0004
  23451369.1404   -8800802.91043  -6806359.59942  23451370.3154   23451367.9474
        48.0004         41.0004
  23950090.5084   -7019427.93643  -5253384.80042  23950090.6604   23950088.5654
        46.0004         38.0004
  23026989.1244   11270840.58443   8779822.42242  23026990.8544   23026987.3964
        50.0004         42.0004
 05 10 14 20 14  0.0000000  0  9G 8G28G27G29G19G31G 7G11G13
  20492473.4194   -7018105.50844  -5457834.04142  20492473.7534   20492469.4344
        58.0004         50.0004
  21037029.0634   -7847295.30243  -6110125.28142  21037030.5744   21037025.5624
        56.0004         49.0004
  20955348.9994   -1983251.36444  -1540441.99742  20955350.8294   20955346.5724
        57.0004         50.0004
  23608567.6174   -7815225.99143  -6025750.88242  23608570.1634   23608564.8184
        46.0004         39.0004
  23292156.8994   34790983.32343  27111802.84742  23292157.6984   23292152.4374
        48.0004         42.0004
  21764656.6604  -14179587.17343 -11027683.41242  21764658.8444   21764654.5264
        54.0004         46.0004
  23432071.0414   -8902213.20243  -6885380.56842  23432072.7804   23432070.9904
        48.0004         40.0004
  23939830.0944   -7073345.87443  -5295398.74042  23939830.6524   23939829.2244
        45.0004         38.0004
  23047352.4624   11377849.07443   8863205.58742  23047354.7634   23047351.1554
        50.0004         41.0004
 05 10 14 20 14 30.0000000  0  9G 8G28G27G29G19G31G 7G11G13
  20486913.8754   -7047320.63844  -5480599.07042  20486914.2014   20486909.9344
        57.0004         50.0004
  21032916.6204   -7868906.52744  -6126965.18242  21032918.1714   21032912.6724
        57.0004         49.0004
  20957426.1074   -1972335.37844  -1531936.03942  20957428.0754   20957423.9444
        57.0004         50.0004
  23592371.0214   -7900340.94643  -6092074.17942  23592373.6154   23592369.8254
        46.0004         39.0004
  23306572.8114   34866737.95243  27170832.39742  23306573.3144   23306567.5164
        48.0004         42.0004
  21746432.4894  -14275354.85643 -11102307.54842  21746434.3514   21746430.5414
        53.0004         46.0004
  23412802.2914   -9003473.59443  -6964284.73842  23412803.5194   23412803.3724
        48.0004         40.0004
  23929615.3244   -7127027.06343  -5337228.19842  23929615.5534   23929615.6274
        46.0004         38.0004
  23067754.7184   11485064.05343   8946749.67142  23067756.1564   23067750.8594
        50.0004         41.0004
 05 10 14 20 15  0.0000000  0  9G 8G28G27G29G19G31G 7G11G13
  20481405.8744   -7076265.57544  -5503153.55542  20481406.1524   20481401.9544
        57.0004         50.0004
  21028857.3874   -7890238.06344  -6143587.13542  21028858.8494   21028853.8004
        57.0004         50.0004
  20959559.4334   -1961125.93044  -1523201.40842  20959561.2804   20959556.7174
        57.0004         50.0004
  23576230.3294   -7985159.53143  -6158166.52942  23576232.2954   23576228.9414
        47.0004         39.0004
  23321061.9194   34942880.38343  27230164.11942  23321063.1914   23321055.4144
        48.0004         42.0004
  21728273.0734  -14370783.56743 -11176667.54342  21728274.6954   21728271.2714
        54.0004         46.0004
  23393562.9314   -9104577.56843  -7043067.02142  23393562.9434   23393560.7994
        48.0004         41.0004
  23919445.3594   -7180464.63643  -5378867.80642  23919446.4514   23919446.0724
        46.0004         38.0004
  23088196.5004   11592487.38643   9030456.10542  23088198.0174   23088195.0284
        49.0004         41.0004
 05 10 14 20 15 30.0000000  0  9G 8G28G27G29G19G31G 7G11G13
  20475947.9914   -7104947.20944  -5525502.86842  20475948.1854   20475943.7554
        58.0004         50.0004
  21024849.4944   -7911299.71744  -6159998.79642  21024851.0064   21024845.6874
        57.0004         50.0004
  20961746.9174   -1949630.48144  -1514243.91542  20961748.7004   20961744.4014
        57.0004         50.0004
  23560145.2144   -8069688.10543  -6224032.91242  23560146.2244   23560143.6834
        47.0004         39.0004
  23335622.9984   35019399.31943  27289789.24742  23335624.9554   23335618.6154
        48.0004         42.0004
  21710176.7394  -14465879.39543 -11250768.15042  21710178.1204   21710174.4794
        53.0004         46.0004
  23374352.1134   -9205531.49843  -7121732.37742  23374352.9954   23374352.0064
        48.0004         41.0004
  23909321.8134   -7233664.56343  -5420322.27742  23909323.7784   23909319.5684
        45.0004         38.0004
  23108675.6984   11700107.63643   9114315.98442  23108677.1164   23108674.6064
        49.0004         41.0004
 05 10 14 20 16  0.0000000  0  9G 8G28G27G29G19G31G 7G11G13
  20470541.4304   -7133358.52044  -5547641.54342  20470541.9474   20470537.2254
        57.0004         50.0004
  21020893.7574   -7932086.12143  -6176195.97242  21020895.2034   21020890.0944
        56.0004         50.0004
  20963989.9824   -1937842.53544  -1505058.50242  20963991.8574   20963987.2024
        57.0004         50.0004
  23544116.8864   -8153918.37543  -6289666.87442  23544119.5514   23544113.8984
        47.0004         39.0004
  23350256.5504   35096298.54543  27349710.69242  23350258.2454   23350250.5214
        48.0004         42.0004
  21692145.5014  -14560633.94343 -11324602.83242  21692147.4544   21692143.6484
        54.0004         46.0004
  23355171.1394   -9306327.36743  -7200274.56442  23355172.8524   23355171.3394
        48.0004         41.0004
  23899244.9304   -7286618.56043  -5461585.08642  23899247.8054   23899244.7104
        45.0004         38.0004
  23129192.9964   11807927.83143   9198331.65142  23129194.7814   23129190.5494
        49.0004         41.0004
 05 10 14 20 16 30.0000000  0  9G 8G28G27G29G19G31G 7G11G13
  20465186.0414   -7161500.93844  -5569570.69242  20465186.3744   20465182.0924
        57.0004         50.0004
  21016989.9104   -7952601.38344  -6192181.87742  21016991.5774   21016985.9844
        57.0004         50.0004
  20966288.5814   -1925763.66344  -1495646.39742  20966290.4554   20966285.8544
        57.0004         50.0004
  23528144.8924   -8237851.00243  -6355068.88142  23528145.6044   23528142.6984
        47.0004         40.0004
  23364961.6694   35173572.43143  27409924.08142  23364962.9564   23364957.2544
        47.0004         42.0004
  21674179.3574  -14655047.38743 -11398171.71842  21674181.4324   21674176.9834
        54.0004         47.0004
  23336020.2254   -9406965.61843  -7278693.94242  23336021.5154   23336020.9774
        49.0004         41.0004
  23889215.8044   -7339326.62143  -5502656.26042  23889218.4904   23889216.3244
        46.0004         38.0004
  23149747.5934   11915942.53243   9282498.88842  23149750.1674   23149746.5464
        48.0004         41.0004
 05 10 14 20 17  0.0000000  0  9G 8G28G27G29G19G31G 7G11G13
  20459882.5554   -7189370.35044  -5591287.11142  20459882.9244   20459878.6774
        58.0004         50.0004
  21013138.0474   -7972843.04444  -6207954.58242  21013139.9414   21013134.1304
        57.0004         50.0004
  20968643.2514   -1913389.91044  -1486004.51042  20968645.0124   20968640.8944
        57.0004         50.0004
  23512230.5224   -8321480.46043  -6420234.65742  23512232.8434   23512229.2544
        47.0004         39.0004
  23379737.7954   35251221.32143  27470429.67442  23379738.9634   23379732.6824
        48.0004         42.0004
  21656279.1644  -14749114.26243 -11471470.54842  21656280.3114   21656276.4224
        54.0004         47.0004
  23316900.2804   -9507441.38343  -7356986.68642  23316902.5514   23316899.6144
        48.0004         41.0004
  23879234.1074   -7391783.34943  -5543531.60642  23879235.6594   23879232.5654
        46.0004         38.0004
  23170339.5924   12024151.78743   9366817.71942  23170341.4524   23170338.2034
        49.0004         41.0004
 05 10 14 20 17 30.0000000  0  9G 8G28G27G29G19G31G 7G11G13
  20454631.2694   -7216966.27644  -5612790.42242  20454631.6964   20454627.3354
        57.0004         50.0004
  21009337.5634   -7992813.42843  -6223515.90442  21009339.5164   21009334.0344
        56.0004         50.0004
  20971053.8204   -1900721.41244  -1476132.95542  20971055.3974   20971051.6294
        57.0004         49.0004
  23496374.2464   -8404805.53643  -6485163.23442  23496376.7854   23496373.5374
        47.0004         40.0004
  23394584.4034   35329241.52443  27531224.60042  23394585.9374   23394580.1584
        47.0004         42.0004
  21638445.0894  -14842833.17943 -11544498.24142  21638446.5484   21638442.8294
        54.0004         47.0004
  23297811.5484   -9607753.45543  -7435151.89942  23297812.7484   23297812.0664
        48.0004         41.0004
  23869298.6114   -7443987.48043  -5584210.12942  23869301.0294   23869295.6904
        45.0004         38.0004
  23190967.4124   12132551.45943   9451284.93142  23190968.2964   23190966.4014
        49.0004         41.0004
 05 10 14 20 18  0.0000000  0  9G 8G28G27G29G19G31G 7G11G13
  20449432.4584   -7244287.13744  -5634079.39942  20449432.6554   20449428.3794
        58.0004         50.0004
  21005589.0434   -8012512.57443  -6238865.87742  21005590.7984   21005585.5234
        56.0004         50.0004
  20973521.0214   -1887756.78344  -1466030.65242  20973522.7024   20973518.5964
        57.0004         49.0004
  23480576.8864   -8487823.24643  -6549852.31842  23480578.4124   23480575.0424
        47.0004         39.0004
  23409501.7084   35407631.37543  27592307.56842  23409502.8494   23409497.5254
        48.0004         42.0004
  21620677.5684  -14936200.82243 -11617252.21442  21620679.1894   21620674.9614
        54.0004         47.0004
  23278754.6274   -9707899.07343  -7513187.36442  23278753.6074   23278753.4924
        48.0004         41.0004
  23859413.9344   -7495935.67743  -5624689.23742  23859414.2324   23859412.2694
        45.0004         38.0004
  23211630.5634   12241139.83443   9535899.18442  23211633.8924   23211628.7974
        49.0004         41.0004
 05 10 14 20 18 30.0000000  0  9G 8G28G27G29G19G31G 7G11G13
  20444285.9384   -7271332.80744  -5655153.93942  20444286.0804   20444281.7784
        58.0004         50.0004
  21001891.8894   -8031942.70843  -6254006.22942  21001893.2174   21001887.8574
        56.0004         50.0004
  20976044.7274   -1874496.31044  -1455697.82042  20976046.3574   20976041.5284
        57.0004         49.0004
  23464837.5044   -8570532.57343  -6614301.11242  23464839.6834   23464836.2614
        47.0004         40.0004
  23424488.3474   35486386.63343  27653675.26342  23424488.7184   23424483.6474
        47.0004         42.0004
  21602977.3684  -15029215.99843 -11689731.53742  21602978.9604   21602974.7824
        54.0004         47.0004
  23259728.9934   -9807877.26543  -7591092.37642  23259730.1584   23259729.9824
        48.0004         41.0004
  23849578.2484   -7547626.72543  -5664967.95942  23849579.9514   23849575.2054
        45.0004         38.0004
  23232329.9764   12349912.78043   9620657.26842  23232331.3174   23232325.7234
        48.0004         41.0004
 05 10 14 20 19  0.0000000  0  9G 8G28G27G29G19G31G 7G11G13
  20439192.2584   -7298099.76744  -5676011.30442  20439192.3744   20439188.0324
        58.0004         50.0004
  20998245.5924   -8051102.55343  -6268935.96842  20998247.3244   20998242.1574
        56.0004         50.0004
  20978625.1054   -1860936.55044  -1445131.77842  20978626.6384   20978622.0994
        57.0004         49.0004
  23449158.2444   -8652928.77543  -6678505.90842  23449159.5634   23449157.7824
        47.0004         40.0004
  23439544.8324   35565507.26543  27715327.66942  23439544.6954   23439540.0684
        48.0004         42.0004
  21585345.1534  -15121873.91543 -11761932.48342  21585346.5284   21585342.3794
        54.0004         47.0004
  23240736.6224   -9907683.73243  -7668863.58342  23240737.5924   23240735.1374
        48.0004         41.0004
  23839790.2754   -7599055.70243  -5705042.45842  23839792.2674   23839790.7214
        45.0004         38.0004
  23253063.8584   12458869.72043   9705558.72242  23253065.0364   23253061.4784
        49.0004         41.0004
 05 10 14 20 19 30.0000000  0  9G 8G28G27G29G19G31G 7G11G13
  20434151.5304   -7324588.29244  -5696651.70942  20434151.8104   20434147.4964
        58.0004         50.0004
  20994650.5494   -8069994.88543  -6283657.24942  20994652.2344   20994646.5464
        56.0004         50.0004
  20981261.8424   -1847078.53444  -1434333.33242  20981263.6514   20981259.1014
        57.0004         49.0004
  23433538.3354   -8735011.55243  -6742466.47442  23433540.4804   23433536.0954
        48.0004         40.0004
  23454669.2934   35644988.56643  27777261.11742  23454670.6224   23454665.3714
        47.0004         41.0004
  21567780.8344  -15214173.98543 -11833854.58542  21567782.5504   21567778.4234
        54.0004         47.0004
  23221776.7914  -10007318.19643  -7746500.75642  23221778.1444   23221777.1614
        48.0004         42.0004
  23830053.8844   -7650222.20543  -5744912.45142  23830056.6654   23830052.4454
        45.0004         38.0004
  23273832.1114   12568005.86343   9790599.79542  23273833.1154   23273831.7064
        48.0004         41.0004
 05 10 14 20 20  0.0000000  0  9G 8G28G27G29G19G31G 7G11G13
  20429164.1674   -7350797.80644  -5717074.70042  20429164.3884   20429159.9824
        58.0004         50.0004
  20991106.0074   -8088621.45944  -6298171.44442  20991107.8304   20991102.3324
        57.0004         49.0004
  20983955.7424   -1832922.12243  -1423302.36442  20983957.5114   20983952.8474
        56.0004         49.0004
  23417978.5824   -8816779.39643  -6806181.64642  23417978.9714   23417976.1294
        47.0004         40.0004
  23469862.4784   35724827.36243  27839473.12542  23469863.0394   23469858.1294
        47.0004         41.0004
  21550285.1724  -15306114.31143 -11905496.36542  21550286.6694   21550282.6304
        54.0004         47.0004
  23202849.9944  -10106779.12043  -7824002.69642  23202852.2324   23202849.3744
        48.0004         41.0004
  23820367.4674   -7701124.24743  -5784576.36142  23820369.9934   23820366.5724
        44.0004         38.0004
  23294633.5604   12677317.84143   9875777.90042  23294635.4834   23294631.2044
        49.0004         41.0004
 05 10 14 20 20 30.0000000  0  9G 8G28G27G29G19G31G 7G11G13
  20424230.5404   -7376722.38044  -5737275.66242  20424231.0544   20424226.8654
        58.0004         50.0004
  20987612.9774   -8106978.23043  -6312475.41042  20987614.6614   20987609.0784
        56.0004         49.0004
  20986707.7274   -1818461.47643  -1412034.33642  20986709.1054   20986704.7984
        56.0004         49.0004
  23402480.0834   -8898224.94943  -6869645.67442  23402480.6534   23402475.6484
        48.0004         40.0004
  23485123.4494   35805025.86043  27901965.42742  23485125.3984   23485119.1904
        47.0004         41.0004
  21532859.4304  -15397687.55543 -11976852.10542  21532861.1444   21532856.9394
        54.0004         47.0004
  23183957.8384  -10206059.64243  -7901364.08242  23183958.2484   23183957.3124
        49.0004         41.0004
  23810733.4854   -7751754.44143  -5824028.42142  23810735.0234   23810730.8814
        46.0004         38.0004
  23315468.2304   12786807.66043   9961094.56642  23315469.6784   23315464.6264
        48.0004         41.0004
 05 10 14 20 21  0.0000000  0  9G 8G28G27G29G19G31G 7G11G13
  20419351.0874   -7402365.17344  -5757257.05542  20419351.2514   20419347.0724
        58.0004         51.0004
  20984170.0264   -8125070.36243  -6326573.16842  20984171.5994   20984166.1184
        56.0004         49.0004
  20989516.5394   -1803700.15443  -1400532.01642  20989518.1874   20989513.9984
        56.0004         49.0004
  23387042.5054   -8979350.22643  -6932860.13742  23387044.4414   23387037.5404
        48.0004         40.0004
  23500451.5714   35885577.17143  27964732.63742  23500452.9384   23500447.9244
        47.0004         41.0004
  21515503.2974  -15488895.42943 -12047923.14242  21515504.6444   21515500.5394
        55.0004         47.0004
  23165098.8314  -10305161.78543  -7978586.46842  23165100.1504   23165098.0304
        49.0004         42.0004
  23801149.9594   -7802114.49843  -5863269.98942  23801151.7914   23801148.4404
        45.0004         38.0004
  23336335.9444   12896468.42443  10046544.45042  23336337.2164   23336334.7434
        48.0004         41.0004
 05 10 14 20 21 30.0000000  0  9G 8G28G27G29G19G31G 7G11G13
  20414525.9514   -7427721.44844  -5777015.18642  20414526.3834   20414521.8524
        58.0004         50.0004
  20980777.9804   -8142895.50643  -6340462.87142  20980779.7744   20980773.9604
        56.0004         49.0004
  20992383.5674   -1788634.12743  -1388792.26042  20992385.3064   20992380.8544
        56.0004         49.0004
  23371666.8204   -9060149.66843  -6995820.70642  23371668.1994   23371663.7514
        48.0004         40.0004
  23515847.4644   35966481.82643  28027775.18842  23515849.5464   23515843.1014
        47.0004         41.0004
  21498217.5904  -15579732.33043 -12118705.10442  21498218.6924   21498214.7184
        54.0004         47.0004
  23146275.1264  -10404080.20143  -8055665.67842  23146277.8094   23146274.8664
        49.0004         42.0004
  23791618.5864   -7852198.57343  -5902296.50142  23791620.8104   23791616.6024
        45.0004         38.0004
  23357236.4954   13006300.40243  10132127.75042  23357239.2364   23357234.5044
        48.0004         40.0004
 05 10 14 20 22  0.0000000  0  9G 8G28G27G29G19G31G 7G11G13
  20409754.8994   -7452792.82744  -5796551.31842  20409755.2384   20409751.1264
        58.0004         50.0004
  20977435.9024   -8160457.77343  -6354147.74142  20977437.5764   20977432.2744
        56.0004         49.0004
  20995308.3094   -1773264.94343  -1376816.28042  20995309.7754   20995305.3424
        56.0004         49.0004
  23356352.9244   -9140623.92443  -7058527.87342  23356354.2004   23356350.5924
        48.0004         41.0004
  23531309.1884   36047734.48743  28091088.90542  23531311.1924   23531306.0354
        47.0004         41.0004
  21481002.3204  -15670198.84043 -12189198.45142  21481003.9204   21480999.0444
        55.0004         47.0004
  23127486.6024  -10502815.56743  -8132602.28342  23127486.7864   23127484.2194
        49.0004         41.0004
  23782141.1924   -7902007.48343  -5941108.58042  23782143.7604   23782138.9044
        45.0004         38.0004
  23378168.4154   13116297.87843  10217840.00842  23378170.3684   23378168.0024
        48.0004         40.0004
 05 10 14 20 22 30.0000000  0  9G 8G28G27G29G19G31G 7G11G13
  20405039.3154   -7477574.30644  -5815861.55542  20405039.4794   20405035.2994
        58.0004         51.0004
  20974144.3804   -8177754.82543  -6367625.95242  20974146.0474   20974140.7814
        56.0004         49.0004
  20998291.1614   -1757588.56843  -1364600.93342  20998292.6294   20998288.8464
        56.0004         49.0004
  23341101.7154   -9220767.25743  -7120977.18342  23341102.2734   23341098.6024
        48.0004         40.0004
  23546837.2804   36129335.69943  28154674.22742  23546838.7774   23546832.4914
        47.0004         41.0004
  21463858.5284  -15760288.99043 -12259398.52842  21463860.2264   21463856.0564
        55.0004         47.0004
  23108733.5774  -10601362.52743  -8209392.05142  23108735.3564   23108732.8074
        49.0004         42.0004
  23772715.1394   -7951535.24443  -5979701.55142  23772718.0454   23772714.1474
        45.0004         38.0004
  23399131.9354   13226461.65043  10303681.83342  23399134.9144   23399132.2504
        48.0004         40.0004
 05 10 14 20 23  0.0000000  0  9G 8G28G27G29G19G31G 7G11G13
  20400377.8964   -7502070.64144  -5834949.60242  20400378.2504   20400373.8664
        58.0004         51.0004
  20970902.1644   -8194792.97343  -6380902.42442  20970903.5024   20970898.1524
        56.0004         49.0004
  21001331.8104   -1741609.71143  -1352149.88142  21001333.4764   21001329.3174
        56.0004         49.0004
  23325913.3934   -9300583.37043  -7183171.52342  23325914.6124   23325909.5174
        48.0004         40.0004
  23562429.8764   36211276.82843  28218524.42642  23562432.2964   23562426.1174
        48.0004         41.0004
  21446785.8924  -15850006.29943 -12329308.07742  21446787.6874   21446783.4794
        55.0004         47.0004
  23090016.1104  -10699724.82243  -8286037.93642  23090017.8284   23090015.5984
        49.0004         42.0004
  23763344.2964   -8000784.99043  -6018077.90142  23763347.0314   23763343.8694
        46.0004         38.0004
  23420125.5444   13336782.82243  10389646.32142  23420129.0394   23420122.9644
        48.0004         40.0004
 05 10 14 20 23 30.0000000  0  9G 8G28G27G29G19G31G 7G11G13
  20395772.5774   -7526271.06544  -5853807.07042  20395772.9924   20395768.6674
        58.0004         50.0004
  20967710.7784   -8211563.65243  -6393970.47742  20967712.5254   20967706.8164
        56.0004         49.0004
  21004432.0854   -1725318.09143  -1339455.12142  21004433.9284   21004429.3964
        56.0004         49.0004
  23310789.4784   -9380060.23743  -7245101.50142  23310793.1614   23310785.8734
        47.0004         40.0004
  23578089.1244   36293564.88943  28282644.95342  23578090.6854   23578086.6144
        48.0004         40.0004
  21429786.6624  -15939338.61543 -12398917.62342  21429787.9814   21429783.9214
        55.0004         47.0004
  23071335.7504  -10797890.74843  -8362530.80242  23071337.8014   23071334.4414
        50.0004         42.0004
  23754026.9214   -8049744.90143  -6056228.40442  23754030.3604   23754026.2054
        46.0004         39.0004
  23441150.1554   13447268.24343  10475738.78342  23441150.4314   23441151.0824
        48.0004         40.0004
 05 10 14 20 24  0.0000000  0  9G 8G28G27G29G19G31G 7G11G13
  20391222.2954   -7550182.52644  -5872439.37542  20391222.6984   20391218.1144
        58.0004         50.0004
  20964568.7094   -8228076.44143  -6406837.56842  20964569.9534   20964564.3214
        56.0004         49.0004
  21007590.3404   -1708721.17343  -1326522.47542  21007592.0954   21007587.8084
        56.0004         49.0004
  23295729.0004   -9459203.90343  -7306771.86242  23295731.0514   23295728.1114
        49.0004         41.0004
  23593811.8484   36376188.87043  28347027.23942  23593812.6544   23593810.0224
        47.0004         41.0004
  21412859.1714  -16028291.73943 -12468231.69342  21412861.3624   21412856.6294
        55.0004         47.0004
  23052691.5644  -10895866.36943  -8438875.38142  23052694.4894   23052689.3664
        50.0004         42.0004
  23744764.8304   -8098421.05443  -6094157.79242  23744766.7824   23744763.6864
        46.0004         39.0004
  23462203.8954   13557906.63043  10561950.44642  23462206.2344   23462204.5234
        48.0004         41.0004
 05 10 14 20 24 30.0000000  0  9G 8G28G27G29G19G31G 7G11G13
  20386728.7344   -7573796.50244  -5890839.87142  20386728.7994   20386724.8514
        58.0004         50.0004
  20961476.5734   -8244325.34243  -6419499.03742  20961478.1004   20961472.6874
        56.0004         49.0004
  21010808.2734   -1691811.29543  -1313345.95742  21010809.8664   21010806.0114
        56.0004         49.0004
  23280733.6344   -9538005.33743  -7368175.54442  23280734.5134   23280732.8624
        49.0004         40.0004
  23609599.7014   36459153.17243  28411674.72042  23609599.6124   23609595.8874
        47.0004         40.0004
  21396005.9154  -16116856.47143 -12537243.13242  21396007.3594   21396003.3164
        55.0004         47.0004
  23034085.5384  -10993642.88543  -8515064.81142  23034085.8684   23034085.2944
        49.0004         41.0004
  23735557.6484   -8146803.55643  -6131858.36442  23735560.1794   23735556.2624
        47.0004         39.0004
  23483288.1744   13668702.37343  10648284.72342  23483289.7404   23483286.0274
        48.0004         40.0004
 05 10 14 20 25  0.0000000  0  9G 8G28G27G29G19G31G 7G11G13
  20382290.7344   -7597119.00944  -5909013.24942  20382291.0794   20382286.6314
        58.0004         50.0004
  20958433.2194   -8260318.26043  -6431961.04142  20958434.7914   20958429.3104
        56.0004         49.0004
  21014084.5764   -1674594.32443  -1299930.14942  21014086.3364   21014082.1034
        56.0004         49.0004
  23265802.3514   -9616469.20243  -7429316.18742  23265802.5604   23265802.0504
        49.0004         40.0004
  23625450.0974   36542448.19243  28476579.88342  23625450.8264   23625444.5674
        47.0004         41.0004
  21379225.4334  -16205037.44643 -12605955.53542  21379227.0994   21379223.2284
        55.0004         47.0004
  23015516.0374  -11091225.03843  -8591102.79742  23015517.4904   23015514.8214
        50.0004         42.0004
  23726405.7354   -8194897.14643  -6169333.80642  23726406.8214   23726403.4734
        47.0004         39.0004
  23504399.9614   13779645.41543  10734733.77342  23504403.3184   23504398.5224
        48.0004         40.0004
 05 10 14 20 25 30.0000000  0 10G 8G28G26G27G29G19G31G 7G11G13
  20377910.0144   -7620140.29744  -5926951.91742  20377910.2804   20377905.8014
        58.0004         50.0004
  20955439.9574   -8276047.81943  -6444217.83042  20955441.5594   20955435.9654
        56.0004         50.0004
  23881316.4104   -3453028.65453  -2625388.63152  23881319.1294   23881315.8104
        45.0004         37.0004
  21017420.7414   -1657061.51143  -1286268.22842  21017422.4114   21017418.5384
        56.0004         49.0004
  23250937.5154   -9694584.79343  -7490185.43442  23250938.7584   23250936.6574
        49.0004         41.0004
  23641365.2164   36626079.11343  28541746.80442  23641365.3154   23641359.6254
        48.0004         41.0004
  21362520.4924  -16292823.80843 -12674360.44442  21362522.1544   21362517.4164
        55.0004         47.0004
  22996985.7854  -11188602.58143  -8666981.35542  22996986.8104   22996983.3604
        49.0004         42.0004
  23717310.5264   -8242691.56443  -6206576.11542  23717313.1904   23717310.4484
        47.0004         39.0004
  23525541.3154   13890741.36543  10821301.96542  23525545.3594   23525539.6284
        48.0004         40.0004
 05 10 14 20 26  0.0000000  0 10G 8G28G26G27G29G19G31G 7G11G13
  20373585.0034   -7642868.10644  -5944661.89942  20373585.1954   20373580.9694
        58.0004         50.0004
  20952495.1574   -8291524.09243  -6456277.25542  20952496.7024   20952491.1084
        56.0004         49.0004
  23863888.7064   -3544611.01143  -2696751.46042  23863891.9684   23863886.8774
        44.0004         37.0004
  21020816.0454   -1639220.50043  -1272366.15442  21020817.7464   21020813.5064
        56.0004         49.0004
  23236137.3064   -9772358.92643  -7550788.62642  23236138.9514   23236136.1624
        48.0004         41.0004
  23657341.2994   36710034.96243  28607166.90542  23657342.0704   23657335.4884
        48.0004         41.0004
  21345889.1934  -16380222.16943 -12742463.01542  21345890.5524   21345886.4424
        55.0004         48.0004
  22978493.0354  -11285782.22843  -8742705.70842  22978492.3144   22978490.8674
        49.0004         42.0004
  23708271.6144   -8290192.74043  -6243589.93842  23708274.9784   23708269.3274
        47.0004         39.0004
  23546708.7454   14001978.62343  10907980.28342  23546709.4294   23546705.5434
        48.0004         41.0004
 05 10 14 20 26 30.0000000  0 10G 8G28G26G27G29G19G31G 7G11G13
  20369317.2964   -7665294.44444  -5962136.96542  20369317.3674   20369313.2244
        58.0004         50.0004
  20949599.1834   -8306740.91743  -6468134.50742  20949600.9364   20949595.3794
        56.0004         50.0004
  23846521.3224   -3635875.02343  -2767866.21842  23846525.2094   23846520.8734
        44.0004         36.0004
  21024271.1674   -1621063.65743  -1258217.98242  21024272.9324   21024268.5374
        56.0004         49.0004
  23221403.7254   -9849782.44443  -7611118.59242  23221406.2824   23221403.3964
        48.0004         40.0004
  23673380.4004   36794319.34243  28672843.01142  23673380.2504   23673375.3254
        48.0004         41.0004
  21329333.2444  -16467223.33443 -12810256.08542  21329334.8324   21329330.9524
        55.0004         48.0004
  22960039.3314  -11382755.09543  -8818268.91742  22960040.2404   22960038.5924
        48.0004         41.0004
  23699289.7224   -8337391.54943  -6280368.13442  23699291.6924   23699287.3404
        47.0004         39.0004
  23567904.1984   14113360.88743  10994771.58442  23567906.2464   23567902.2494
        48.0004         40.0004
 05 10 14 20 27  0.0000000  0 10G 8G28G26G27G29G19G31G 7G11G13
  20365107.0844   -7687419.00144  -5979376.88342  20365107.4454   20365103.1304
        58.0004         50.0004
  20946752.4314   -8321700.65843  -6479791.43742  20946754.2414   20946748.3744
        56.0004         50.0004
  23829215.6854   -3726819.39043  -2838731.90142  23829217.8544   23829214.9314
        43.0004         37.0004
  21027786.0044   -1602591.85143  -1243824.37742  21027787.8864   21027783.7734
        56.0004         49.0004
  23206737.5354   -9926854.50443  -7671174.70942  23206738.0414   23206735.4684
        48.0004         41.0004
  23689480.4064   36878928.21443  28738771.96042  23689480.5974   23689476.5994
        48.0004         41.0004
  21312853.0624  -16553826.30443 -12877738.88142  21312854.8514   21312850.6674
        55.0004         48.0004
  22941625.2774  -11479520.31043  -8893670.33242  22941625.0444   22941623.1144
        49.0004         41.0004
  23690366.0144   -8384286.83943  -6316909.83342  23690368.2604   23690363.2504
        47.0004         39.0004
  23589126.2234   14224884.22043  11081672.82042  23589129.3114   23589124.9884
        48.0004         40.0004
 05 10 14 20 27 30.0000000  0 10G 8G28G26G27G29G19G31G 7G11G13
  20360954.7374   -7709239.92844  -5996380.20242  20360955.0704   20360950.3964
        58.0004         50.0004
  20943954.5814   -8336403.87143  -6491248.47842  20943956.2774   20943950.6784
        56.0004         50.0004
  23811970.2324   -3817440.78443  -2909345.91942  23811973.2574   23811971.6104
        44.0004         37.0004
  21031361.7644   -1583803.13543  -1229183.83142  21031363.2124   21031358.9934
        56.0004         49.0004
  23192138.9324  -10003572.09643  -7730954.60242  23192141.9634   23192137.3414
        48.0004         41.0004
  23705642.8624   36963860.10143  28804952.61342  23705642.1134   23705638.5864
        47.0004         41.0004
  21296449.6554  -16640028.20343 -12944909.15142  21296451.1974   21296446.6624
        55.0004         48.0004
  22923251.4354  -11576075.24443  -8968907.88142  22923251.8754   22923251.1964
        48.0004         41.0004
  23681499.6514   -8430875.88843  -6353212.89942  23681502.7274   23681495.8384
        47.0004         39.0004
  23610374.8064   14336546.40943  11168682.23142  23610377.8404   23610372.3604
        48.0004         40.0004
 05 10 14 20 28  0.0000000  0 10G 8G28G26G27G29G19G31G 7G11G13
  20356860.0984   -7730757.70144  -6013147.29942  20356860.5034   20356855.9854
        58.0004         50.0004
  20941204.9884   -8350852.80843  -6502507.38342  20941206.6774   20941201.0904
        56.0004         50.0004
  23794787.5674   -3907738.10643  -2979707.41042  23794789.7424   23794786.8184
        44.0004         37.0004
  21034997.1544   -1564698.44244  -1214297.07542  21034998.9674   21034994.4594
        57.0004         49.0004
  23177607.5874  -10079934.56943  -7790457.80242  23177608.4864   23177606.4974
        48.0004         41.0004
  23721865.3934   37049110.42643  28871381.38242  23721865.4804   23721862.0794
        47.0004         41.0004
  21280122.2364  -16725828.12043 -13011766.19042  21280123.7444   21280119.9844
        55.0004         48.0004
  22904917.7154  -11672419.40043  -9043981.19142  22904917.7074   22904917.0084
        48.0004         41.0004
  23672692.7704   -8477157.70143  -6389276.55042  23672695.2804   23672690.7534
        48.0004         39.0004
  23631649.1954   14448343.00943  11255796.39242  23631652.1124   23631645.7544
        48.0004         40.0004
 05 10 14 20 28 30.0000000  0 10G 8G28G26G27G29G19G31G 7G11G13
  20352823.6014   -7751968.77344  -6029675.41042  20352823.8814   20352819.6934
        58.0004         50.0004
  20938504.1244   -8365046.11943  -6513567.10142  20938505.6274   20938500.1534
        56.0004         50.0004
  23777667.4374   -3997706.53643  -3049812.61342  23777669.3974   23777664.6644
        44.0004         37.0004
  21038693.2504   -1545274.70043  -1199161.70442  21038695.1634   21038691.0134
        56.0004         49.0004
  23163144.8754  -10155937.33243  -7849680.69342  23163147.2824   23163143.2794
        49.0004         41.0004
  23738148.4874   37134678.73543  28938057.95142  23738148.5754   23738144.3624
        47.0004         40.0004
  21263872.1594  -16811221.36243 -13078306.34042  21263873.9174   21263870.1414
        55.0004         48.0004
  22886625.0634  -11768548.36643  -9118886.80342  22886625.3624   22886623.9574
        48.0004         41.0004
  23663944.5064   -8523127.62643  -6425097.18742  23663946.7654   23663945.0554
        47.0004         39.0004
  23652949.0054   14560273.58543  11343014.94342  23652952.1954   23652947.9284
        48.0004         40.0004
 05 10 14 20 29  0.0000000  0 10G 8G28G26G27G29G19G31G 7G11G13
  20348845.7224   -7772872.72644  -6045964.20242  20348846.1574   20348841.6334
        58.0004         50.0004
  20935851.0764   -8378986.68743  -6524429.87842  20935852.3664   20935847.3054
        56.0004         50.0004
  23760609.5594   -4087345.05143  -3119660.74842  23760610.0514   23760608.4274
        43.0004         37.0004
  21042450.0694   -1525532.73243  -1183778.36542  21042452.0484   21042447.5374
        56.0004         49.0004
  23148750.0364  -10231579.72243  -7908622.79142  23148750.6124   23148748.3114
        49.0004         41.0004
  23754491.5194   37220560.87843  29004979.05642  23754493.0464   23754487.8254
        47.0004         40.0004
  21247699.9784  -16896207.00243 -13144528.88542  21247701.2064   21247697.4634
        55.0004         48.0004
  22868373.3444  -11864461.63243  -9193624.34342  22868372.4054   22868374.4134
        48.0004         41.0004
  23655256.6764   -8568784.73343  -6460674.06642  23655258.6024   23655255.3474
        48.0004         39.0004
  23674273.4424   14672333.97843  11430334.64042  23674275.6684   23674270.1654
        48.0004         40.0004
 05 10 14 20 29 30.0000000  0 10G 8G28G26G27G29G19G31G 7G11G13
  20344926.2024   -7793470.28644  -6062014.25242  20344926.6184   20344922.0264
        58.0004         50.0004
  20933245.8674   -8392677.15243  -6535097.76442  20933247.4224   20933242.2714
        56.0004         50.0004
  23743614.2494   -4176652.81043  -3189251.14542  23743617.7964   23743613.0824
        43.0004         37.0004
  21046267.0904   -1505473.16143  -1168147.54742  21046268.9864   21046265.1934
        56.0004         49.0004
  23134424.5964  -10306861.49143  -7967283.86642  23134426.2414   23134422.6174
        48.0004         41.0004
  23770893.4794   37306752.09243  29072141.00242  23770892.4594   23770889.0084
        47.0004         40.0004
  21231605.4554  -16980784.87443 -13210433.68842  21231607.1804   21231602.7694
        55.0004         48.0004
  22850162.6614  -11960158.88543  -9268193.55442  22850163.5634   22850161.3714
        48.0004         42.0004
  23646628.6014   -8614128.46743  -6496006.78442  23646629.3534   23646626.4114
        47.0004         39.0004
  23695621.7514   14784519.30543  11517751.70442  23695624.1374   23695618.8494
        48.0004         40.0004
 05 10 14 20 30  0.0000000  0 10G 8G28G26G27G29G19G31G 7G11G13
  20341065.8984   -7813755.17644  -6077820.66042  20341066.3544   20341062.0954
        58.0004         50.0004
  20930689.2964   -8406113.13843  -6545567.35542  20930690.5064   20930685.2674
        56.0004         50.0004
  23726683.5764   -4265622.13143  -3258577.80442  23726685.2094   23726683.0514
        42.0004         37.0004
  21050146.0174   -1485090.56943  -1152265.02142  21050147.5534   21050143.4384
        56.0004         49.0004
  23120168.9234  -10381775.21943  -8025658.17042  23120172.1604   23120164.9904
        48.0004         41.0004
  23787354.0864   37393254.99043  29139545.81942  23787355.5164   23787349.4624
        47.0004         40.0004
  21215589.6364  -17064947.52743 -13276014.93942  21215591.5144   21215586.7584
        56.0004         48.0004
  22831994.8114  -12055633.02643  -9342588.90742  22831995.7954   22831993.7124
        49.0004         42.0004
  23638060.6424   -8659151.37443  -6531089.49842  23638058.8134   23638059.5594
        47.0004         39.0004
  23716994.4364   14896831.86043  11605267.89842  23716995.8464   23716992.1464
        48.0004         40.0004
 05 10 14 20 30 30.0000000  0 10G 8G28G26G27G29G19G31G 7G11G13
  20337264.6044   -7833731.14444  -6093386.34542  20337264.6724   20337260.7364
        57.0004         51.0004
  20928179.7764   -8419301.05443  -6555843.64442  20928181.1944   20928175.7824
        56.0004         50.0004
  23709817.7474   -4354255.42243  -3327642.64042  23709822.0644   23709817.1724
        43.0004         37.0004
  21054085.4204   -1464388.94543  -1136133.90042  21054087.2864   21054082.7904
        56.0004         49.0004
  23105982.6154  -10456323.74843  -8083747.91242  23105984.2644   23105981.5264
        48.0004         41.0004
  23803872.9434   37480061.58243  29207187.27242  23803874.4454   23803868.4984
        46.0004         40.0004
  21199652.3654  -17148697.57143 -13341274.67842  21199654.1314   21199650.1094
        55.0004         48.0004
  22813868.3844  -12150887.09643  -9416812.77342  22813869.6174   22813866.3654
        49.0004         42.0004
  23629552.6624   -8703856.25943  -6565924.40342  23629552.7294   23629549.5864
        47.0004         39.0004
  23738389.0674   15009263.90743  11692877.19542  23738390.8384   23738389.2454
        48.0004         40.0004
 05 10 14 20 31  0.0000000  0 10G 8G28G26G27G29G19G31G 7G11G13
  20333523.6364   -7853390.73344  -6108705.50242  20333523.9984   20333520.0394
        57.0004         51.0004
  20925718.1964   -8432235.59443  -6565922.49942  20925719.9584   20925714.5084
        56.0004         50.0004
  23693017.1234   -4442544.19443  -3396439.00142  23693017.4064   23693016.9674
        42.0004         37.0004
  21058086.8184   -1443361.40843  -1119748.81842  21058088.3024   21058084.5744
        56.0004         49.0004
  23091867.8844  -10530498.68843  -8141546.53942  23091868.9324   23091866.2684
        48.0004         41.0004
  23820450.2534   37567175.59943  29275068.28642  23820451.1104   23820446.0434
        46.0004         40.0004
  21183795.5244  -17232026.71443 -13406206.44342  21183797.3234   21183792.9914
        55.0004         48.0004
  22795784.8754  -12245912.94843  -9490858.80442  22795785.8754   22795783.0184
        49.0004         42.0004
  23621107.5914   -8748234.60943  -6600504.88842  23621110.3804   23621107.5484
        47.0004         39.0004
  23759807.3234   15121818.68343  11780582.13042  23759809.4214   23759805.9684
        47.0004         40.0004
 05 10 14 20 31 30.0000000  0 10G 8G28G26G27G29G19G31G 7G11G13
  20329842.1204   -7872737.48644  -6123780.89542  20329842.6464   20329838.1974
        58.0004         51.0004
  20923304.0424   -8444922.29743  -6575808.23942  20923305.6934   20923300.2484
        56.0004         50.0004
  23676280.5274   -4530490.42543  -3464968.46142  23676283.3764   23676281.1984
        43.0004         37.0004
  21062149.7574   -1422011.81743  -1103112.78542  21062151.6284   21062146.9164
        56.0004         49.0004
  23077823.1944  -10604302.63143  -8199056.08642  23077824.3954   23077822.6964
        48.0004         41.0004
  23837084.8234   37654589.56743  29343183.01442  23837085.4554   23837080.9434
        46.0004         40.0004
  21168018.3754  -17314937.17043 -13470811.95842  21168019.9494   21168015.5104
        56.0004         48.0004
  22777745.1084  -12340713.26143  -9564729.07542  22777746.6884   22777744.8474
        49.0004         42.0004
  23612724.8974   -8792288.77843  -6634832.76342  23612728.4504   23612724.2704
        47.0004         39.0004
  23781248.1314   15234488.63043  11868376.80042  23781251.5224   23781245.1724
        47.0004         39.0004
 05 10 14 20 32  0.0000000  0 11G 8G28G26G27G29G19G31G 7G11G13G17
  20326220.7654   -7891768.11644  -6138609.95642  20326221.2474   20326216.7194
        58.0004         51.0004
  20920937.1404   -8457360.68343  -6585500.48042  20920938.7164   20920933.2444
        56.0004         50.0004
  23659611.2404   -4618089.56043  -3533227.44542  23659614.8444   23659610.6264
        43.0004         37.0004
  21066274.1414   -1400337.57243  -1086223.77642  21066275.9714   21066271.6434
        56.0004         49.0004
  23063849.7144  -10677731.34743  -8256273.22842  23063852.2054   23063849.2314
        48.0004         41.0004
  23853775.2954   37742302.64643  29411530.81642  23853777.6254   23853771.4324
        46.0004         40.0004
  21152321.4664  -17397424.82243 -13535088.01542  21152322.9454   21152318.7534
        55.0004         48.0004
  22759749.1264  -12435283.85643  -9638420.36642  22759750.1454   22759745.9594
        49.0004         42.0004
  23604404.1594   -8836014.48443  -6668904.70742  23604407.1724   23604403.6184
        48.0004         39.0004
  23802710.2814   15347272.97943  11956260.62342  23802713.1934   23802710.4324
        47.0004         39.0004
  23314131.4994   -1312051.63853  -1002176.72852  23314133.2304   23314129.8374
        49.0004         44.0004
 05 10 14 20 32 30.0000000  0 11G 8G28G26G27G29G19G31G 7G11G13G17
  20322659.9564   -7910479.88544  -6153190.55542  20322660.1574   20322655.9714
        58.0004         51.0004
  20918617.6454   -8469550.01143  -6594998.64942  20918619.1524   20918613.7504
        56.0004         50.0004
  23643009.2724   -4705338.03443  -3601213.19642  23643009.9064   23643007.1924
        43.0004         37.0004
  21070460.8694   -1378336.56843  -1069080.15242  21070462.6314   21070458.0394
        56.0004         49.0004
  23049949.1704  -10750781.56843  -8313195.44342  23049949.2994   23049946.7954
        48.0004         41.0004
  23870523.3524   37830313.19843  29480110.42042  23870524.6184   23870519.4014
        46.0004         40.0004
  21136705.4624  -17479486.40443 -13599032.07342  21136707.0824   21136702.9864
        56.0004         48.0004
  22741796.8394  -12529621.75243  -9711930.33442  22741798.0544   22741796.8564
        50.0004         42.0004
  23596146.4124   -8879408.27543  -6702718.04642  23596149.8614   23596146.9504
        47.0004         39.0004
  23824193.8554   15460169.96743  12044232.21542  23824193.3794   23824191.3934
        47.0004         39.0004
  23293927.1274   -1418226.65843  -1084910.45442  23293928.8124   23293925.4384
        49.0004         44.0004
 05 10 14 20 33  0.0000000  0 11G 8G28G26G27G29G19G31G 7G11G13G17
  20319160.9314   -7928867.02544  -6167518.19542  20319161.1334   20319156.9824
        58.0004         51.0004
  20916346.1584   -8481486.68443  -6604299.94442  20916347.6434   20916342.4024
        56.0004         50.0004
  23626474.5284   -4792228.35843  -3668919.86742  23626475.8984   23626473.7274
        44.0004         37.0004
  21074710.5654   -1356003.58943  -1051677.84342  21074712.0304   21074708.1024
        56.0004         49.0004
  23036121.3384  -10823446.52643  -8369817.44842  23036122.6604   23036119.0224
        48.0004         41.0004
  23887328.5134   37918623.11443  29548923.28542  23887329.1194   23887323.5044
        46.0004         40.0004
  21121171.8794  -17561114.97243 -13662638.71442  21121173.5194   21121169.8674
        56.0004         48.0004
  22723890.5104  -12623720.29943  -9785253.78242  22723891.4934   22723889.7074
        50.0004         42.0004
  23587953.2654   -8922463.37943  -6736267.48442  23587954.0374   23587952.4224
        47.0004         39.0004
  23845699.2374   15573181.33843  12132292.93542  23845700.5644   23845697.5254
        46.0004         39.0004
  23273755.1284   -1524229.11443  -1167509.71242  23273757.2894   23273753.8344
        50.0004         44.0004
 05 10 14 20 33 30.0000000  0 11G 8G28G26G27G29G19G31G 7G11G13G17
  20315721.6454   -7946942.29844  -6181602.81742  20315721.8324   20315717.2054
        58.0004         51.0004
  20914119.7794   -8493185.91343  -6613416.22242  20914121.6374   20914116.0174
        56.0004         50.0004
  23610005.2164   -4878772.16443  -3736356.53442  23610008.3714   23610004.6394
        44.0004         37.0004
  21079021.0134   -1333351.80943  -1034027.11742  21079022.5564   21079018.6914
        56.0004         49.0004
  23022364.7224  -10895738.08743  -8426148.51742  23022367.0094   23022362.3554
        48.0004         41.0004
  23904186.4174   38007215.88143  29617956.56142  23904187.5914   23904183.8544
        45.0004         40.0004
  21105718.7384  -17642322.24043 -13725917.06842  21105720.7264   21105716.2594
        55.0004         48.0004
  22706026.9944  -12717591.28843  -9858399.91742  22706029.6364   22706026.2224
        50.0004         42.0004
  23579822.4684   -8965191.23043  -6769561.89942  23579823.5844   23579820.5314
        48.0004         39.0004
  23867222.9574   15686290.61243  12220429.92942  23867225.9554   23867223.3744
        46.0004         39.0004
  23253614.3994   -1630070.52743  -1249983.47542  23253616.7374   23253612.6144
        49.0004         44.0004
 05 10 14 20 34  0.0000000  0 11G 8G28G26G27G29G19G31G 7G11G13G17
  20312343.7694   -7964692.28744  -6195433.97342  20312344.1984   20312339.8684
        58.0004         51.0004
  20911940.7564   -8504636.36143  -6622338.64142  20911942.7064   20911936.9194
        56.0004         50.0004
  23593605.3004   -4964954.54643  -3803511.58142  23593606.9714   23593604.3504
        44.0004         37.0004
  21083394.5964   -1310368.33843  -1016117.93242  21083396.2814   21083392.1014
        56.0004         49.0004
  23008682.0354  -10967641.72143  -8482177.28642  23008683.8584   23008680.0824
        49.0004         41.0004
  23921100.6464   38096100.86743  29687217.53742  23921102.1774   23921096.8524
        45.0004         40.0004
  21090348.2224  -17723093.79743 -13788855.90642  21090349.5574   21090346.0484
        55.0004         48.0004
  22688210.1244  -12811220.54243  -9931357.70142  22688212.9644   22688210.4684
        50.0004         43.0004
  23571756.8754   -9007577.38943  -6802590.08542  23571758.7714   23571754.8434
        48.0004         40.0004
  23888768.0624   15799507.24343  12308650.59042  23888768.1214   23888768.0454
        46.0004         39.0004
  23233506.8114   -1735736.73443  -1332320.70942  23233508.9814   23233505.1354
        50.0004         44.0004
 05 10 14 20 34 30.0000000  0 11G 8G28G26G27G29G19G31G 7G11G13G17
  20309026.9914   -7982121.63044  -6209015.27642  20309027.1744   20309022.8874
        57.0004         50.0004
  20909808.0014   -8515844.77443  -6631072.46142  20909809.5774   20909803.9364
        56.0004         50.0004
  23577272.7944   -5050778.93443  -3870387.66242  23577277.0494   23577272.2534
        43.0004         37.0004
  21087830.3944   -1287058.35543   -997954.32242  21087832.5154   21087827.4714
        56.0004         49.0004
  22995072.3544  -11039160.94443  -8537906.52242  22995073.7124   22995071.5324
        48.0004         41.0004
  23938069.0054   38185269.59743  29756699.62042  23938070.5624   23938065.8854
        45.0004         39.0004
  21075060.1764  -17803433.19943 -13851457.99942  21075062.1094   21075058.0974
        55.0004         48.0004
  22670438.6344  -12904611.88443 -10004130.10042  22670439.9044   22670436.4924
        50.0004         43.0004
  23563755.9264   -9049625.38543  -6835354.75542  23563758.4904   23563755.5484
        49.0004         40.0004
  23910330.9864   15912822.25843  12396947.92042  23910332.9524   23910328.0014
        46.0004         38.0004
  23213431.5204   -1841231.19843  -1414524.09742  23213433.6974   23213430.7544
        50.0004         44.0004
 05 10 14 20 35  0.0000000  0 11G 8G28G26G27G29G19G31G 7G11G13G17
  20305772.3314   -7999225.31244  -6222342.81542  20305772.5594   20305768.1794
        57.0004         50.0004
  20907721.5194   -8526809.11143  -6639616.08842  20907723.0704   20907717.5754
        56.0004         50.0004
  23561010.8794   -5136239.46243  -3936980.21442  23561012.9424   23561008.6804
        45.0004         37.0004
  21092329.0904   -1263417.68143   -979533.03142  21092330.7894   21092326.6514
        56.0004         49.0004
  22981536.8134  -11110290.61143  -8593332.20442  22981538.0984   22981535.3004
        48.0004         41.0004
  23955091.4174   38274722.41843  29826403.06142  23955093.1944   23955087.6204
        45.0004         39.0004
  21059855.5514  -17883335.11943 -13913719.19942  21059857.3044   21059852.8174
        56.0004         48.0004
  22652713.2204  -12997760.18143 -10076713.10742  22652714.2094   22652711.2794
        51.0004         43.0004
  23555819.5604   -9091329.70043  -6867851.64442  23555819.6904   23555817.4434
        48.0004         40.0004
  23931912.7444   16026236.03143  12485322.19442  23931913.9744   23931911.8394
        46.0004         38.0004
  23193390.5464   -1946547.98943  -1496589.03242  23193392.7704   23193389.0794
        49.0004         44.0004
 05 10 14 20 35 30.0000000  0 11G 8G28G26G27G29G19G31G 7G11G13G17
  20302579.7314   -8016002.63844  -6235416.05542  20302580.0974   20302575.8134
        58.0004         50.0004
  20905681.2174   -8537530.81843  -6647970.65542  20905682.9164   20905677.1424
        56.0004         50.0004
  23544817.4534   -5221334.25043  -4003287.77442  23544820.5334   23544817.1464
        43.0004         37.0004
  21096890.7014   -1239445.99743   -960853.81142  21096892.3664   21096888.0344
        56.0004         49.0004
  22968075.3624  -11181029.12943  -8648453.09542  22968074.6884   22968074.3254
        48.0004         42.0004
  23972167.1664   38364456.14543  29896325.38842  23972169.2944   23972163.6844
        45.0004         40.0004
  21044734.2644  -17962797.93543 -13975638.23942  21044735.8764   21044731.9424
        56.0004         48.0004
  22635033.6894  -13090664.00543 -10149105.63442  22635035.5524   22635032.6024
        49.0004         42.0004
  23547948.9144   -9132688.89943  -6900079.59842  23547951.9284   23547946.1384
        48.0004         40.0004
  23953513.3274   16139745.37543  12573770.93442  23953513.7274   23953511.2874
        46.0004         38.0004
  23173383.6204   -2051685.59743  -1578514.34942  23173385.8364   23173381.9034
        50.0004         44.0004
 05 10 14 20 36  0.0000000  0 11G 8G28G26G27G29G19G31G 7G11G13G17
  20299449.1534   -8032453.25744  -6248234.72142  20299449.4884   20299445.3424
        57.0004         50.0004
  20903686.7274   -8548011.58743  -6656137.48142  20903688.3514   20903682.8254
        56.0004         50.0004
  23528694.2554   -5306061.30443  -4069308.79242  23528696.8444   23528693.0664
        43.0004         37.0004
  21101515.4174   -1215143.41943   -941916.75242  21101517.0174   21101512.1994
        56.0004         49.0004
  22954689.1214  -11251375.10943  -8703268.11942  22954690.7474   22954686.0634
        48.0004         41.0004
  23989295.8934   38454467.39743  29966463.97442  23989297.6914   23989291.8564
        45.0004         40.0004
  21029696.8774  -18041820.16243 -14037213.96742  21029698.6524   21029694.0534
        56.0004         49.0004
  22617401.7394  -13183321.91943 -10221306.53842  22617403.4894   22617399.8964
        50.0004         43.0004
  23540144.5314   -9173701.10643  -6932037.15642  23540146.8994   23540144.2524
        48.0004         40.0004
  23975130.2844   16253347.00943  12662291.58542  23975132.9424   23975131.0774
        46.0004         38.0004
  23153410.9554   -2156642.49143  -1660298.84242  23153413.0794   23153408.5514
        49.0004         44.0004
 05 10 14 20 36 30.0000000  0 11G 8G28G26G27G29G19G31G 7G11G13G17
  20296381.3364   -8048574.91544  -6260797.04942  20296381.8294   20296377.4824
        57.0004         50.0004
  20901738.1364   -8558251.48643  -6664116.61142  20901739.9264   20901734.2874
        56.0004         50.0004
  23512642.1584   -5390417.15843  -4135040.55742  23512644.1514   23512640.2564
        43.0004         37.0004
  21106203.1234   -1190508.26143   -922720.53842  21106205.0104   21106200.9934
        56.0004         49.0004
  22941378.5214  -11321325.35543  -8757774.77742  22941380.1064   22941376.1694
        48.0004         42.0004
  24006477.6024   38544754.25743  30036817.31342  24006478.5044   24006473.9864
        45.0004         40.0004
  21014743.7374  -18120398.69143 -14098443.95442  21014745.3824   21014741.3964
        56.0004         49.0004
  22599816.5284  -13275731.06343 -10293313.61142  22599817.4984   22599814.7034
        51.0004         43.0004
  23532406.9454   -9214363.30943  -6963721.98242  23532407.6194   23532405.7784
        47.0004         40.0004
  23996765.8954   16367038.88943  12750882.55242  23996769.9694   23996766.0994
        45.0004         38.0004
  23133473.1264   -2261415.26743  -1741939.86142  23133475.5904   23133470.9804
        49.0004         44.0004
 05 10 14 20 37  0.0000000  0 11G 8G28G26G27G29G19G31G 7G11G13G17
  20293377.0234   -8064363.81344  -6273100.08742  20293377.3964   20293373.0464
        58.0004         51.0004
  20899835.6364   -8568248.95543  -6671906.83542  20899837.4044   20899831.8064
        56.0004         50.0004
  23496660.8494   -5474397.02443  -4200479.37042  23496663.4084   23496659.4164
        44.0004         37.0004
  21110954.8804   -1165537.90843   -903263.13242  21110956.6264   21110952.6484
        56.0004         49.0004
  22928143.1164  -11390875.43443  -8811969.60642  22928145.5644   22928140.1004
        49.0004         42.0004
  24023710.7054   38635316.49843  30107385.22642  24023711.3624   24023706.2304
        45.0004         40.0004
  20999875.8544  -18198529.23543 -14159324.86642  20999877.6584   20999873.5094
        56.0004         49.0004
  22582279.9094  -13367887.16443 -10365123.49942  22582281.3394   22582278.7534
        51.0004         43.0004
  23524736.7594   -9254670.99343  -6995130.55642  23524738.3974   23524735.7874
        48.0004         40.0004
  24018418.2364   16480820.62943  12839543.55742  24018420.5284   24018416.8594
        45.0004         38.0004
  23113571.0624   -2365999.59243  -1823434.02742  23113572.7564   23113569.4924
        49.0004         44.0004
 05 10 14 20 37 30.0000000  0 11G 8G28G26G27G29G19G31G 7G11G13G17
  20290435.1904   -8079822.26744  -6285145.63542  20290435.6024   20290431.2034
        58.0004         51.0004
  20897978.4634   -8578009.01243  -6679512.06542  20897980.1174   20897974.3064
        56.0004         50.0004
  23480751.3454   -5558002.13243  -4265626.15642  23480754.2884   23480750.9424
        44.0004         37.0004
  21115770.0154   -1140234.78443   -883546.42342  21115771.6654   21115767.5604
        56.0004         49.0004
  22914984.3794  -11460027.19843  -8865854.06342  22914986.4864   22914983.2804
        49.0004         42.0004
  24040995.8274   38726147.49443  30178162.57042  24040997.1304   24040991.1254
        45.0004         40.0004
  20985093.0374  -18276213.42043 -14219857.96942  20985094.6094   20985090.3054
        56.0004         49.0004
  22564790.8444  -13459792.02343 -10436737.61442  22564791.7834   22564789.6624
        51.0004         43.0004
  23517133.4074   -9294625.67243  -7026264.06742  23517135.3904   23517130.7854
        48.0004         40.0004
  24040085.8724   16594685.48743  12928269.31642  24040088.0444   24040085.7804
        45.0004         38.0004
  23093704.9674   -2470396.59043  -1904782.22842  23093707.0234   23093703.4874
        49.0004         44.0004
 05 10 14 20 38  0.0000000  0 11G 8G28G26G27G29G19G31G 7G11G13G17
  20287557.0334   -8094947.38044  -6296931.43442  20287557.3584   20287552.8084
        57.0004         51.0004
  20896166.7514   -8587530.63943  -6686931.50342  20896168.4344   20896162.4374
        56.0004         50.0004
  23464913.5214   -5641227.97343  -4330477.40542  23464915.8564   23464913.2674
        44.0004         38.0004
  21120649.0094   -1114596.85443   -863568.82642  21120650.6574   21120646.6554
        56.0004         49.0004
  22901901.8774  -11528776.29443  -8919424.75542  22901904.0504   22901899.7184
        49.0004         42.0004
  24058330.9594   38817246.27943  30249148.57942  24058332.7424   24058327.7284
        45.0004         40.0004
  20970396.1294  -18353447.03743 -14280039.97642  20970397.2664   20970393.2744
        56.0004         49.0004
  22547350.5324  -13551441.65043 -10508152.84942  22547351.3724   22547348.2744
        51.0004         43.0004
  23509598.5044   -9334222.89543  -7057119.03442  23509598.9824   23509596.5214
        48.0004         40.0004
  24061769.7244   16708632.69443  13017059.25642  24061772.8694   24061767.8594
        46.0004         38.0004
  23073875.3364   -2574602.16743  -1985981.27242  23073877.2714   23073873.4514
        49.0004         44.0004
 05 10 14 20 38 30.0000000  0 11G 8G28G26G27G29G19G31G 7G11G13G17
  20284742.8514   -8109735.79144  -6308454.87242  20284743.3784   20284738.8224
        58.0004         50.0004
  20894400.3594   -8596812.75944  -6694164.31342  20894401.7884   20894396.1194
        57.0004         50.0004
  23449150.0774   -5724070.01943  -4395029.58842  23449150.7974   23449150.0584
        45.0004         37.0004
  21125591.9224   -1088621.00243   -843327.91142  21125593.7864   21125589.2384
        56.0004         49.0004
  22888896.5044  -11597118.86443  -8972678.68242  22888897.2194   22888893.8614
        49.0004         42.0004
  24075717.4244   38908612.49543  30320342.97742  24075719.3984   24075713.9174
        45.0004         39.0004
  20955785.6204  -18430225.90743 -14339867.63642  20955787.4354   20955783.4254
        56.0004         49.0004
  22529959.2594  -13642832.02843 -10579366.07642  22529961.5254   22529957.6614
        51.0004         43.0004
  23502131.9564   -9373458.51543  -7087692.20342  23502133.7624   23502129.0604
        48.0004         40.0004
  24083468.8014   16822661.49143  13105912.74442  24083471.9114   24083468.6264
        46.0004         38.0004
  23054082.5104   -2678611.65643  -2067027.52442  23054084.6814   23054081.2664
        49.0004         44.0004
 05 10 14 20 39  0.0000000  0 11G 8G28G26G27G29G19G31G 7G11G13G17
  20281992.4004   -8124190.22644  -6319718.07042  20281992.7944   20281988.0914
        57.0004         51.0004
  20892678.7104   -8605860.29144  -6701214.33642  20892680.3894   20892674.4644
        57.0004         50.0004
  23433458.1684   -5806529.82543  -4459283.91542  23433461.2424   23433456.9624
        45.0004         37.0004
  21130598.5954   -1062310.83843   -822826.49442  21130600.2494   21130596.1574
        56.0004         49.0004
  22875968.1854  -11665056.76843  -9025617.29442  22875971.1164   22875966.2464
        49.0004         42.0004
  24093154.0134   39000239.11243  30391740.27842  24093154.2024   24093149.6594
        46.0004         39.0004
  20941260.8654  -18506552.15543 -14399342.61142  20941262.9304   20941258.3614
        56.0004         49.0004
  22512616.8914  -13733965.37743 -10650379.01042  22512618.1064   22512616.0784
        50.0004         43.0004
  23494733.8184   -9412334.73243  -7117985.34542  23494735.8724   23494731.8514
        48.0004         40.0004
  24105181.8964   16936764.98043  13194824.44042  24105185.2504   24105182.1024
        46.0004         38.0004
  23034327.3014   -2782427.35043  -2147922.77442  23034328.1994   23034324.4714
        49.0004         44.0004
 05 10 14 20 39 30.0000000  0 11G 8G28G26G27G29G19G31G 7G11G13G17
  20279306.1724   -8138305.43844  -6330716.93842  20279306.4884   20279302.3844
        58.0004         51.0004
  20891002.1684   -8614670.45544  -6708079.39742  20891003.7764   20890998.1984
        57.0004         50.0004
  23417840.1244   -5888601.19743  -4523235.57942  23417843.4414   23417840.1664
        45.0004         38.0004
  21135669.7994   -1035661.64943   -802060.90242  21135671.6164   21135667.4654
        56.0004         49.0004
  22863118.1054  -11732584.29743  -9078236.12942  22863118.6784   22863116.6954
        49.0004         42.0004
  24110639.5294   39092127.42743  30463341.51542  24110640.4354   24110634.9544
        45.0004         39.0004
  20926823.8594  -18582419.69943 -14458460.15742  20926825.7174   20926821.5144
        56.0004         49.0004
  22495325.0134  -13824835.90443 -10721187.16042  22495326.9234   22495323.9384
        51.0004         44.0004
  23487406.1314   -9450845.52443  -7147993.69742  23487409.1394   23487402.9084
        48.0004         40.0004
  24126909.1714   17050944.26743  13283795.20542  24126913.0804   24126908.5564
        46.0004         39.0004
  23014609.6394   -2886042.91643  -2228662.08142  23014611.6824   23014606.9494
        49.0004         44.0004
 05 10 14 20 40  0.0000000  0 11G 8G28G26G27G29G19G31G 7G11G13G17
  20276684.8164   -8152080.31044  -6341450.59842  20276685.3164   20276681.1394
        58.0004         51.0004
  20889370.5384   -8623244.36244  -6714760.36042  20889372.1554   20889366.2944
        57.0004         50.0004
  23402296.8524   -5970281.32343  -4586882.37642  23402299.1284   23402295.1054
        45.0004         38.0004
  21140805.5054   -1008672.80543   -781030.64242  21140807.6264   21140802.9874
        56.0004         49.0004
  22850346.7954  -11799699.01643  -9130533.27542  22850348.2104   22850345.4294
        49.0004         43.0004
  24128174.3054   39184274.70343  30535144.52842  24128175.8674   24128170.3914
        45.0004         39.0004
  20912474.5414  -18657826.43243 -14517218.62042  20912476.3414   20912471.8544
        56.0004         49.0004
  22478083.2894  -13915441.63443 -10791788.96542  22478085.7834   22478083.2974
        51.0004         44.0004
  23480146.9504   -9488988.58743  -7177715.51142  23480147.8384   23480145.7324
        49.0004         40.0004
  24148651.1634   17165196.69943  13372822.97242  24148654.6404   24148650.2974
        47.0004         38.0004
  22994930.7304   -2989456.08743  -2309243.68842  22994932.6174   22994928.4774
        50.0004         44.0004
 05 10 14 20 40 30.0000000  0 11G 8G28G26G27G29G19G31G 7G11G13G17
  20274128.6594   -8165514.51044  -6351918.80442  20274128.8454   20274124.4594
        58.0004         51.0004
  20887783.5804   -8631584.15744  -6721258.90242  20887784.9804   20887779.6714
        57.0004         50.0004
  23386828.9004   -6051569.23243  -4650223.55542  23386830.9204   23386827.6074
        45.0004         38.0004
  21146005.8924    -981345.33243   -759736.52242  21146007.8464   21146003.1334
        56.0004         49.0004
  22837653.9524  -11866400.27143  -9182508.26542  22837656.1524   22837651.6484
        49.0004         43.0004
  24145757.9014   39276676.94343  30607146.21742  24145758.4864   24145753.7484
        45.0004         39.0004
  20898212.9034  -18732772.01943 -14575617.75642  20898214.4704   20898210.0624
        56.0004         49.0004
  22460892.1674  -14005781.87443 -10862183.90942  22460893.7834   22460891.1034
        51.0004         44.0004
  23472958.4834   -9526763.06743  -7207150.13442  23472960.4444   23472957.8144
        47.0004         40.0004
  24170405.8504   17279518.17643  13461904.53742  24170408.0024   24170404.0034
        46.0004         38.0004
  22975290.8984   -3092666.00543  -2389666.92042  22975292.9674   22975288.9194
        50.0004         44.0004
 05 10 14 20 41  0.0000000  0 11G 8G28G26G27G29G19G31G 7G11G13G17
  20271636.9234   -8178609.04044  -6362122.33042  20271637.1864   20271632.7554
        58.0004         50.0004
  20886240.4284   -8639692.84343  -6727577.35842  20886242.3334   20886236.3654
        56.0004         50.0004
  23371435.0584   -6132464.15843  -4713258.51442  23371436.4934   23371433.1634
        46.0004         38.0004
  21151270.4294    -953680.33043   -738179.38842  21151272.3214   21151268.1224
        56.0004         49.0004
  22825039.7494  -11932688.00843  -9234161.01942  22825040.6854   22825037.5874
        49.0004         43.0004
  24163389.6884   39369329.47043  30679342.91042  24163389.3624   24163385.4334
        45.0004         39.0004
  20884038.6344  -18807256.17643 -14633657.33742  20884039.9864   20884036.6304
        56.0004         49.0004
  22443751.7344  -14095856.51343 -10932371.87642  22443752.9884   22443750.3484
        51.0004         44.0004
  23465840.9594   -9564168.48343  -7236297.15242  23465842.4024   23465838.9204
        48.0004         41.0004
  24192173.0474   17393903.86543  13551036.12542  24192175.8854   24192172.8994
        46.0004         38.0004
  22955688.9934   -3195671.89743  -2469931.17842  22955692.1924   22955687.2774
        50.0004         44.0004
 05 10 14 20 41 30.0000000  0 11G 8G28G26G27G29G19G31G 7G11G13G17
  20269210.7164   -8191357.70344  -6372056.35242  20269210.7894   20269206.7714
        58.0004         51.0004
  20884742.1734   -8647566.58744  -6733712.74242  20884743.7084   20884738.0534
        57.0004         50.0004
  23356117.4564   -6212959.16243  -4775981.82642  23356118.8044   23356116.1174
        45.0004         38.0004
  21156600.1764    -925671.98743   -716354.72042  21156601.7434   21156597.6594
        56.0004         49.0004
  22812505.4124  -11998555.52843  -9285486.34342  22812506.8224   22812504.1584
        49.0004         43.0004
  24181068.4394   39462234.08743  30751736.04942  24181069.9014   24181065.0934
        45.0004         39.0004
  20869954.3484  -18881272.23843 -14691332.17142  20869955.7684   20869951.6004
        56.0004         49.0004
  22426662.8444  -14185659.12643 -11002347.88242  22426663.8284   22426661.4534
        51.0004         44.0004
  23458794.4334   -9601198.35443  -7265151.54542  23458796.1154   23458793.0034
        49.0004         41.0004
  24213952.2584   17508355.84143  13640219.36742  24213954.0524   24213951.3664
        46.0004         38.0004
  22936128.3084   -3298466.90543  -2550031.10842  22936129.5654   22936125.5874
        49.0004         44.0004
 05 10 14 20 42  0.0000000  0 11G 8G28G26G27G29G19G31G 7G11G13G17
  20266850.2314   -8203762.15144  -6381722.14842  20266850.4684   20266846.2194
        57.0004         51.0004
  20883287.8954   -8655209.24944  -6739668.05842  20883289.7504   20883283.8134
        57.0004         50.0004
  23340875.8034   -6293054.61343  -4838393.80242  23340878.3934   23340875.7854
        47.0004         38.0004
  21161994.8754    -897322.87543   -694264.51742  21161996.5884   21161992.4954
        56.0004         49.0004
  22800051.1684  -12064003.60043  -9336484.81942  22800052.8724   22800047.5644
        49.0004         43.0004
  24198794.5904   39555385.43443  30824321.44842  24198795.5984   24198790.1674
        45.0004         39.0004
  20855958.5994  -18954820.86743 -14748642.76742  20855960.1024   20855955.4834
        56.0004         49.0004
  22409625.4374  -14275190.61443 -11072112.62542  22409626.8074   22409623.4894
        52.0004         44.0004
  23451819.2224   -9637853.54343  -7293713.97442  23451821.8864   23451817.4664
        48.0004         41.0004
  24235743.1544   17622868.27343  13729449.70442  24235745.7924   24235742.3804
        46.0004         38.0004
  22916606.2214   -3401051.93343  -2629967.43342  22916609.9534   22916604.1884
        49.0004         44.0004
 05 10 14 20 42 30.0000000  0 10G 8G28G26G27G29G19G31G 7G11G17
  20264555.8034   -8215820.07144  -6391117.92542  20264556.4854   20264551.6384
        58.0004         50.0004
  20881877.4674   -8662620.76644  -6745443.26442  20881879.2204   20881873.0634
        57.0004         50.0004
  23325711.0594   -6372746.69143  -4900491.48942  23325711.8744   23325709.5794
        46.0004         38.0004
  21167454.9864    -868631.55743   -671907.65342  21167456.3724   21167452.2374
        56.0004         49.0004
  22787677.1694  -12129029.08043  -9387154.00842  22787679.2844   22787674.3844
        49.0004         43.0004
  24216566.6084   39648781.90543  30897097.84742  24216568.2144   24216563.3004
        45.0004         39.0004
  20842051.8754  -19027898.94943 -14805586.70742  20842053.9384   20842049.3204
        56.0004         49.0004
  22392640.3874  -14364447.84443 -11141663.64242  22392642.2054   22392638.2864
        51.0004         44.0004
  23444915.5224   -9674130.63943  -7321981.78542  23444918.1124   23444912.2274
        49.0004         40.0004
  22897126.1994   -3503423.07743  -2709737.08942  22897128.7834   22897123.7134
        50.0004         44.0004
 05 10 14 20 43  0.0000000  0 10G 8G28G26G27G29G19G31G 7G11G17
  20262327.3194   -8227530.32644  -6400242.79442  20262327.6434   20262323.1564
        57.0004         50.0004
  20880510.6864   -8669802.31044  -6751039.27042  20880512.2734   20880506.7904
        57.0004         50.0004
  23310622.9504   -6452033.48843  -4962273.33742  23310626.0144   23310620.7774
        46.0004         38.0004
  21172979.8474    -839597.26743   -649283.54442  21172981.6804   21172977.1574
        56.0004         49.0004
  22775384.1574  -12193630.17443  -9437492.49642  22775385.1154   22775381.8744
        50.0004         43.0004
  24234385.5854   39742420.25943  30970062.71742  24234388.0604   24234382.1604
        45.0004         39.0004
  20828235.4384  -19100504.70743 -14862162.60042  20828237.2414   20828233.0994
        56.0004         49.0004
  22375707.7144  -14453429.23643 -11210999.74142  22375708.7464   22375705.6764
        52.0004         44.0004
  23438084.6804   -9710027.70943  -7349953.48342  23438085.1064   23438081.8894
        47.0004         40.0004
  22877686.3104   -3605578.71543  -2789338.82342  22877688.7204   22877682.6724
        50.0004         44.0004
 05 10 14 20 43 30.0000000  0 10G 8G28G26G27G29G19G31G 7G11G17
  20260165.6614   -8238890.39944  -6409094.79842  20260165.9094   20260161.2264
        58.0004         50.0004
  20879188.0944   -8676753.38643  -6756455.69842  20879189.3054   20879184.0054
        56.0004         50.0004
  23295613.4704   -6530910.96143  -5023736.24842  23295615.1014   23295611.4284
        47.0004         38.0004
  21178570.5534    -810217.95743   -626390.59542  21178572.0234   21178567.5644
        56.0004         49.0004
  22763172.4834  -12257803.53343  -9487497.69942  22763174.8994   22763170.2044
        50.0004         43.0004
  24252250.8964   39836299.29443  31043215.11842  24252252.3684   24252248.8104
        45.0004         39.0004
  20814509.7904  -19172634.74843 -14918367.80842  20814511.2074   20814507.2234
        56.0004         49.0004
  22358828.0474  -14542131.55643 -11280118.37542  22358828.6904   22358826.3344
        51.0004         44.0004
  23431326.1194   -9745541.35643  -7377626.38842  23431329.8274   23431324.5724
        47.0004         40.0004
  22858288.3604   -3707515.05043  -2868769.67342  22858290.0154   22858285.5674
        50.0004         44.0004
 05 10 14 20 44  0.0000000  0 10G 8G28G26G27G29G19G31G 7G11G17
  20258070.4294   -8249900.67344  -6417674.22942  20258070.7474   20258065.9344
        58.0004         50.0004
  20877908.7174   -8683476.36044  -6761694.36942  20877910.2804   20877904.6494
        57.0004         50.0004
  23280681.1824   -6609378.37343  -5084879.63742  23280682.6104   23280680.6334
        46.0004         39.0004
  21184226.4474    -780494.97743   -603229.84542  21184228.1534   21184224.0294
        56.0004         49.0004
  22751042.0074  -12321548.78443  -9537169.30242  22751043.1354   22751039.7974
        50.0004         43.0004
  24270160.5924   39930414.83943  31116551.82642  24270160.7004   24270156.7654
        45.0004         39.0004
  20800874.5094  -19244288.82143 -14974202.12642  20800876.3244   20800871.8354
        56.0004         49.0004
  22342001.5944  -14630554.46843 -11349019.30342  22342003.7404   22342000.2744
        51.0004         44.0004
  23424642.0194   -9780671.22543  -7405000.27142  23424643.4354   23424639.2004
        48.0004         40.0004
  22838932.1554   -3809231.42943  -2948029.13742  22838934.6524   22838929.7954
        50.0004         44.0004
 05 10 14 20 44 30.0000000  0  9G 8G28G26G27G29G31G 7G11G17
  20256042.3444   -8260557.65644  -6425978.36642  20256042.9014   20256038.1934
        58.0004         50.0004
  20876672.9784   -8689970.78443  -6766754.96142  20876674.7674   20876668.6954
        56.0004         50.0004
  23265828.1584   -6687431.37243  -5145700.11342  23265830.0914   23265825.3754
        47.0004         39.0004
  21189948.5854    -750425.77843   -579799.31642  21189950.4584   21189946.1934
        56.0004         49.0004
  22738994.0734  -12384862.06443  -9586504.30642  22738996.1964   22738991.4294
        50.0004         43.0004
  20787330.2714  -19315463.27544 -15029662.71842  20787331.7044   20787327.7014
        57.0004         49.0004
  22325229.4304  -14718694.16443 -11417699.52342  22325231.0334   22325227.7934
        51.0004         44.0004
  23418030.5024   -9815413.24043  -7432071.93642  23418032.4714   23418028.8214
        48.0004         40.0004
  22819619.0324   -3910723.61943  -3027113.89842  22819621.4784   22819616.9564
        50.0004         44.0004
 05 10 14 20 45  0.0000000  0  9G 8G28G26G27G29G31G 7G11G17
  20254081.0634   -8270865.01544  -6434010.06942  20254081.2194   20254076.7734
        57.0004         50.0004
  20875479.3504   -8696242.55944  -6771642.06042  20875481.1694   20875475.3894
        57.0004         50.0004
  23251053.6344   -6765072.39843  -5206199.55942  23251056.1794   23251053.0894
        47.0004         39.0004
  21195735.6084    -720014.54843   -556102.27142  21195737.3924   21195733.1334
        56.0004         49.0004
  22727027.5414  -12447746.31143  -9635504.99242  22727029.2184   22727024.4544
        50.0004         43.0004
  20773877.1324  -19386160.92343 -15084751.77342  20773878.7184   20773874.0544
        56.0004         49.0004
  22308509.8974  -14806553.67443 -11486161.43042  22308510.7174   22308508.4924
        51.0004         44.0004
  23411492.7664   -9849770.35543  -7458843.68242  23411494.9674   23411490.0284
        48.0004         40.0004
  22800348.0594   -4011994.39443  -3106026.14742  22800349.8634   22800346.0534
        50.0004         44.0004
 05 10 14 20 45 30.0000000  0  9G 8G28G26G27G29G31G 7G11G17
  20252188.0314   -8280812.61944  -6441761.44642  20252188.3634   20252183.8534
        57.0004         50.0004
  20874329.9094   -8702283.37344  -6776349.18442  20874331.6064   20874325.9464
        57.0004         50.0004
  23236359.3374   -6842290.22143  -5266369.23842  23236362.1214   23236357.1284
        47.0004         40.0004
  21201589.6864    -689251.59743   -532131.16242  21201591.4494   21201587.1124
        56.0004         49.0004
  22715144.5654  -12510190.52743  -9684162.79842  22715145.8144   22715142.6084
        50.0004         43.0004
  20760516.4624  -19456370.96844 -15139460.87742  20760518.2524   20760513.5104
        57.0004         49.0004
  22291846.3604  -14894122.27743 -11554396.65942  22291847.1324   22291844.9394
        51.0004         44.0004
  23405029.9244   -9883731.73843  -7485307.06842  23405032.5664   23405026.7514
        48.0004         40.0004
  22781120.9694   -4113032.63843  -3184757.18842  22781123.0194   22781118.4424
        50.0004         45.0004
 05 10 14 20 46  0.0000000  0  9G 8G28G26G27G29G31G 7G11G17
  20250362.3544   -8290406.20444  -6449236.96542  20250362.7084   20250358.3984
        57.0004         50.0004
  20873222.9064   -8708100.84243  -6780882.27542  20873224.3044   20873219.1734
        56.0004         50.0004
  23221744.8044   -6919088.96443  -5326212.35642  23221746.3984   23221743.1204
        48.0004         40.0004
  21207509.3994    -658143.23343   -507890.90042  21207511.2794   21207507.3584
        56.0004         49.0004
  22703344.6314  -12572199.56743  -9732481.50442  22703346.5524   22703342.7504
        49.0004         43.0004
  20747247.6984  -19526098.34743 -15193793.87942  20747249.4524   20747244.9954
        56.0004         49.0004
  22275237.2584  -14981404.73443 -11622408.91242  22275237.8904   22275235.8454
        51.0004         44.0004
  23398641.5164   -9917301.87543  -7511465.58642  23398643.0944   23398638.6134
        48.0004         41.0004
  22761937.6544   -4213842.41943  -3263310.21342  22761939.9554   22761934.9704
        51.0004         45.0004
 05 10 14 20 46 30.0000000  0  9G 8G28G26G27G29G31G 7G11G17
  20248605.0924   -8299641.93644  -6456433.64042  20248605.3654   20248600.5824
        58.0004         50.0004
  20872158.4664   -8713693.56743  -6785240.24042  20872160.3774   20872154.6314
        56.0004         50.0004
  23207211.2094   -6995463.87943  -5385725.22742  23207215.1604   23207210.9014
        47.0004         40.0004
  21213495.0844    -626686.65943   -483379.30042  21213496.9734   21213493.0774
        56.0004         48.0004
  22691628.4454  -12633768.93443  -9780457.61942  22691629.1274   22691626.4094
        50.0004         43.0004
  20734071.4844  -19595338.59544 -15247747.29442  20734073.3434   20734068.9664
        57.0004         49.0004
  22258683.3254  -15068396.69343 -11690194.81042  22258683.8134   22258681.1954
        51.0004         44.0004
  23392328.9384   -9950476.16243  -7537315.68042  23392330.8574   23392326.6264
        48.0004         40.0004
  22742798.1094   -4314419.15443  -3341681.63342  22742800.4544   22742795.6534
        51.0004         45.0004
 05 10 14 20 47  0.0000000  0  9G 8G28G26G27G29G31G 7G11G17
  20246915.1854   -8308520.80144  -6463352.23942  20246915.7574   20246911.0964
        57.0004         50.0004
  20871136.3644   -8719065.17544  -6789425.90642  20871137.8534   20871132.6804
        57.0004         50.0004
  23192758.4374   -7071414.98543  -5444907.82442  23192761.8274   23192755.0164
        47.0004         39.0004
  21219547.0924    -594883.93543   -458597.97442  21219548.6864   21219545.0864
        55.0004         48.0004
  22679995.7494  -12694899.23543  -9828091.60142  22679997.0294   22679993.1154
        50.0004         43.0004
  20720988.1974  -19664092.48843 -15301321.73242  20720989.7674   20720985.3114
        56.0004         49.0004
  22242184.3844  -15155098.86343 -11757754.88742  22242185.4434   22242182.6774
        51.0004         45.0004
  23386090.8554   -9983255.22643  -7562857.78442  23386090.9924   23386088.9304
        48.0004         40.0004
  22723703.6514   -4414762.90643  -3419871.50542  22723705.7504   22723701.0904
        51.0004         45.0004
 05 10 14 20 47 30.0000000  0  9G 8G28G26G27G29G31G 7G11G17
  20245294.7564   -8317036.97744  -6469988.22242  20245295.0424   20245290.6184
        58.0004         50.0004
  20870157.1124   -8724211.59943  -6793436.10342  20870158.5324   20870153.2854
        56.0004         50.0004
  23178387.0954   -7146935.11843  -5503754.64242  23178388.8804   23178384.3484
        47.0004         39.0004
  21225665.8974    -562729.47643   -433542.57242  21225667.8394   21225663.5164
        55.0004         48.0004
  22668447.5554  -12755583.73343  -9875378.21242  22668449.6644   22668445.4204
        50.0004         43.0004
  20707998.7314  -19732353.32144 -15354511.96742  20708000.1554   20707996.1124
        57.0004         49.0004
  22225741.5044  -15241504.57843 -11825083.97742  22225742.3844   22225739.7074
        51.0004         44.0004
  23379929.8194  -10015632.53343  -7588086.83942  23379930.2364   23379930.0194
        48.0004         40.0004
  22704654.1814   -4514866.88643  -3497874.55542  22704656.7204   22704652.5844
        51.0004         45.0004
 05 10 14 20 48  0.0000000  0  9G 8G28G26G27G29G31G 7G11G17
  20243743.0804   -8325191.33644  -6476342.26942  20243743.2444   20243738.7464
        57.0004         50.0004
  20869220.1524   -8729136.14744  -6797273.40742  20869221.4004   20869216.3464
        57.0004         50.0004
  23164098.3884   -7222024.20743  -5562265.57942  23164099.7154   23164097.7304
        48.0004         40.0004
  21231851.2684    -530225.10743   -408214.51442  21231852.6884   21231848.9574
        55.0004         48.0004
  22656984.8664  -12815822.88943  -9922317.79942  22656987.2504   22656982.0144
        50.0004         43.0004
  20695102.7874  -19800121.42943 -15407318.26042  20695104.2664   20695100.3434
        56.0004         50.0004
  22209355.3354  -15327614.42843 -11892182.51642  22209356.1644   22209353.2064
        51.0004         45.0004
  23373845.1394  -10047608.15943  -7613002.89342  23373845.8424   23373842.9674
        48.0004         40.0004
  22685650.2534   -4614731.28543  -3575690.90942  22685652.5244   22685648.2514
        51.0004         45.0004
 05 10 14 20 48 30.0000000  0  9G 8G28G26G27G29G31G 7G11G17
  20242260.3894   -8332982.37444  -6482413.21042  20242260.6774   20242256.4564
        57.0004         50.0004
  20868325.1444   -8733839.33343  -6800938.22542  20868326.6384   20868321.2784
        56.0004         50.0004
  23149891.6494   -7296679.37843  -5620438.41742  23149895.0154   23149891.0754
        48.0004         40.0004
  21238103.5694    -497369.85143   -382613.03842  21238104.9634   21238101.3114
        55.0004         48.0004
  22645606.7304  -12875614.39443  -9968908.56642  22645608.0844   22645605.0034
        50.0004         44.0004
  20682301.2724  -19867394.45144 -15459738.77542  20682302.5814   20682298.1934
        57.0004         50.0004
  22193026.0544  -15413425.88343 -11959048.53742  22193026.8984   22193024.9634
        51.0004         45.0004
  23367836.7624  -10079179.56843  -7637603.95742  23367838.0824   23367832.6044
        47.0004         40.0004
  22666692.8624   -4714353.35143  -3653318.43842  22666695.1264   22666690.8044
        51.0004         45.0004
 05 10 14 20 49  0.0000000  0  9G 8G28G26G27G29G31G 7G11G17
  20240847.3984   -8340409.44244  -6488200.53642  20240847.6184   20240843.4014
        57.0004         50.0004
  20867471.8064   -8738323.10744  -6804432.07242  20867473.4604   20867467.4844
        57.0004         50.0004
  23135768.2254   -7370899.44943  -5678272.19742  23135770.8824   23135767.1274
        48.0004         40.0004
  21244422.3474    -464163.98943   -356738.35942  21244424.2364   21244420.3654
        55.0004         48.0004
  22634313.8124  -12934957.50443 -10015149.93642  22634315.1354   22634311.3964
        50.0004         43.0004
  20669593.9914  -19934171.92244 -15511773.14242  20669595.6264   20669591.3114
        57.0004         50.0004
  22176753.4064  -15498938.43243 -12025681.64442  22176754.5594   22176752.1324
        51.0004         45.0004
  23361906.0034  -10110346.23743  -7661889.66442  23361908.4404   23361903.7544
        47.0004         40.0004
  22647781.7704   -4813731.88043  -3730756.18842  22647783.8314   22647779.7874
        51.0004         46.0004
 05 10 14 20 49 30.0000000  0  9G 8G28G26G27G29G31G 7G11G17
  20239503.7764   -8347469.49544  -6493701.88342  20239503.9884   20239499.8924
        58.0004         51.0004
  20866660.6044   -8742586.26944  -6807754.01542  20866662.1904   20866656.5844
        57.0004         50.0004
  23121728.3184   -7444679.60043  -5735763.17642  23121730.3014   23121724.8224
        47.0004         39.0004
  21250808.8004    -430604.95243   -330588.47742  21250810.4314   21250806.3414
        55.0004         48.0004
  22623107.5844  -12993847.63643 -10061038.32942  22623110.2994   22623105.7614
        50.0004         43.0004
  20656981.4204  -20000449.51744 -15563418.00142  20656983.2414   20656979.1864
        57.0004         50.0004
  22160538.6774  -15584147.71143 -12092078.42342  22160539.5244   22160537.1514
        52.0004         45.0004
  23356053.2684  -10141103.50343  -7685856.35442  23356055.2014   23356050.1624
        48.0004         40.0004
  22628918.2614   -4912861.83443  -3808000.25742  22628920.1904   22628915.8054
        51.0004         46.0004
 05 10 14 20 50  0.0000000  0  9G 8G28G26G27G29G31G 7G11G17
  20238229.8444   -8354164.58944  -6498918.84242  20238230.1334   20238225.8084
        58.0004         51.0004
  20865890.5714   -8746632.88544  -6810907.22342  20865892.1834   20865886.3814
        57.0004         50.0004
  23107772.2704   -7518020.96443  -5792912.25642  23107772.0394   23107772.2544
        47.0004         40.0004
  21257261.4904    -396695.34043   -304165.42142  21257262.9064   21257258.8744
        55.0004         48.0004
  22611986.8124  -13052286.45943 -10106575.07042  22611987.7504   22611985.0964
        50.0004         44.0004
  20644464.2764  -20066228.79244 -15614674.55042  20644465.7094   20644461.6894
        57.0004         50.0004
  22144381.0694  -15669055.32943 -12158240.15942  22144382.8624   22144379.0224
        52.0004         45.0004
  23350277.7444  -10171452.95643  -7709505.26142  23350279.0944   23350274.9954
        48.0004         40.0004
  22610101.1274   -5011744.69343  -3885051.78142  22610103.2364   22610099.5124
        52.0004         46.0004
 05 10 14 20 50 30.0000000  0  9G 8G28G26G27G29G31G 7G11G17
  20237026.4924   -8360488.12244  -6503846.27242  20237026.8334   20237022.2624
        58.0004         50.0004
  20865162.3324   -8750459.11244  -6813888.69642  20865163.9464   20865158.2654
        57.0004         50.0004
  23093900.5514   -7590916.11343  -5849713.62942  23093902.1014   23093896.1154
        48.0004         40.0004
  21263781.6634    -362429.97243   -277465.15542  21263783.5454   21263779.4084
        55.0004         48.0004
  22600953.4974  -13110267.24643 -10151754.89242  22600955.0134   22600952.2204
        51.0004         44.0004
  20632043.1404  -20131503.00044 -15665537.54642  20632044.5774   20632040.4224
        57.0004         50.0004
  22128282.5244  -15753654.51743 -12224161.54742  22128283.6784   22128281.7004
        52.0004         45.0004
  23344581.6364  -10201387.77843  -7732831.05542  23344583.8674   23344578.7974
        48.0004         40.0004
  22591332.3984   -5110373.46043  -3961905.32042  22591335.0494   22591331.1614
        51.0004         46.0004
 05 10 14 20 51  0.0000000  0  9G 8G28G26G27G29G31G 7G11G17
  20235893.1644   -8366443.60744  -6508486.91742  20235893.6794   20235889.0094
        58.0004         51.0004
  20864475.3684   -8754070.06043  -6816702.42542  20864476.7454   20864471.1404
        56.0004         50.0004
  23080113.5784   -7663367.14643  -5906168.95542  23080115.9854   23080110.8854
        48.0004         41.0004
  21270369.3884    -327812.45743   -250490.48642  21270370.9214   21270366.8284
        55.0004         48.0004
  22590006.6874  -13167792.44843 -10196579.70542  22590007.6724   22590003.6024
        50.0004         44.0004
  20619717.3054  -20196275.09844 -15716009.28542  20619719.0804   20619714.4574
        57.0004         50.0004
  22112241.5454  -15837947.91043 -12289844.66742  22112243.2014   22112240.4924
        51.0004         45.0004
  23338963.2434  -10230910.58043  -7755835.78842  23338965.2344   23338962.1614
        48.0004         40.0004
  22572612.1954   -5208750.13443  -4038562.41142  22572614.6754   22572611.0524
        52.0004         46.0004
 05 10 14 20 51 30.0000000  0  9G 8G28G26G27G29G31G 7G11G17
  20234830.2014   -8372028.95344  -6512839.13742  20234830.7284   20234826.2794
        57.0004         50.0004
  20863829.1354   -8757466.12243  -6819348.70542  20863830.4244   20863824.7664
        56.0004         50.0004
  23066411.5384   -7735371.26043  -5962276.00542  23066414.6194   23066411.3194
        48.0004         40.0004
  21277024.0274    -292842.11743   -223240.88942  21277025.6464   21277021.6114
        55.0004         48.0004
  22579147.3444  -13224859.76443 -10241047.73142  22579149.5674   22579144.4474
        51.0004         44.0004
  20607487.5474  -20260542.84844 -15766088.03042  20607488.9124   20607484.8034
        57.0004         50.0004
  22096260.0684  -15921933.25143 -12355287.72842  22096260.8184   22096258.8354
        52.0004         45.0004
  23333424.3374  -10260018.78443  -7778517.46142  23333426.1224   23333421.9194
        49.0004         40.0004
  22553940.4174   -5306871.83443  -4115020.83142  22553942.7014   22553938.5774
        52.0004         46.0004
 05 10 14 20 52  0.0000000  0  9G 8G28G26G27G29G31G 7G11G17
  20233839.1594   -8377238.03544  -6516898.16742  20233839.3994   20233834.9164
        57.0004         51.0004
  20863224.4544   -8760643.15543  -6821824.31842  20863226.0594   20863220.4644
        56.0004         50.0004
  23052796.1024   -7806920.97643  -6018028.99042  23052797.7124   23052794.0034
        48.0004         40.0004
  21283746.7894    -257513.36643   -195712.01642  21283748.6994   21283744.7504
        55.0004         48.0004
  22568376.3514  -13281462.17143 -10285153.50742  22568378.7794   22568374.2494
        51.0004         44.0004
  20595355.1714  -20324299.22344 -15815768.29842  20595356.4484   20595352.5004
        57.0004         50.0004
  22080337.8614  -16005603.55443 -12420485.32042  22080339.3924   22080337.2564
        52.0004         45.0004
  23327965.4664  -10288705.48443  -7800870.66542  23327966.9704   23327964.9724
        48.0004         40.0004
  22535318.3704   -5404731.28043  -4191274.88342  22535321.1944   22535316.0934
        52.0004         46.0004
 05 10 14 20 52 30.0000000  0  9G 8G28G26G27G29G31G 7G11G17
  20232919.1104   -8382073.05444  -6520665.71842  20232919.3234   20232914.8734
        58.0004         51.0004
  20862660.7564   -8763605.40044  -6824132.56642  20862662.1394   20862656.7444
        57.0004         50.0004
  23039266.9104   -7878017.18643  -6073428.60442  23039270.1134   23039262.1674
        48.0004         40.0004
  21290537.5334    -221828.87943   -167905.94242  21290539.2744   21290535.2244
        55.0004         48.0004
  22557693.0124  -13337601.04343 -10328898.07242  22557695.6624   22557691.0434
        51.0004         44.0004
  20583319.6024  -20387545.85544 -15865051.36642  20583321.4524   20583317.0904
        57.0004         50.0004
  22064475.2794  -16088960.28643 -12485438.55742  22064477.3694   22064475.0624
        52.0004         45.0004
  23322586.2934  -10316972.03843  -7822896.49542  23322588.5474   23322583.1594
        47.0004         40.0004
  22516745.9474   -5502329.61543  -4267325.48342  22516748.2004   22516744.3554
        52.0004         46.0004
 05 10 14 20 53  0.0000000  0  9G 8G28G26G27G29G31G 7G11G17
  20232070.0194   -8386534.90844  -6524142.48942  20232070.1314   20232065.7634
        58.0004         51.0004
  20862137.2024   -8766356.19144  -6826276.04842  20862138.7724   20862133.6134
        57.0004         50.0004
  23025823.9344   -7948660.16743  -6128475.04342  23025825.9764   23025822.0444
        48.0004         40.0004
  21297395.3514    -185790.89943   -139824.42042  21297396.7284   21297392.9964
        55.0004         48.0004
  22547098.6344  -13393277.24143 -10372282.10842  22547100.5624   22547096.5414
        51.0004         44.0004
  20571380.8014  -20450283.44644 -15913937.77942  20571382.3624   20571378.1604
        57.0004         50.0004
  22048673.0564  -16172004.06243 -12550147.93342  22048674.2964   22048671.0244
        52.0004         45.0004
  23317287.2754  -10344818.93343  -7844595.28542  23317289.7794   23317285.9114
        48.0004         40.0004
  22498222.9434   -5599666.88543  -4343172.65042  22498225.4434   22498221.5694
        52.0004         46.0004
 05 10 14 20 53 30.0000000  0  9G 8G28G26G27G29G31G 7G11G17
  20231292.3024   -8390621.87144  -6527327.13542  20231292.5164   20231287.8914
        58.0004         51.0004
  20861654.2564   -8768895.50443  -6828254.73342  20861655.3984   20861649.9424
        56.0004         50.0004
  23012467.9834   -8018846.72543  -6183165.84242  23012469.7674   23012464.3034
        47.0004         40.0004
  21304320.5474    -149397.99743   -111466.33342  21304322.1644   21304318.3574
        55.0004         48.0004
  22536592.2324  -13448488.03843 -10415303.49842  22536594.5554   22536590.8954
        51.0004         44.0004
  20559539.8564  -20512509.72544 -15962425.76742  20559541.2384   20559536.6274
        57.0004         50.0004
  22032930.0634  -16254732.58143 -12614611.66142  22032930.8534   22032928.6074
        52.0004         45.0004
  23312068.6134  -10372243.69243  -7865965.16342  23312071.3454   23312068.1864
        48.0004         40.0004
  22479750.5994   -5696740.04743  -4418814.02142  22479752.8434   22479749.1194
        52.0004         46.0004
 05 10 14 20 54  0.0000000  0  9G 8G28G26G27G29G31G 7G11G17
  20230588.1764   -8394321.85044  -6530210.23442  20230588.7444   20230584.0574
        58.0004         51.0004
  20861213.0234   -8771213.42343  -6830060.90342  20861214.5234   20861209.0744
        56.0004         50.0004
  22999201.1724   -8088563.80543  -6237490.79842  22999204.4334   22999199.1114
        48.0004         41.0004
  21311315.7934    -112638.87543    -82822.87642  21311317.8234   21311312.7564
        55.0004         48.0004
  22526177.2514  -13503220.71143 -10457952.32342  22526177.9554   22526174.8114
        51.0004         44.0004
  20547798.0944  -20574211.98644 -16010505.42942  20547799.8964   20547795.0184
        57.0004         50.0004
  22017249.6104  -16337132.95543 -12678819.69142  22017251.7764   22017248.3104
        52.0004         45.0004
  23306932.3194  -10399233.65543  -7886996.21342  23306934.9014   23306931.3374
        48.0004         40.0004
  22461331.2264   -5793536.09343  -4494239.45242  22461333.5114   22461329.2664
        52.0004         46.0004
 05 10 14 20 54 30.0000000  0  9G 8G28G26G27G29G31G 7G11G17
  20229955.3134   -8397647.76844  -6532801.86142  20229955.8034   20229951.1254
        58.0004         51.0004
  20860811.1874   -8773324.94443  -6831706.24642  20860812.7744   20860807.3024
        56.0004         50.0004
  22986021.1024   -8157823.29343  -6291459.18742  22986023.2994   22986021.3674
        48.0004         41.0004
  21318377.5994     -75527.16643    -53904.68342  21318379.6884   21318375.1224
        55.0004         48.0004
  22515850.4394  -13557487.86743 -10500238.41542  22515851.8564   22515848.6724
        52.0004         44.0004
  20536153.7234  -20635402.82043 -16058186.57542  20536155.4454   20536151.1714
        56.0004         50.0004
  22001629.7384  -16419217.66743 -12742781.75442  22001630.8014   22001627.8714
        52.0004         45.0004
  23301876.9964  -10425801.04543  -7907698.00642  23301877.8614   23301875.3784
        48.0004         41.0004
  22442962.0014   -5890066.88043  -4569458.17742  22442964.2924   22442959.6584
        52.0004         46.0004
 05 10 14 20 55  0.0000000  0  9G 8G28G26G27G29G31G 7G11G17
  20229394.3694   -8400595.77644  -6535099.01142  20229394.4824   20229390.2564
        58.0004         51.0004
  20860448.8724   -8775228.71443  -6833189.70542  20860450.3584   20860444.6054
        56.0004         50.0004
  22972929.5674   -8226620.51843  -6345067.37342  22972932.4744   22972928.3934
        48.0004         40.0004
  21325507.5574     -38060.20443    -24709.67442  21325509.1624   21325505.4454
        55.0004         48.0004
  22505612.9054  -13611285.27543 -10542158.46742  22505615.1284   22505610.9424
        51.0004         44.0004
  20524607.5924  -20696078.23143 -16105466.09942  20524609.2814   20524605.1474
        56.0004         50.0004
  21986070.0784  -16500982.72243 -12806494.72742  21986071.4424   21986068.5744
        52.0004         45.0004
  23296902.0774  -10451941.86843  -7928067.40342  23296903.4514   23296900.9224
        48.0004         40.0004
  22424643.9144   -5986328.02143  -4644466.80542  22424646.4434   22424641.5324
        53.0004         46.0004
 05 10 14 20 55 30.0000000  0  9G 8G28G26G27G29G31G 7G11G17
  20228906.0954   -8403161.15644  -6537098.00642  20228906.4424   20228901.7594
        58.0004         51.0004
  20860126.9114   -8776921.58643  -6834508.82842  20860128.5484   20860122.8424
        56.0004         50.0004
  22959927.1084   -8294949.15843  -6398310.42942  22959929.7964   22959926.8804
        47.0004         40.0004
  21332705.6204       -233.56043      4765.60942  21332707.6354   21332703.4944
        55.0004         48.0004
  22495466.0194  -13664607.13643 -10583707.96142  22495468.8524   22495463.6244
        51.0004         44.0004
  20513160.7664  -20756232.39744 -16152339.44942  20513162.4074   20513157.7654
        57.0004         50.0004
  21970572.6484  -16582422.16143 -12869953.98042  21970573.6194   21970571.4074
        52.0004         45.0004
  23292010.1274  -10477650.20543  -7948099.81342  23292011.7214   23292006.0764
        48.0004         41.0004
  22406378.5004   -6082313.22643  -4719260.41042  22406380.8194   22406376.7164
        52.0004         46.0004
 05 10 14 20 56  0.0000000  0  9G 8G28G26G27G29G31G 7G11G17
  20228490.8164   -8405344.17444  -6538799.06242  20228491.0944   20228486.3414
        58.0004         51.0004
  20859844.4554   -8778406.26343  -6835665.71942  20859845.7464   20859840.3474
        56.0004         50.0004
  22947013.6414   -8362808.91443  -6451188.14442  22947014.7964   22947012.4084
        48.0004         41.0004
  21339971.8274      37951.25443     34519.99342  21339973.4114   21339969.6264
        55.0004         48.0004
  22485409.9094  -13717453.70143 -10624887.09242  22485411.3204   22485407.4204
        51.0004         44.0004
  20501812.8614  -20815865.68444 -16198806.92242  20501814.4994   20501810.1734
        57.0004         50.0004
  21955137.1574  -16663536.31543 -12933159.75942  21955138.2464   21955135.9314
        52.0004         45.0004
  23287200.0964  -10502926.20643  -7967795.32542  23287201.3314   23287198.1364
        48.0004         41.0004
  22388165.9574   -6178022.29443  -4793838.84242  22388167.9934   22388163.2144
        52.0004         46.0004
 05 10 14 20 56 30.0000000  0  9G 8G28G26G27G29G31G 7G11G17
  20228148.4534   -8407142.52944  -6540200.38042  20228148.6574   20228144.5264
        58.0004         51.0004
  20859601.4804   -8779682.77143  -6836660.40342  20859603.0994   20859597.6384
        56.0004         50.0004
  22934190.2294   -8430196.61143  -6503698.00742  22934193.0724   22934189.9794
        48.0004         40.0004
  21347306.8564      76495.83743     64554.71642  21347308.6724   21347304.5424
        55.0004         48.0004
  22475444.4424  -13769822.05443 -10665693.59142  22475445.8244   22475441.9344
        52.0004         44.0004
  20490564.6824  -20874975.47644 -16244866.48042  20490566.6974   20490561.9944
        57.0004         50.0004
  21939763.8944  -16744322.24943 -12996109.79442  21939765.5694   21939762.4394
        52.0004         46.0004
  23282473.1814  -10527767.13043  -7987151.84042  23282474.7614   23282473.0104
        48.0004         41.0004
  22370006.2944   -6273451.77943  -4868199.41942  22370007.5934   22370004.1224
        52.0004         46.0004
 05 10 14 20 57  0.0000000  0  9G 8G28G26G27G29G31G 7G11G17
  20227879.9284   -8408554.09544  -6541300.30742  20227879.9874   20227875.5034
        58.0004         51.0004
  20859398.3444   -8780750.67944  -6837492.53742  20859399.8514   20859394.1784
        57.0004         50.0004
  22921456.5924   -8497108.96543  -6555837.46942  22921459.0624   22921454.9234
        48.0004         41.0004
  21354710.4534     115401.47843     94870.77442  21354712.2324   21354708.2494
        55.0004         48.0004
  22465570.5344  -13821709.65443 -10706125.48042  22465572.1854   22465568.1674
        52.0004         44.0004
  20479416.7234  -20933559.35044 -16290516.23142  20479418.1914   20479413.9714
        57.0004         50.0004
  21924453.9254  -16824777.46943 -13058802.12542  21924455.1594   21924451.8984
        53.0004         46.0004
  23277829.7194  -10552170.17743  -8006167.13442  23277831.7764   23277827.3544
        49.0004         41.0004
  22351900.0714   -6368598.62043  -4942339.74842  22351902.0464   22351897.8984
        52.0004         46.0004
 05 10 14 20 57 30.0000000  0  9G 8G28G26G27G29G31G 7G11G17
  20227684.8004   -8409579.35644  -6542099.21542  20227685.1324   20227680.9664
        58.0004         51.0004
  20859234.1654   -8781612.49143  -6838164.07842  20859235.6594   20859230.0124
        56.0004         50.0004
  22908814.6364   -8563545.43443  -6607606.11742  22908816.1514   22908814.5924
        47.0004         40.0004
  21362182.4914     154666.93743    125467.21042  21362184.3344   21362180.0374
        55.0004         48.0004
  22455788.5434  -13873116.31343 -10746182.60342  22455790.1924   22455785.1474
        52.0004         44.0004
  20468368.3944  -20991617.40544 -16335756.25542  20468370.3144   20468365.9154
        57.0004         50.0004
  21909206.8564  -16904901.79343 -13121236.62542  21909208.0164   21909204.9884
        53.0004         46.0004
  23273268.9114  -10576135.15243  -8024841.09942  23273271.6754   23273269.0424
        49.0004         41.0004
  22333848.1804   -6463462.22843  -5016259.38642  22333850.1294   22333845.7504
        52.0004         46.0004
 05 10 14 20 58  0.0000000  0  9G 8G28G26G27G29G31G 7G11G17
  20227563.2294   -8410218.69344  -6542597.40342  20227563.3704   20227559.1134
        58.0004         51.0004
  20859109.1034   -8782270.78843  -6838677.03842  20859110.4244   20859104.8934
        56.0004         50.0004
  22896262.9814   -8629505.30243  -6659003.39142  22896266.2804   22896261.4064
        47.0004         40.0004
  21369722.6014     194290.97243    156343.06342  21369724.3944   21369720.5014
        55.0004         48.0004
  22446097.4514  -13924041.94043 -10785864.89242  22446099.1764   22446095.2454
        52.0004         44.0004
  20457420.2064  -21049149.76944 -16380586.64842  20457422.1334   20457417.2414
        57.0004         50.0004
  21894022.8104  -16984695.12943 -13183413.20642  21894024.0124   21894020.8624
        53.0004         46.0004
  23268791.9094  -10599662.20843  -8043173.82542  23268794.7224   23268790.2634
        48.0004         41.0004
  22315850.4174   -6558041.91043  -5089957.78642  22315852.1024   22315847.4594
        52.0004         46.0004
 05 10 14 20 58 30.0000000  0  9G 8G28G26G27G29G31G 7G11G17
  20227518.6024   -8410452.07744  -6542779.26642  20227518.9474   20227514.7754
        57.0004         51.0004
  20859025.8244   -8782707.62243  -6839017.42742  20859027.2844   20859021.6564
        56.0004         50.0004
  22883805.7774   -8694967.50043  -6710012.86442  22883807.4634   22883804.0454
        47.0004         41.0004
  21377334.8304     234292.76743    187513.26542  21377336.5484   21377332.6334
        55.0004         48.0004
  22436502.1224  -13974466.04743 -10825156.39442  22436503.5454   22436499.4754
        52.0004         44.0004
  20446576.2044  -21106136.02644 -16424991.50242  20446577.7384   20446573.6554
        57.0004         50.0004
  21878905.4474  -17064136.91243 -13245315.85542  21878906.9224   21878903.9214
        53.0004         46.0004
  23264401.9824  -10622730.68743  -8061149.23142  23264403.7324   23264399.4484
        48.0004         41.0004
  22297910.0574   -6652316.58843  -5163418.51442  22297911.3124   22297907.6584
        52.0004         46.0004
 05 10 14 20 59  0.0000000  0  9G 8G28G26G27G29G31G 7G11G17
  20227544.9444   -8410314.52244  -6542672.08642  20227545.1804   20227540.9584
        57.0004         50.0004
  20858977.8624   -8782959.66743  -6839213.82742  20858979.2034   20858973.9034
        56.0004         50.0004
  22871436.9484   -8759965.78043  -6760660.86142  22871439.2934   22871433.6664
        47.0004         40.0004
  21385012.1764     274636.84343    218950.17742  21385014.0984   21385010.3364
        55.0004         48.0004
  22426995.5154  -14024422.87743 -10864083.78642  22426997.7024   22426993.3114
        51.0004         44.0004
  20435829.5534  -21162610.53744 -16468997.59442  20435831.3074   20435826.6084
        57.0004         50.0004
  21863848.8384  -17143261.30643 -13306971.18842  21863849.7714   21863846.8964
        53.0004         46.0004
  23260093.1174  -10645374.57343  -8078793.77742  23260094.4264   23260090.1304
        48.0004         41.0004
  22280021.9624   -6746319.88643  -5236667.77842  22280024.0114   22280019.5284
        52.0004         47.0004
 05 10 14 20 59 30.0000000  0  9G 8G28G26G27G29G31G 7G11G17
  20227646.5504   -8409780.40944  -6542255.90142  20227646.7374   20227642.2844
        58.0004         50.0004
  20858969.5274   -8783003.49343  -6839247.97742  20858970.9174   20858965.3394
        56.0004         50.0004
  22859161.3844   -8824474.09543  -6810927.06542  22859162.8614   22859158.9464
        47.0004         40.0004
  21392758.8684     315347.07443    250672.40342  21392760.5544   21392756.4014
        55.0004         48.0004
  22417582.9834  -14073886.87643 -10902627.15442  22417584.9424   22417580.1864
        52.0004         45.0004
  20425185.0254  -21218547.72244 -16512584.98842  20425186.5884   20425182.3604
        57.0004         50.0004
  21848857.0554  -17222042.66843 -13368359.23242  21848858.7274   21848854.8934
        53.0004         46.0004
  23255870.5384  -10667568.35043  -8096087.61342  23255870.3474   23255865.7144
        49.0004         41.0004
  22262190.3184   -6840026.01743  -5309685.48242  22262192.8114   22262188.2124
        53.0004         47.0004
 05 10 14 21  0  0.0000000  0  9G 8G28G26G27G29G31G 7G11G17
  20227823.1624   -8408852.24844  -6541532.66742  20227822.9614   20227818.8044
        58.0004         50.0004
  20858999.9424   -8782843.77344  -6839123.52042  20859001.1604   20858995.8574
        57.0004         50.0004
  22846978.5454   -8888493.82643  -6860812.53042  22846980.4344   22846977.4354
        47.0004         40.0004
  21400574.9544     356420.60243    282677.71742  21400576.9894   21400572.7584
        55.0004         48.0004
  22408263.7224  -14122859.69743 -10940787.77642  22408265.2344   22408261.2254
        52.0004         45.0004
  20414642.3124  -21273949.94744 -16555755.53442  20414643.7644   20414639.5354
        57.0004         50.0004
  21833930.0674  -17300483.04843 -13429481.57042  21833931.5174   21833928.3644
        53.0004         46.0004
  23251731.7254  -10689314.13743  -8113032.37342  23251731.7694   23251730.9554
        49.0004         41.0004
  22244414.7064   -6933436.43443  -5382472.77642  22244416.7634   22244412.4244
        52.0004         47.0004
 05 10 14 21  0 30.0000000  0  9G 8G28G26G27G29G31G 7G11G17
  20228074.6934   -8407530.77644  -6540502.95542  20228074.8964   20228070.7564
        58.0004         50.0004
  20859068.5734   -8782483.09044  -6838842.46842  20859069.7804   20859064.6194
        57.0004         50.0004
  22834889.5144   -8952024.72643  -6910317.10342  22834891.1554   22834888.4824
        48.0004         40.0004
  21408460.2314     397856.25243    314965.20542  21408462.0724   21408457.5264
        55.0004         48.0004
  22399037.8854  -14171341.92343 -10978566.12542  22399040.1024   22399035.7134
        51.0004         45.0004
  20404201.4384  -21328817.56844 -16598509.50442  20404202.9294   20404198.3944
        57.0004         50.0004
  21819068.3934  -17378582.38143 -13490338.16342  21819070.0104   21819067.0254
        54.0004         46.0004
  23247678.4804  -10710612.15243  -8129628.19242  23247682.3384   23247676.9064
        48.0004         41.0004
  22226695.9494   -7026550.48643  -5455029.13042  22226697.3504   22226693.4294
        52.0004         47.0004
 05 10 14 21  1  0.0000000  0  9G 8G28G26G27G29G31G 7G11G17
  20228401.6574   -8405812.41544  -6539163.98042  20228401.8144   20228397.3714
        58.0004         50.0004
  20859175.7254   -8781919.57544  -6838403.36342  20859177.2304   20859171.8404
        57.0004         50.0004
  22822893.4904   -9015061.88243  -6959436.94742  22822896.9084   22822893.2924
        48.0004         41.0004
  21416414.3344     439656.63543    347536.90342  21416416.0394   21416412.0004
        55.0004         48.0004
  22389905.9764  -14219328.90343 -11015958.56342  22389907.7114   22389902.8344
        52.0004         45.0004
  20393863.0674  -21383146.61444 -16640843.80442  20393864.5584   20393859.8474
        57.0004         50.0004
  21804272.2684  -17456336.55743 -13550925.80142  21804273.7414   21804270.3124
        54.0004         46.0004
  23243711.8774  -10731457.84643  -8145871.59642  23243715.1394   23243710.7024
        49.0004         41.0004
  22209034.0024   -7119363.15843  -5527350.64842  22209036.1394   22209031.8864
        53.0004         47.0004
 05 10 14 21  1 30.0000000  0  9G 8G28G26G27G29G31G 7G11G17
  20228803.2224   -8403701.34544  -6537518.99942  20228803.5414   20228799.2884
        57.0004         50.0004
  20859320.3864   -8781160.06644  -6837811.53642  20859322.0664   20859316.2584
        57.0004         50.0004
  22810991.1654   -9077608.94543  -7008174.88142  22810993.1694   22810991.2344
        47.0004         40.0004
  21424436.9644     481816.29943    380388.56342  21424438.8634   21424434.3544
        55.0004         48.0004
  22380868.2714  -14266825.21743 -11052968.66942  22380870.0604   22380865.6264
        52.0004         45.0004
  20383625.9884  -21436941.49144 -16682761.86842  20383627.4834   20383623.2324
        57.0004         50.0004
  21789540.8934  -17533749.80743 -13611247.78642  21789542.2854   21789539.2844
        54.0004         47.0004
  23239830.8494  -10751855.67943  -8161766.00342  23239833.3224   23239827.8964
        49.0004         42.0004
  22191429.1964   -7211878.51743  -5599440.49242  22191430.6924   22191426.7914
        52.0004         47.0004
 05 10 14 21  2  0.0000000  0  9G 8G28G26G27G29G31G 7G11G17
  20229281.6684   -8401188.73944  -6535561.13442  20229281.9944   20229277.4064
        58.0004         51.0004
  20859503.6534   -8780197.09544  -6837061.16642  20859505.3254   20859499.5304
        57.0004         50.0004
  22799184.1834   -9139655.76943  -7056523.03142  22799186.5184   22799182.7694
        47.0004         40.0004
  21432530.0934     524343.91843    413526.92842  21432531.5914   21432527.8654
        55.0004         48.0004
  22371925.0024  -14313820.89543 -11089588.67542  22371927.0904   22371922.8814
        52.0004         45.0004
  20373492.5264  -21490192.50044 -16724256.14642  20373494.1824   20373489.9404
        57.0004         50.0004
  21774876.3584  -17610812.10243 -13671296.29842  21774877.3334   21774874.6634
        54.0004         47.0004
  23236035.8944  -10771795.52643  -8177303.53942  23236038.9214   23236032.5904
        49.0004         41.0004
  22173882.4644   -7304086.25343  -5671290.63442  22173884.4724   22173880.6234
        53.0004         47.0004
 05 10 14 21  2 30.0000000  0  9G 8G28G26G27G29G31G 7G11G17
  20229835.2334   -8398279.63344  -6533294.30442  20229835.7814   20229831.1384
        58.0004         51.0004
  20859724.0944   -8779037.63243  -6836157.68742  20859725.5644   20859720.0304
        56.0004         50.0004
  22787471.5714   -9201206.58343  -7104484.66042  22787472.8114   22787468.9854
        48.0004         40.0004
  21440691.6644     567232.94443    446946.91042  21440693.1254   21440688.9204
        55.0004         48.0004
  22363076.3564  -14360320.88143 -11125822.41442  22363078.4864   22363074.1614
        52.0004         45.0004
  20363461.9164  -21542904.61344 -16765330.49542  20363463.5724   20363458.9974
        57.0004         50.0004
  21760277.8234  -17687528.22843 -13731075.06842  21760279.0084   21760275.7474
        54.0004         47.0004
  23232327.7064  -10791282.28343  -8192488.00742  23232329.7714   23232325.7284
        49.0004         41.0004
  22156393.8094   -7395990.05743  -5742903.94642  22156396.1014   22156391.4104
        52.0004         47.0004
 05 10 14 21  3  0.0000000  0  9G 8G28G26G27G29G31G 7G11G17
  20230465.0744   -8394969.71744  -6530715.15942  20230465.3944   20230460.7494
        58.0004         51.0004
  20859982.5064   -8777679.71043  -6835099.57042  20859984.2754   20859978.5644
        56.0004         50.0004
  22775854.3254   -9262256.40043  -7152055.93942  22775857.0024   22775852.6354
        48.0004         41.0004
  21448922.4164     610486.83543    480651.20642  21448924.2134   21448919.7344
        55.0004         48.0004
  22354322.8324  -14406320.65943 -11161666.38042  22354324.5724   22354320.1094
        52.0004         45.0004
  20353534.5524  -21595073.68844 -16805981.70442  20353535.8984   20353531.3664
        57.0004         50.0004
  21745746.1374  -17763893.69243 -13790580.59942  21745747.1734   21745744.0784
        54.0004         47.0004
  23228706.6104  -10810311.67343  -8207316.10142  23228707.1654   23228703.2254
        50.0004         41.0004
  22138963.6414   -7487585.28443  -5814276.81542  22138965.9624   22138961.7314
        52.0004         47.0004
 05 10 14 21  3 30.0000000  0  9G 8G28G26G27G29G31G 7G11G17
  20231171.5814   -8391256.77244  -6527821.96842  20231171.8444   20231167.3834
        57.0004         50.0004
  20860278.7984   -8776122.84143  -6833886.43142  20860280.6034   20860274.9024
        56.0004         50.0004
  22764332.7224   -9322802.04643  -7199234.32442  22764334.3214   22764330.6294
        48.0004         41.0004
  21457223.1744     654107.07243    514640.96842  21457224.4454   21457220.5154
        55.0004         47.0004
  22345665.1154  -14451817.61843 -11197118.54542  22345667.0694   22345662.8754
        52.0004         45.0004
  20343710.7904  -21646697.14844 -16846207.75742  20343712.4124   20343707.9024
        57.0004         50.0004
  21731281.3424  -17839905.77143 -13849810.76842  21731282.7754   21731279.6414
        54.0004         47.0004
  23225172.8954  -10828880.98743  -8221785.67142  23225174.3864   23225169.2254
        49.0004         41.0004
  22121593.0284   -7578868.64843  -5885406.66942  22121595.0744   22121590.1894
        52.0004         47.0004
 05 10 14 21  4  0.0000000  0  9G 8G28G26G27G29G31G 7G11G17
  20231954.7414   -8387140.77744  -6524614.70742  20231954.8204   20231950.9964
        57.0004         50.0004
  20860612.7994   -8774368.51043  -6832519.41942  20860614.3394   20860608.6974
        56.0004         50.0004
  22752907.1254   -9382842.10743  -7246018.76942  22752909.8334   22752906.9334
        47.0004         40.0004
  21465593.4194     698093.44543    548916.03342  21465595.0324   21465591.5074
        55.0004         47.0004
  22337103.0254  -14496810.68243 -11232178.06542  22337104.3724   22337100.8334
        52.0004         45.0004
  20333991.2124  -21697774.26044 -16886008.08442  20333992.7074   20333988.0224
        57.0004         50.0004
  21716884.1674  -17915563.53043 -13908764.83942  21716884.9754   21716881.9674
        54.0004         47.0004
  23221726.9684  -10846989.33543  -8235896.05242  23221730.0044   23221722.5614
        49.0004         42.0004
  22104281.9354   -7669838.42643  -5956292.17442  22104283.9264   22104279.9254
        53.0004         47.0004
 05 10 14 21  4 30.0000000  0  9G 8G28G26G27G29G31G 7G11G17
  20232814.2994   -8382624.29144  -6521095.38142  20232814.3574   20232810.1404
        57.0004         50.0004
  20860983.3014   -8772421.74843  -6831002.46442  20860984.8594   20860979.3024
        56.0004         50.0004
  22741577.9474   -9442378.58543  -7292410.79342  22741579.4014   22741575.3074
        48.0004         41.0004
  21474032.6914     742441.56443    583472.97342  21474034.2344   21474030.5854
        54.0004         47.0004
  22328636.5054  -14541302.58943 -11266847.07242  22328638.6114   22328633.7364
        51.0004         45.0004
  20324374.8524  -21748307.93144 -16925384.95042  20324376.3734   20324371.8464
        57.0004         50.0004
  21702553.7524  -17990869.56343 -13967444.84442  21702554.7714   21702551.9474
        54.0004         47.0004
  23218368.2854  -10864639.31143  -8249649.27742  23218369.6914   23218365.3074
        49.0004         41.0004
  22087030.2464   -7760496.99043  -6026935.17242  22087032.4564   22087027.9074
        53.0004         47.0004
 05 10 14 21  5  0.0000000  0  9G 8G28G26G27G29G31G 7G11G17
  20233751.4864   -8377699.85544  -6517258.17142  20233751.5264   20233747.0724
        57.0004         50.0004
  20861391.5084   -8770276.79543  -6829331.07842  20861392.9084   20861387.0364
        56.0004         50.0004
  22730346.2204   -9501403.26043  -7338404.00942  22730348.0774   22730343.5234
        48.0004         41.0004
  21482541.9974     787158.22443    618317.08842  21482543.9364   21482539.3874
        54.0004         47.0004
  22320266.8954  -14585285.40543 -11301119.38442  22320268.7024   22320265.1284
        52.0004         45.0004
  20314863.5184  -21798290.39744 -16964332.30742  20314865.1344   20314860.6044
        57.0004         50.0004
  21688292.2234  -18065815.76443 -14025844.45742  21688293.1074   21688290.2614
        54.0004         47.0004
  23215098.4114  -10881822.77043  -8263038.96742  23215100.7674   23215097.0734
        50.0004         42.0004
  22069839.3464   -7850835.70743  -6097328.94942  22069841.2554   22069836.9034
        53.0004         47.0004
 05 10 14 21  5 30.0000000  0  9G 8G28G26G27G29G31G 7G11G17
  20234764.6804   -8372373.68244  -6513107.91942  20234765.0724   20234760.8594
        57.0004         50.0004
  20861835.8094   -8767941.83543  -6827511.63142  20861837.1284   20861832.0054
        56.0004         50.0004
  22719210.4484   -9559921.19843  -7384002.37642  22719212.0924   22719208.8184
        48.0004         41.0004
  21491119.8964     832236.28143    653442.80842  21491121.5864   21491117.5914
        54.0004         47.0004
  22311992.9044  -14628765.07943 -11334999.64642  22311994.6694   22311991.0414
        52.0004         45.0004
  20305455.8404  -21847727.85844 -17002854.99142  20305457.3824   20305452.8344
        57.0004         50.0004
  21674097.5534  -18140407.99543 -14083968.24442  21674099.1734   21674095.2604
        54.0004         47.0004
  23211916.6934  -10898545.65243  -8276069.74142  23211919.2734   23211915.3254
        50.0004         42.0004
  22052708.3144   -7940860.02443  -6167477.73442  22052710.2124   22052706.2964
        53.0004         47.0004
 05 10 14 21  6  0.0000000  0  9G 8G28G26G27G29G31G 7G11G17
  20235856.1984   -8366638.93844  -6508639.30042  20235856.3074   20235852.1414
        57.0004         50.0004
  20862317.1634   -8765411.60443  -6825540.02842  20862318.7944   20862313.1504
        56.0004         50.0004
  22708172.9494   -9617924.59443  -7429199.80242  22708174.5854   22708170.6724
        48.0004         41.0004
  21499768.0044     877682.18443    688855.16542  21499769.6264   21499765.9954
        54.0004         47.0004
  22303815.9874  -14671734.20543 -11368482.06542  22303818.2684   22303813.7844
        52.0004         45.0004
  20296153.6284  -21896613.05744 -17040947.33642  20296155.0854   20296150.3424
        57.0004         50.0004
  21659972.0484  -18214638.62443 -14141810.26642  21659972.9934   21659970.1584
        55.0004         47.0004
  23208823.4314  -10914800.67943  -8288735.96642  23208825.7884   23208821.8584
        49.0004         42.0004
  22035638.5884   -8030561.48043  -6237374.94642  22035640.4174   22035636.2184
        53.0004         47.0004
 05 10 14 21  6 30.0000000  0  9G 8G28G26G27G29G31G 7G11G17
  20237025.1924   -8360495.86444  -6503852.49942  20237025.4984   20237020.8974
        57.0004         50.0004
  20862835.4184   -8762688.39443  -6823418.04842  20862837.0194   20862831.4864
        56.0004         50.0004
  22697233.2984   -9675412.78543  -7473995.75242  22697235.5054   22697233.2224
        47.0004         41.0004
  21508485.8554     923494.50543    724553.03942  21508487.4764   21508483.5094
        54.0004         47.0004
  22295736.5124  -14714192.70543 -11401566.59442  22295737.9714   22295733.5714
        52.0004         45.0004
  20286955.8514  -21944946.38444 -17078609.65542  20286957.5484   20286952.5874
        57.0004         50.0004
  21645915.3404  -18288507.59143 -14199370.47642  21645915.9304   21645913.4344
        54.0004         47.0004
  23205819.1004  -10930587.74743  -8301037.56442  23205820.8394   23205814.4814
        50.0004         41.0004
  22018630.5944   -8119939.38443  -6307020.03042  22018632.4884   22018628.1124
        53.0004         47.0004
 05 10 14 21  7  0.0000000  0  9G 8G28G26G27G29G31G 7G11G17
  20238272.2144   -8353942.72944  -6498746.17342  20238272.6034   20238267.9544
        57.0004         50.0004
  20863390.4944   -8759772.13643  -6821145.64342  20863391.7054   20863386.2734
        56.0004         50.0004
  22686392.0874   -9732383.43643  -7518388.44542  22686393.4594   22686389.7884
        48.0004         41.0004
  21517273.5154     969673.95643    760536.98542  21517275.3664   21517271.5354
        54.0004         47.0004
  22287754.3454  -14756138.64043 -11434251.72742  22287756.1414   22287752.1204
        52.0004         45.0004
  20277863.5564  -21992726.14744 -17115840.62342  20277865.1244   20277860.3684
        57.0004         50.0004
  21631927.8274  -18362012.69943 -14256647.15642  21631928.4914   21631925.4114
        55.0004         47.0004
  23202904.2914  -10945904.85543  -8312972.95042  23202906.9104   23202902.8084
        50.0004         42.0004
  22001684.6454   -8208991.10943  -6376410.95242  22001686.6654   22001682.4584
        53.0004         47.0004
 05 10 14 21  7 30.0000000  0  9G 8G28G26G27G29G31G 7G11G17
  20239597.4394   -8346978.97244  -6493319.88342  20239597.5114   20239593.4114
        57.0004         50.0004
  20863981.7514   -8756664.09643  -6818723.79842  20863982.9164   20863977.3614
        56.0004         50.0004
  22675649.3804   -9788834.90843  -7562376.56642  22675652.8474   22675648.2124
        48.0004         42.0004
  21526131.1074    1016220.40143    796806.90342  21526133.0634   21526128.4344
        54.0004         47.0004
  22279870.0354  -14797571.05143 -11466536.71242  22279871.9604   22279868.7444
        52.0004         45.0004
  20268876.8864  -22039951.54144 -17152639.61842  20268878.1824   20268873.9334
        57.0004         50.0004
  21618009.5664  -18435153.10743 -14313639.65142  21618010.8014   21618007.0464
        55.0004         47.0004
  23200079.1934  -10960750.89543  -8324541.26342  23200081.4274   23200077.7874
        50.0004         42.0004
  21984801.0414   -8297715.05743  -6445546.46242  21984803.0294   21984798.0414
        53.0004         48.0004
 05 10 14 21  8  0.0000000  0  9G 8G28G26G27G29G31G 7G11G17
  20241000.3144   -8339605.64944  -6487574.44842  20241000.8384   20240996.3154
        57.0004         50.0004
  20864609.0494   -8753367.69743  -6816155.17442  20864610.4554   20864605.3114
        56.0004         50.0004
  22665006.0144   -9844767.76343  -7605960.57542  22665006.5524   22665003.2734
        48.0004         42.0004
  21535057.9134    1063131.62743    833361.06642  21535059.5224   21535055.6124
        54.0004         47.0004
  22272083.3444  -14838491.02643 -11498422.39342  22272085.1064   22272081.5654
        52.0004         45.0004
  20259995.6704  -22086623.75644 -17189007.56542  20259997.0734   20259992.5614
        57.0004         50.0004
  21604160.6244  -18507929.51443 -14370348.50842  21604161.6294   21604158.2624
        54.0004         47.0004
  23197343.0964  -10975127.36743  -8335743.68242  23197346.8254   23197338.7104
        49.0004         41.0004
  21967979.5504   -8386111.81943  -6514427.02342  21967981.9394   21967976.6804
        54.0004         48.0004
 05 10 14 21  8 30.0000000  0  9G 8G28G26G27G29G31G 7G11G17
  20242482.2494   -8331818.15344  -6481506.28142  20242482.8064   20242478.2824
        57.0004         50.0004
  20865272.9504   -8749879.62543  -6813437.19942  20865274.4454   20865268.7594
        56.0004         50.0004
  22654462.2064   -9900176.12943  -7649135.91342  22654464.1524   22654460.0774
        49.0004         42.0004
  21544054.9224    1110411.62743    870202.58942  21544056.9284   21544053.1254
        54.0004         47.0004
  22264395.3634  -14878893.19443 -11529904.59342  22264396.7294   22264393.6004
        53.0004         45.0004
  20251220.4364  -22132737.90244 -17224940.65342  20251221.9994   20251217.2724
        57.0004         50.0004
  21590381.7894  -18580336.69943 -14426769.66042  21590382.7644   21590379.9754
        55.0004         47.0004
  23194697.4884  -10989028.98443  -8346576.08342  23194700.0724   23194695.0404
        49.0004         41.0004
  21951221.6654   -8474175.05943  -6583047.69842  21951223.7954   21951218.9274
        54.0004         48.0004
 05 10 14 21  9  0.0000000  0  9G 8G28G26G27G29G31G 7G11G17
  20244042.8774   -8323617.28444  -6475116.00442  20244043.2784   20244038.7874
        57.0004         50.0004
  20865972.5954   -8746202.20743  -6810571.68142  20865974.1514   20865968.7034
        56.0004         50.0004
  22644018.0574   -9955059.98243  -7691902.51042  22644019.6064   22644015.1794
        49.0004         42.0004
  21553122.1764    1158058.83843    907330.25242  21553123.4654   21553120.1594
        53.0004         47.0004
  22256805.3924  -14918778.01043 -11560983.66642  22256807.5344   22256803.0804
        52.0004         45.0004
  20242551.2584  -22178294.51944 -17260439.30442  20242552.9964   20242547.9104
        57.0004         51.0004
  21576673.3074  -18652374.82143 -14482903.22342  21576674.6324   21576671.6024
        54.0004         47.0004
  23192143.5714  -11002455.76043  -8357038.46642  23192145.1644   23192139.8904
        48.0004         41.0004
  21934526.9204   -8561904.74143  -6651408.45842  21934529.2104   21934524.0674
        54.0004         48.0004
 05 10 14 21  9 30.0000000  0  9G 8G28G26G27G29G31G 7G11G17
  20245681.9424   -8315004.04144  -6468404.39542  20245682.2324   20245678.1804
        57.0004         50.0004
  20866707.9744   -8742337.96343  -6807560.58442  20866709.5674   20866703.7794
        56.0004         50.0004
  22633674.0064  -10009419.15443  -7734260.27642  22633676.9104   22633671.1804
        49.0004         42.0004
  21562258.8264    1206071.56243    944742.73042  21562260.8114   21562256.6294
        54.0004         47.0004
  22249313.3374  -14958146.02743 -11591660.03542  22249314.6674   22249311.2124
        52.0004         45.0004
  20233987.9604  -22223294.21044 -17295503.98842  20233989.6844   20233985.1284
        57.0004         50.0004
  21563035.3984  -18724044.22743 -14538749.48542  21563036.8134   21563033.0134
        55.0004         47.0004
  23189678.1424  -11015408.36943  -8367131.39442  23189680.0164   23189676.2194
        49.0004         41.0004
  21917896.2104   -8649300.59343  -6719509.08842  21917898.2874   21917893.5364
        54.0004         48.0004
 05 10 14 21 10  0.0000000  0  9G 8G28G26G27G29G31G 7G11G17
  20247400.1914   -8305974.14644  -6461368.12342  20247400.5794   20247396.2844
        57.0004         50.0004
  20867479.0504   -8738285.50143  -6804402.82442  20867480.5014   20867475.2884
        56.0004         50.0004
  22623430.2774  -10063249.43543  -7776205.92642  22623433.6174   22623428.4024
        50.0004         42.0004
  21571465.4404    1254452.52943    982442.15442  21571466.9344   21571463.2854
        54.0004         47.0004
  22241921.5094  -14996993.38143 -11621930.69442  22241922.7464   22241918.8544
        52.0004         45.0004
  20225531.4024  -22267733.39944 -17330131.91742  20225533.1624   20225528.5304
        57.0004         50.0004
  21549468.0974  -18795341.01543 -14594305.39542  21549469.3814   21549465.7544
        55.0004         47.0004
  23187303.9734  -11027882.93443  -8376851.81542  23187305.5524   23187303.5834
        49.0004         41.0004
  21901329.6094   -8736358.10043  -6787346.07242  21901331.9334   21901327.0144
        54.0004         48.0004
 05 10 14 21 10 30.0000000  0  9G 8G28G26G27G29G31G 7G11G17
  20249197.9354   -8296527.76944  -6454007.32042  20249198.1294   20249194.1564
        57.0004         50.0004
  20868285.9724   -8734046.10043  -6801099.39642  20868287.4434   20868281.8914
        56.0004         50.0004
  22613287.3324  -10116549.92643  -7817738.74242  22613288.9704   22613285.4844
        49.0004         42.0004
  21580742.0804    1303200.84443   1020427.82042  21580743.8954   21580739.9144
        54.0004         46.0004
  22234628.2964  -15035319.75543 -11651795.39142  22234629.2694   22234626.0294
        53.0004         45.0004
  20217181.4084  -22311612.10344 -17364323.10642  20217182.9034   20217178.5124
        57.0004         50.0004
  21535971.6044  -18866264.58143 -14649570.48342  21535973.0004   21535968.9774
        55.0004         47.0004
  23185021.1294  -11039879.26243  -8386199.58842  23185022.9224   23185019.1524
        49.0004         41.0004
  21884827.8394   -8823076.35543  -6854918.70342  21884829.9724   21884825.6034
        54.0004         48.0004
 05 10 14 21 11  0.0000000  0  9G 8G28G26G27G29G31G 7G11G17
  20251075.4794   -8286661.42544  -6446319.26942  20251075.6984   20251071.4644
        57.0004         50.0004
  20869128.6614   -8729617.97443  -6797648.90942  20869130.2034   20869124.6254
        56.0004         50.0004
  22603246.5214  -10169315.64843  -7858854.86842  22603248.0494   22603244.2314
        49.0004         42.0004
  21590089.1574    1352319.51643   1058702.07942  21590090.6034   21590086.4504
        54.0004         46.0004
  22227434.9184  -15073120.86343 -11681250.79442  22227436.4844   22227432.1754
        53.0004         45.0004
  20208939.2244  -22354926.25044 -17398074.37842  20208940.8164   20208936.3024
        57.0004         50.0004
  21522547.0624  -18936810.69543 -14704541.44842  21522548.4784   21522545.3694
        55.0004         47.0004
  23182829.9114  -11051392.91843  -8395171.25042  23182832.8944   23182828.2344
        49.0004         41.0004
  21868391.4784   -8909450.04543  -6922222.84342  21868393.8184   21868389.0724
        54.0004         48.0004
 05 10 14 21 11 30.0000000  0  9G 8G28G26G27G29G31G 7G11G17
  20253032.3674   -8276378.54544  -6438306.64742  20253032.5934   20253028.3364
        57.0004         50.0004
  20870006.1854   -8725006.04243  -6794055.20242  20870007.6474   20870002.5024
        56.0004         50.0004
  22593306.6424  -10221549.78343  -7899556.76142  22593308.7594   22593305.5094
        49.0004         43.0004
  21599505.3194    1401803.44043   1097260.94542  21599507.4314   21599502.6074
        54.0004         47.0004
  22220340.9744  -15110400.25743 -11710299.67042  22220342.0664   22220338.6054
        53.0004         45.0004
  20200803.3494  -22397679.71144 -17431388.75142  20200804.9194   20200800.5964
        57.0004         51.0004
  21509193.6194  -19006982.60843 -14759220.83042  21509194.3574   21509191.7254
        55.0004         47.0004
  23180730.3914  -11062427.63943  -8403769.73742  23180730.2364   23180728.8364
        49.0004         41.0004
  21852020.0914   -8995482.16543  -6989260.82542  21852022.1174   21852017.4544
        55.0004         48.0004
 05 10 14 21 12  0.0000000  0  9G 8G28G26G27G29G31G 7G11G17
  20255069.0904   -8265675.24744  -6429966.43042  20255069.3934   20255065.1684
        57.0004         50.0004
  20870919.1164   -8720208.46643  -6790316.83442  20870920.5424   20870915.3234
        56.0004         50.0004
  22583468.7014  -10273247.54343  -7939840.70642  22583471.8604   22583465.8884
        49.0004         43.0004
  21608991.9344    1451655.88043   1136106.96942  21608993.4084   21608989.5794
        53.0004         46.0004
  22213346.8504  -15147153.92943 -11738938.88742  22213348.1354   22213344.7594
        53.0004         45.0004
  20192775.1604  -22439868.67344 -17464263.26142  20192776.5384   20192772.2354
        57.0004         51.0004
  21495912.5184  -19076776.11243 -14813605.35042  21495913.5624   21495910.6364
        55.0004         47.0004
  23178722.7164  -11072979.21643  -8411991.75042  23178726.3214   23178721.0174
        49.0004         41.0004
  21835714.9294   -9081167.67843  -7056028.72042  21835717.1144   21835712.1644
        55.0004         48.0004
 05 10 14 21 12 30.0000000  0  9G 8G28G26G27G29G31G 7G11G17
  20257185.5524   -8254553.00744  -6421299.76142  20257185.9194   20257181.7124
        57.0004         50.0004
  20871866.8954   -8715227.72743  -6786435.74042  20871868.7154   20871863.3034
        56.0004         50.0004
  22573733.1254  -10324409.24343  -7979706.94642  22573735.3244   22573731.3214
        49.0004         42.0004
  21618548.6544    1501874.92943   1175238.66842  21618550.9414   21618546.0084
        54.0004         47.0004
  22206452.6154  -15183382.61443 -11767169.01842  22206454.1944   22206450.8384
        53.0004         45.0004
  20184854.2064  -22481494.21144 -17496698.73542  20184855.7614   20184851.0124
        57.0004         51.0004
  21482703.0864  -19146191.78743 -14867695.45642  21482704.0854   21482701.1174
        55.0004         47.0004
  23176806.6174  -11083048.43443  -8419837.88242  23176810.0934   23176804.3174
        49.0004         41.0004
  21819475.2934   -9166506.73543  -7122526.64742  21819477.9444   21819472.7444
        55.0004         48.0004
 05 10 14 21 13  0.0000000  0  9G 8G28G26G27G29G31G 7G11G17
  20259382.3034   -8243009.12444  -6412304.53642  20259382.4384   20259378.2684
        57.0004         50.0004
  20872849.8124   -8710063.77643  -6782411.88542  20872851.2554   20872845.9234
        56.0004         50.0004
  22564099.5424  -10375032.09643  -8019153.29742  22564102.1474   22564097.0034
        49.0004         42.0004
  21628174.5194    1552461.89643   1214657.04942  21628176.4654   21628172.3994
        54.0004         46.0004
  22199659.1664  -15219084.06043 -11794988.32142  22199660.6074   22199656.4854
        53.0004         45.0004
  20177040.5774  -22522554.35744 -17528693.64342  20177042.1454   20177037.6284
        57.0004         51.0004
  21469566.0154  -19215227.25243 -14921489.29542  21469567.6194   21469564.3004
        55.0004         47.0004
  23174982.5574  -11092633.07743  -8427306.45642  23174985.3154   23174982.1334
        50.0004         41.0004
  21803301.9824   -9251496.24843  -7188752.21442  21803304.2394   21803299.7134
        55.0004         48.0004
 05 10 14 21 13 30.0000000  0  9G 8G28G26G27G29G31G 7G11G17
  20261659.8444   -8231041.04344  -6402978.77042  20261659.9054   20261655.9794
        57.0004         50.0004
  20873867.4354   -8704715.01543  -6778244.02042  20873869.0424   20873863.5314
        56.0004         50.0004
  22554569.6434  -10425112.35443  -8058176.86342  22554570.2514   22554568.4234
        49.0004         42.0004
  21637871.5474    1603418.69543   1254363.62342  21637873.5304   21637869.4134
        54.0004         46.0004
  22192965.8954  -15254255.09943 -11822394.32242  22192968.2284   22192963.2154
        53.0004         45.0004
  20169335.3594  -22563046.11944 -17560245.65842  20169337.0074   20169332.2484
        57.0004         51.0004
  21456502.0074  -19283879.00043 -14974984.13442  21456503.0024   21456499.7884
        55.0004         47.0004
  23173251.4784  -11101730.07843  -8434395.04242  23173254.2284   23173246.5244
        50.0004         41.0004
  21787196.5344   -9336132.29343  -7254702.34942  21787198.5834   21787194.0044
        55.0004         48.0004
 05 10 14 21 14  0.0000000  0  9G 8G28G26G27G29G31G 7G11G17
  20264017.8374   -8218649.60644  -6393323.11842  20264017.9914   20264014.1554
        57.0004         50.0004
  20874919.8354   -8699184.34943  -6773934.41242  20874921.4204   20874915.8224
        56.0004         50.0004
  22545143.1904  -10474650.22443  -8096777.76642  22545145.6594   22545140.8354
        49.0004         42.0004
  21647638.2844    1654743.30143   1294356.79642  21647638.8494   21647636.1984
        53.0004         46.0004
  22186373.8934  -15288896.38343 -11849387.52542  22186376.1584   22186371.3114
        53.0004         45.0004
  20161737.9714  -22602970.54444 -17591355.59042  20161739.3914   20161735.0504
        57.0004         51.0004
  21443510.8334  -19352147.57143 -15028180.39342  21443512.0434   21443509.3374
        55.0004         47.0004
  23171612.9084  -11110340.03043  -8441104.12042  23171615.1044   23171609.5754
        49.0004         41.0004
  21771158.4094   -9420414.67343  -7320376.90042  21771160.3154   21771155.5454
        55.0004         49.0004
 05 10 14 21 14 30.0000000  0  9G 8G28G26G27G29G31G 7G11G17
  20266456.2404   -8205836.50844  -6383338.89642  20266456.5334   20266452.2314
        57.0004         50.0004
  20876006.2904   -8693474.89943  -6769485.48842  20876007.8684   20876002.8074
        56.0004         50.0004
  22535819.4224  -10523646.69743  -8134956.80742  22535822.1944   22535817.7064
        49.0004         42.0004
  21657474.3174    1706432.97443   1334634.43242  21657476.3334   21657472.4844
        53.0004         46.0004
  22179882.6314  -15323009.45043 -11875969.13142  22179884.2344   22179880.4674
        53.0004         46.0004
  20154248.0414  -22642329.58744 -17622024.96442  20154249.4934   20154245.3574
        57.0004         51.0004
  21430592.4944  -19420034.35943 -15081079.15942  21430593.8034   21430590.3364
        55.0004         47.0004
  23170066.8834  -11118464.26443  -8447434.72242  23170070.1304   23170064.1004
        49.0004         41.0004
  21755186.8924   -9504344.26743  -7385776.54742  21755189.2684   21755184.4054
        55.0004         49.0004
 05 10 14 21 15  0.0000000  0  9G 8G28G26G27G29G31G 7G11G17
  20268975.6544   -8192596.22344  -6373021.80442  20268975.8204   20268971.6644
        57.0004         50.0004
  20877127.5254   -8687582.75343  -6764894.21242  20877129.1194   20877123.9444
        56.0004         50.0004
  22526599.4884  -10572095.37843  -8172709.00842  22526601.5014   22526599.1314
        49.0004         42.0004
  21667380.8904    1758492.51643   1375200.27842  21667382.4634   21667379.2894
        53.0004         46.0004
  22173492.6374  -15356588.74543 -11902134.80342  22173494.5614   22173489.9744
        53.0004         46.0004
  20146866.9504  -22681117.73844 -17652249.49042  20146868.3954   20146864.0274
        57.0004         51.0004
  21417747.8334  -19487533.45443 -15133675.83042  21417748.4834   21417746.1264
        55.0004         47.0004
  23168614.3704  -11126097.47343  -8453382.70242  23168617.3554   23168609.7864
        50.0004         41.0004
  21739283.8394   -9587914.59743  -7450896.24942  21739286.0564   21739281.2954
        55.0004         49.0004
 05 10 14 21 15 30.0000000  0  9G 8G28G26G27G29G31G 7G11G17
  20271576.4634   -8178929.69844  -6362372.57742  20271576.8044   20271572.4414
        57.0004         50.0004
  20878283.2434   -8681510.37743  -6760162.49542  20878284.6324   20878279.6184
        56.0004         50.0004
  22517484.1564  -10619996.64343  -8210034.64642  22517486.2704   22517482.5504
        48.0004         42.0004
  21677357.7434    1810919.93043   1416052.77942  21677359.2684   21677355.6724
        53.0004         46.0004
  22167204.2264  -15389634.90143 -11927885.04542  22167206.3574   22167201.9964
        53.0004         46.0004
  20139594.2004  -22719335.95444 -17682029.90942  20139595.8494   20139591.1484
        57.0004         51.0004
  21404976.9524  -19554645.31643 -15185970.76342  21404977.6144   21404974.4724
        55.0004         48.0004
  23167254.5074  -11133240.09043  -8458948.41942  23167257.5574   23167251.5084
        49.0004         40.0004
  21723449.2134   -9671125.56843  -7515735.93242  21723451.6064   21723446.7204
        55.0004         49.0004
 05 10 14 21 16  0.0000000  0  9G 8G28G26G27G29G31G 7G11G17
  20274258.2744   -8164836.58944  -6351390.94942  20274258.2944   20274254.4254
        57.0004         50.0004
  20879472.8154   -8675258.92343  -6755291.23942  20879474.4524   20879469.2034
        56.0004         50.0004
  22508473.3744  -10667349.09743  -8246932.64942  22508475.6724   22508471.1244
        48.0004         42.0004
  21687404.1574    1863714.95643   1457191.73742  21687406.2054   21687402.4164
        54.0004         46.0004
  22161017.5424  -15422147.25743 -11953219.34242  22161019.3824   22161013.9704
        53.0004         46.0004
  20132430.1084  -22756983.79644 -17711365.88242  20132431.6304   20132427.2534
        57.0004         51.0004
  21392279.6534  -19621368.90643 -15237963.14342  21392280.6584   21392277.5814
        55.0004         48.0004
  23165989.9374  -11139891.36243  -8464131.26142  23165992.8754   23165986.8974
        49.0004         40.0004
  21707683.7654   -9753975.26343  -7580294.10442  21707685.8064   21707680.8184
        55.0004         49.0004
 05 10 14 21 16 30.0000000  0  9G 8G28G26G27G29G31G 7G11G17
  20277021.4004   -8150315.15744  -6340075.56042  20277021.5504   20277017.5144
        57.0004         50.0004
  20880696.6284   -8668828.54843  -6750280.56342  20880697.8264   20880692.6414
        56.0004         50.0004
  22499567.7034  -10714150.63843  -8283401.35242  22499570.7354   22499564.8804
        49.0004         42.0004
  21697520.9084    1916878.07943   1498617.52342  21697522.7064   21697519.1714
        53.0004         46.0004
  22154932.5174  -15454124.11343 -11978136.37042  22154934.0904   22154929.9504
        54.0004         46.0004
  20125374.6684  -22794060.12044 -17740256.51742  20125376.1214   20125371.8204
        57.0004         51.0004
  21379656.8904  -19687702.56843 -15289651.68542  21379657.5244   21379654.4414
        55.0004         48.0004
  23164817.7334  -11146049.96943  -8468930.22642  23164820.9604   23164814.6594
        49.0004         41.0004
  21691987.0424   -9836461.32543  -7644568.92842  21691989.2594   21691984.0194
        55.0004         49.0004
 05 10 14 21 17  0.0000000  0  9G 8G28G26G27G29G31G 7G11G17
  20279866.1994   -8135365.43944  -6328426.44442  20279866.5774   20279862.2634
        57.0004         50.0004
  20881953.8694   -8662220.66543  -6745131.56942  20881955.1714   20881950.1234
        56.0004         50.0004
  22490766.4584  -10760400.43143  -8319440.13542  22490768.9144   22490764.2774
        49.0004         42.0004
  21707707.3224    1970408.23943   1540329.30942  21707708.6044   21707705.4834
        53.0004         46.0004
  22148949.3344  -15485565.40543 -12002636.07642  22148951.4174   22148946.8284
        54.0004         46.0004
  20118428.0604  -22830564.91844 -17768701.80642  20118429.7944   20118425.2034
        57.0004         51.0004
  21367108.0284  -19753645.83443 -15341036.01842  21367109.1324   21367106.0364
        55.0004         48.0004
  23163739.4484  -11151715.70843  -8473345.13642  23163742.6874   23163736.5344
        50.0004         41.0004
  21676359.8254   -9918583.03843  -7708559.84242  21676361.7484   21676356.9124
        55.0004         49.0004
 05 10 14 21 17 30.0000000  0  9G 8G28G26G27G29G31G 7G11G17
  20282793.0614   -8119985.53444  -6316442.12042  20282793.1824   20282789.2234
        57.0004         50.0004
  20883245.2584   -8655434.36143  -6739843.54542  20883246.7454   20883241.2784
        56.0004         50.0004
  22482070.7534  -10806095.71443  -8355046.82542  22482071.0854   22482067.2564
        49.0004         42.0004
  21717964.2984    2024306.98843   1582328.30342  21717966.0294   21717963.1654
        53.0004         46.0004
  22143068.6004  -15516468.62843 -12026716.50642  22143070.7024   22143066.0434
        53.0004         46.0004
  20111590.5144  -22866496.24244 -17796700.23142  20111592.0534   20111587.7304
        57.0004         51.0004
  21354634.4314  -19819196.03843 -15392114.06942  21354635.7104   21354632.5114
        55.0004         48.0004
  23162755.7524  -11156885.89743  -8477373.89842  23162759.3864   23162752.5864
        49.0004         41.0004
  21660802.5634  -10000336.96243  -7772264.17142  21660804.7474   21660800.2394
        55.0004         49.0004
 05 10 14 21 18  0.0000000  0  9G 8G28G26G27G29G31G 7G11G17
  20285801.5474   -8104175.59644  -6304122.70642  20285801.9004   20285797.7414
        57.0004         50.0004
  20884570.2374   -8648472.02243  -6734418.35042  20884571.2254   20884566.4514
        56.0004         50.0004
  22473480.6244  -10851236.32243  -8390221.31342  22473483.0394   22473477.3634
        48.0004         42.0004
  21728290.3714    2078572.47643   1624613.07042  21728292.3134   21728289.2534
        53.0004         46.0004
  22137289.9884  -15546834.45943 -12050378.18842  22137291.7624   22137288.1654
        54.0004         46.0004
  20104861.8214  -22901855.04144 -17824252.53542  20104863.3024   20104858.9904
        57.0004         51.0004
  21342235.2604  -19884353.55543 -15442886.13542  21342236.8094   21342233.4894
        55.0004         48.0004
  23161865.9374  -11161561.59743  -8481017.33442  23161865.0984   23161864.6644
        49.0004         41.0004
  21645315.5844  -10081722.87243  -7835681.73542  21645317.5274   21645312.5724
        55.0004         49.0004
 05 10 14 21 18 30.0000000  0  9G 8G28G26G27G29G31G 7G11G17
  20288892.5994   -8087933.33444  -6291466.41242  20288892.6434   20288888.6124
        57.0004         50.0004
  20885928.9404   -8641332.52143  -6728855.10742  20885930.3594   20885925.0774
        56.0004         50.0004
  22464996.7824  -10895819.17643  -8424961.17942  22464997.8374   22464995.3764
        49.0004         42.0004
  21738686.6834    2133206.28043   1667184.83442  21738688.4314   21738685.3494
        53.0004         46.0004
  22131614.2804  -15576660.16743 -12073619.00042  22131615.8214   22131611.8324
        53.0004         46.0004
  20098242.8134  -22936638.54244 -17851356.55542  20098244.1304   20098239.6844
        57.0004         51.0004
  21329911.1894  -19949115.18843 -15493349.72142  21329912.5364   21329909.4984
        55.0004         48.0004
  23161071.1524  -11165739.66743  -8484273.01042  23161073.1164   23161068.0674
        49.0004         41.0004
  21629898.6854  -10162737.14743  -7898809.71442  21629900.8354   21629895.8784
        55.0004         49.0004
 05 10 14 21 19  0.0000000  0  9G 8G28G26G27G29G31G 7G11G17
  20292065.6384   -8071258.08644  -6278472.72542  20292066.0744   20292061.5554
        57.0004         50.0004
  20887321.0304   -8634016.55943  -6723154.36642  20887322.5104   20887316.9304
        56.0004         50.0004
  22456619.5174  -10939842.67843  -8459265.19242  22456620.8284   22456617.9884
        49.0004         42.0004
  21749153.4354    2188208.41943   1710043.61842  21749155.4134   21749151.3934
        53.0004         46.0004
  22126041.8474  -15605945.09243 -12096438.41642  22126043.4464   22126039.0324
        54.0004         46.0004
  20091733.4534  -22970846.20844 -17878011.86942  20091735.0954   20091730.2964
        57.0004         51.0004
  21317663.4634  -20013480.08143 -15543504.15742  21317664.6584   21317661.3024
        55.0004         48.0004
  23160371.1654  -11169419.63343  -8487140.53742  23160372.8424   23160369.0854
        49.0004         41.0004
  21614553.0444  -10243377.80143  -7961646.55942  21614555.3304   21614550.6954
        55.0004         49.0004
 05 10 14 21 19 30.0000000  0  9G 8G28G26G27G29G31G 7G11G17
  20295320.7544   -8054152.18444  -6265143.46442  20295320.9714   20295317.0754
        57.0004         50.0004
  20888745.9654   -8626528.29843  -6717319.36042  20888747.4824   20888741.8044
        56.0004         50.0004
  22448348.3004  -10983309.13843  -8493135.13942  22448350.6504   22448347.3094
        49.0004         42.0004
  21759689.9814    2243575.22243   1753186.55342  21759691.3314   21759687.9844
        53.0004         46.0004
  22120571.5264  -15634691.36243 -12118838.10942  22120573.9414   22120568.7014
        54.0004         46.0004
  20085332.9874  -23004480.83844 -17904220.66342  20085334.5024   20085329.9854
        57.0004         51.0004
  21305490.0864  -20077450.42143 -15593351.14342  21305491.4564   21305487.4944
        55.0004         48.0004
  23159764.7264  -11172603.72243  -8489621.65642  23159764.7084   23159761.1804
        49.0004         41.0004
  21599278.7914  -10323646.46543  -8024193.54742  21599280.5784   21599275.9584
        55.0004         49.0004
 05 10 14 21 20  0.0000000  0  9G 8G28G26G27G29G31G 7G11G17
  20298658.3094   -8036613.56444  -6251477.02342  20298658.5764   20298654.4514
        57.0004         50.0004
  20890203.8514   -8618866.80043  -6711349.37242  20890205.2424   20890199.5684
        56.0004         50.0004
  22440183.4164  -11026215.28943  -8526568.48642  22440185.4614   22440182.5234
        50.0004         42.0004
  21770295.4284    2299307.96443   1796614.63742  21770296.4764   21770293.3314
        53.0004         46.0004
  22115204.1734  -15662897.01443 -12140816.55042  22115205.6224   22115201.3754
        53.0004         46.0004
  20079041.9714  -23037540.45644 -17929981.39942  20079043.3124   20079038.8604
        57.0004         51.0004
  21293392.5104  -20141023.51543 -15642888.58942  21293393.8124   21293390.2074
        55.0004         48.0004
  23159254.1294  -11175289.43843  -8491714.44142  23159257.5764   23159251.4284
        50.0004         41.0004
  21584075.4454  -10403540.37643  -8086448.50842  21584077.3814   21584073.1344
        55.0004         49.0004
 05 10 14 21 20 30.0000000  0  9G 8G28G26G27G29G31G 7G11G17
  20302078.3214   -8018641.18344  -6237472.58442  20302078.5914   20302074.4324
        57.0004         50.0004
  20891694.7714   -8611032.46543  -6705244.70342  20891696.2154   20891690.8294
        56.0004         50.0004
  22432125.7234  -11068559.54043  -8559563.99242  22432127.9154   22432121.9074
        50.0004         43.0004
  21780970.2944    2355406.84543   1840328.02642  21780971.4354   21780968.5244
        53.0004         46.0004
  22109939.7874  -15690560.64643 -12162372.62942  22109941.4704   22109937.7224
        53.0004         46.0004
  20072860.3954  -23070024.21544 -17955293.41342  20072862.1514   20072857.1964
        57.0004         51.0004
  21281370.6814  -20204197.85943 -15692115.32042  21281372.1664   21281369.1334
        55.0004         48.0004
  23158837.9334  -11177475.86843  -8493418.15542  23158840.6424   23158834.9154
        49.0004         42.0004
  21568943.5084  -10483057.20043  -8148409.64242  21568946.0174   21568940.9864
        55.0004         49.0004
 05 10 14 21 21  0.0000000  0  9G 8G28G26G27G29G31G 7G11G17
  20305581.3454   -8000233.14744  -6223128.67542  20305581.2634   20305577.2014
        57.0004         50.0004
  20893218.8254   -8603024.79943  -6699004.97042  20893220.2224   20893214.6244
        56.0004         50.0004
  22424175.0324  -11110339.14743  -8592119.52142  22424177.2914   22424173.2034
        49.0004         43.0004
  21791715.6934    2411872.90443   1884327.52242  21791717.5034   21791713.9284
        53.0004         46.0004
  22104779.2094  -15717680.21143 -12183504.76342  22104780.7654   22104777.1544
        53.0004         46.0004
  20066788.9814  -23101930.23744 -17980155.24042  20066790.5234   20066785.8264
        57.0004         51.0004
  21269425.5444  -20266971.00243 -15741029.42942  21269426.6344   21269423.5064
        55.0004         48.0004
  23158517.4254  -11179160.90443  -8494731.16042  23158519.0434   23158514.2254
        49.0004         41.0004
  21553884.3354  -10562193.45143  -8210074.22542  21553886.2244   21553881.6234
        55.0004         49.0004
 05 10 14 21 21 30.0000000  0  9G 8G28G26G27G29G31G 7G11G17
  20309167.8144   -7981385.11944  -6208441.91942  20309168.1984   20309164.1544
        57.0004         50.0004
  20894775.9744   -8594840.98043  -6692627.97642  20894777.5304   20894771.8314
        56.0004         50.0004
  22416332.8644  -11151549.38743  -8624231.36142  22416334.7644   22416331.9954
        50.0004         43.0004
  21802531.1224    2468709.36443   1928615.63842  21802532.4854   21802529.4894
        53.0004         46.0004
  22099722.7774  -15744251.43243 -12204209.61442  22099724.4884   22099720.4584
        53.0004         46.0004
  20060828.2454  -23133254.71344 -18004563.91842  20060829.8424   20060825.0834
        57.0004         51.0004
  21257557.2814  -20329338.44243 -15789627.40842  21257558.5604   21257555.0714
        55.0004         48.0004
  23158293.2674  -11180340.13943  -8495650.02342  23158294.7184   23158290.0634
        50.0004         41.0004
  21538898.7514  -10640944.40143  -8271438.57142  21538900.5204   21538896.0864
        55.0004         49.0004
 05 10 14 21 22  0.0000000  0  9G 8G28G26G27G29G31G 7G11G17
  20312837.4954   -7962101.00044  -6193415.34942  20312837.7044   20312833.5884
        57.0004         50.0004
  20896365.7874   -8586486.20243  -6686117.77142  20896367.2234   20896361.9054
        56.0004         50.0004
  22408598.7444  -11192193.73643  -8655902.27742  22408600.6174   22408597.0274
        50.0004         43.0004
  21813416.2894    2525911.18043   1973188.45742  21813418.0814   21813415.4404
        53.0004         46.0004
  22094770.3884  -15770278.27543 -12224490.28342  22094772.1604   22094767.5804
        53.0004         46.0004
  20054977.1864  -23164001.99544 -18028522.83242  20054978.7424   20054974.0174
        57.0004         51.0004
  21245765.6454  -20391303.96243 -15837912.20142  21245766.7814   21245763.2054
        56.0004         48.0004
  23158163.8664  -11181017.81943  -8496178.06942  23158165.6774   23158161.3354
        49.0004         41.0004
  21523985.7234  -10719312.91543  -8332504.91942  21523987.7304   21523982.7834
        55.0004         49.0004
 05 10 14 21 22 30.0000000  0  9G 8G28G26G27G29G31G 7G11G17
  20316590.6894   -7942378.57744  -6178047.24542  20316590.7974   20316586.8064
        57.0004         50.0004
  20897988.4004   -8577959.27143  -6679473.41342  20897989.6564   20897984.5114
        56.0004         50.0004
  22400972.5134  -11232269.06643  -8687129.79642  22400973.4634   22400969.3104
        50.0004         43.0004
  21824371.3884    2583479.92743   2018047.19542  21824372.6624   21824369.3144
        52.0004         46.0004
  22089921.2124  -15795758.32043 -12244344.87042  22089923.2564   22089918.9864
        53.0004         46.0004
  20049236.4324  -23194169.58044 -18052030.03842  20049238.1454   20049233.4444
        57.0004         51.0004
  21234050.9764  -20452864.52943 -15885881.44842  21234052.2184   21234048.7394
        55.0004         48.0004
  23158130.8464  -11181191.22043  -8496313.17142  23158132.5524   23158129.1104
        49.0004         41.0004
  21509146.0614  -10797295.52643  -8393270.55542  21509147.8214   21509143.3954
        55.0004         49.0004
 05 10 14 21 23  0.0000000  0  9G 8G28G26G27G29G31G 7G11G17
  20320427.4914   -7922215.71744  -6162335.94342  20320427.8054   20320423.6004
        57.0004         50.0004
  20899644.0474   -8569259.93543  -6672694.71642  20899645.0964   20899639.8354
        56.0004         50.0004
  22393455.1864  -11271772.93943  -8717912.01642  22393457.3574   22393453.8294
        50.0004         43.0004
  21835396.2964    2641416.63343   2063192.64542  21835397.9614   21835394.7424
        53.0004         46.0004
  22085176.9284  -15820689.51543 -12263771.78042  22085178.7054   22085174.9884
        52.0004         45.0004
  20043606.2984  -23223756.05444 -18075084.42942  20043607.7104   20043602.8364
        57.0004         51.0004
  21222413.9794  -20514017.93543 -15933533.42742  21222415.3124   21222411.6304
        56.0004         48.0004
  23158193.7974  -11180858.52843  -8496053.93442  23158196.8594   23158191.7564
        48.0004         41.0004
  21494380.2314  -10874889.01243  -8453732.98342  21494382.3234   21494378.0774
        55.0004         49.0004
 05 10 14 21 23 30.0000000  0  9G 8G28G26G27G29G31G 7G11G17
  20324347.4354   -7901615.92644  -6146284.17742  20324347.4794   20324343.4124
        57.0004         50.0004
  20901331.5954   -8560392.42843  -6665784.97442  20901332.5874   20901327.3694
        56.0004         50.0004
  22386046.4544  -11310707.92143  -8748250.95442  22386048.9424   22386043.5864
        50.0004         43.0004
  21846490.8094    2699716.88543   2108621.37542  21846492.6234   21846488.4954
        53.0004         46.0004
  22080536.3644  -15845075.14743 -12282773.57242  22080538.4364   22080534.1814
        52.0004         45.0004
  20038086.1654  -23252764.85544 -18097688.68342  20038087.6764   20038082.9684
        57.0004         51.0004
  21210853.7104  -20574767.14143 -15980870.44342  21210854.8324   21210851.7484
        55.0004         48.0004
  23158352.8284  -11180022.87043  -8495402.74442  23158356.5054   23158349.8894
        49.0004         41.0004
  21479688.4744  -10952096.15643  -8513894.36542  21479690.3074   21479685.3974
        55.0004         49.0004
 05 10 14 21 24  0.0000000  0  9G 8G28G26G27G29G31G 7G11G17
  20328351.7254   -7880574.09644  -6129887.96142  20328351.9394   20328347.4624
        57.0004         50.0004
  20903051.3134   -8551353.36843  -6658741.55542  20903052.8214   20903047.4674
        56.0004         50.0004
  22378746.3714  -11349068.48343  -8778142.29142  22378749.0904   22378744.2654
        50.0004         43.0004
  21857654.6854    2758384.61543   2154336.45342  21857656.6354   21857653.3674
        53.0004         46.0004
  22076000.9904  -15868910.20343 -12301346.34842  22076002.0004   22075998.7104
        52.0004         45.0004
  20032676.6724  -23281191.36544 -18119839.20542  20032678.0054   20032673.7084
        57.0004         51.0004
  21199371.2734  -20635106.83443 -16027888.36042  21199372.6284   21199369.3574
        55.0004         49.0004
  23158608.4694  -11178679.20543  -8494355.71942  23158610.7194   23158605.4904
        49.0004         42.0004
  21465071.0784  -11028910.42243  -8573749.60642  21465073.1164   21465068.4194
        55.0004         49.0004
